GFSGL_sfc_temp_000.txt.gz
Temp
73 72 71 69 68 67 67 67 67 66 67 67 67 67 68 68 68 67 67 68 67 67 67 66 67 66 65 64 63 63 60 59 57 64 63 66 64 65 66 67 68 67 68
74 72 71 71 69 70 67 68 67 67 66 67 67 67 68 68 68 67 67 69 67 67 67 67 67 68 65 65 63 62 61 60 59 58 64 64 63 65 65 64 66 69 68
75 70 70 69 69 67 67 67 67 67 66 67 67 67 67 67 67 67 67 67 67 67 67 66 66 66 64 64 62 61 61 62 60 59 61 65 65 66 64 65 64 65 68
74 70 69 68 69 68 67 67 67 67 67 67 67 67 67 67 67 68 67 67 66 67 67 67 66 65 64 64 63 62 62 61 60 59 61 62 63 65 64 62 62 66 65
72 71 71 70 70 68 66 67 67 67 68 67 67 67 67 68 71 68 67 67 67 67 67 67 66 66 65 64 63 63 61 60 60 59 60 61 62 63 61 64 61 63 65
72 71 72 69 67 66 66 66 66 67 66 67 66 67 67 70 66 66 68 68 68 67 67 66 65 65 65 64 64 64 63 62 60 60 61 59 61 62 63 61 61 60 58
71 71 70 67 66 66 66 66 66 65 66 66 66 67 67 68 63 63 66 67 66 66 64 63 63 64 64 64 63 62 63 62 62 62 59 59 60 62 61 59 59 57 58
70 70 68 67 66 65 65 64 65 65 65 66 66 66 66 67 62 61 64 66 65 65 63 63 62 62 63 62 62 62 62 62 62 63 61 61 61 62 61 61 58 57 59
69 68 67 68 67 67 66 65 67 66 65 65 66 66 65 65 60 59 61 64 64 63 63 62 61 61 59 58 61 60 59 60 60 59 59 58 58 58 58 58 55 54 53
68 68 68 68 66 66 67 67 66 65 65 65 65 64 61 63 59 58 59 62 62 62 60 60 58 58 55 54 59 57 56 58 58 58 59 59 59 60 59 59 58 54 53
68 69 69 68 67 67 65 64 63 64 64 64 63 62 63 63 64 57 55 61 62 60 60 61 59 54 52 52 51 56 55 56 56 55 56 58 58 58 59 60 58 55 53
67 67 66 66 67 64 63 62 63 62 62 62 63 61 60 63 56 56 53 56 58 60 59 59 56 51 50 51 53 52 51 54 54 54 54 54 53 55 57 56 57 56 57
65 64 65 65 65 64 63 62 62 62 62 62 62 62 63 58 56 52 52 51 54 58 57 55 52 49 48 52 52 53 52 53 52 51 51 52 54 55 55 55 57 56 57
63 63 64 64 63 63 62 63 62 61 60 61 62 61 60 56 55 56 57 56 54 56 54 54 53 54 53 54 53 52 52 52 52 49 50 51 53 53 52 54 52 53 53
63 62 62 62 63 63 62 60 61 59 57 61 61 61 58 56 56 52 52 55 56 52 51 54 54 55 52 52 52 50 51 52 50 50 49 49 50 51 50 52 52 51 51
63 61 61 61 62 61 54 52 46 45 45 44 46 53 55 50 46 45 43 43 41 42 52 54 52 50 51 50 50 50 51 51 51 50 50 49 50 49 48 50 50 50 49
62 60 61 61 61 58 56 54 53 49 43 42 43 44 46 46 44 42 41 41 41 46 53 51 50 50 49 49 49 49 49 49 48 50 48 50 50 49 48 49 49 49 49
62 56 61 59 59 57 56 55 54 53 52 52 45 47 43 43 43 42 42 46 53 50 51 50 49 49 48 49 49 48 48 49 49 49 49 49 49 48 48 49 49 47 48
61 60 61 60 57 56 56 55 54 53 53 53 51 46 43 41 40 42 43 54 52 51 50 49 49 49 49 49 48 47 46 47 47 47 48 47 48 49 49 50 47 47 49
61 58 58 59 56 55 55 54 53 53 52 53 54 54 51 50 53 52 51 50 50 50 49 50 49 49 48 47 46 45 47 47 46 47 46 47 48 49 50 50 50 46 48
61 60 58 59 57 56 56 56 55 54 54 54 55 53 46 55 54 52 51 51 51 50 50 50 48 48 47 45 45 46 46 47 46 46 46 47 48 49 50 52 52 54 54
60 59 59 59 58 57 57 57 56 56 53 55 55 52 43 55 54 52 52 51 51 51 51 49 48 47 47 46 45 46 46 46 46 45 46 47 49 50 51 52 53 53 53
58 58 57 56 56 54 57 57 57 57 56 56 56 54 50 53 54 53 52 52 51 50 49 48 47 46 45 45 45 45 46 46 44 44 45 47 49 49 50 51 51 52 51
58 58 57 56 56 56 56 57 58 52 57 55 52 51 51 52 51 52 52 52 51 50 48 47 47 47 44 44 45 45 45 45 44 45 45 47 49 48 50 51 51 51 51
57 56 56 55 55 56 56 58 58 58 57 54 54 55 55 55 54 53 52 52 50 49 48 47 47 46 45 44 44 45 40 34 40 37 48 49 49 49 50 51 50 52 51
57 57 56 55 55 55 55 55 55 55 55 55 54 54 54 54 54 53 52 51 50 49 48 47 47 46 46 46 46 40 33 32 40 33 48 50 50 51 51 50 51 52 51

GFSGL_sfc_temp_003.txt.gz
Temp
84 83 83 83 82 82 78 78 73 76 78 78 78 78 79 78 78 77 77 78 77 77 77 76 76 76 77 79 77 75 75 73 69 75 78 77 72 73 75 77 77 76 78
85 83 82 82 76 76 78 73 75 73 77 78 78 78 78 79 79 77 77 79 77 77 77 77 76 79 75 75 77 73 74 74 71 68 73 75 74 74 73 72 75 78 77
86 84 82 80 79 79 71 76 72 71 72 77 77 76 77 78 78 78 77 77 77 77 77 77 77 76 74 77 75 75 76 72 73 68 70 76 76 76 74 74 74 74 77
88 85 82 80 80 73 72 68 70 69 71 71 73 75 77 78 78 79 78 76 77 78 77 77 77 76 75 75 75 73 73 73 72 71 71 73 75 75 74 72 73 77 75
85 84 81 80 79 74 68 67 67 67 67 70 71 73 76 77 81 77 77 77 77 77 78 77 78 75 71 71 75 74 72 72 73 72 71 73 73 74 72 74 72 73 74
82 82 81 78 74 72 71 68 67 67 67 70 71 71 72 75 69 67 73 77 77 76 76 78 77 70 69 66 65 65 67 69 68 70 71 69 69 71 73 71 70 69 67
80 80 78 75 72 72 72 71 68 65 66 69 71 71 73 73 65 64 66 77 77 76 72 73 75 78 70 74 69 65 64 63 64 67 65 66 67 69 68 66 66 64 64
78 78 76 74 73 72 72 71 69 67 69 71 72 73 73 75 62 61 63 73 69 71 74 74 73 73 73 69 71 71 72 72 71 73 70 69 69 69 67 66 63 60 64
77 76 74 74 73 72 72 71 71 70 71 70 72 72 72 72 60 60 64 68 68 66 71 73 70 70 62 59 66 67 69 70 66 60 60 58 57 57 60 62 60 63 62
77 76 75 74 73 72 73 72 72 72 69 72 71 72 67 71 58 58 63 63 64 64 70 68 60 64 56 56 66 67 66 68 67 67 68 66 64 66 61 65 62 55 58
77 75 74 74 74 75 74 73 72 71 71 70 69 71 70 69 67 57 55 65 65 68 72 73 70 55 53 53 52 66 63 61 64 66 67 69 69 69 70 70 68 66 60
75 71 71 73 75 74 72 71 71 71 70 69 70 72 70 73 57 57 54 55 61 69 72 73 67 52 50 52 56 53 52 55 66 66 66 66 66 67 68 67 65 65 67
70 69 70 71 70 71 71 70 71 71 70 70 73 71 71 67 67 53 52 52 55 67 71 58 52 50 49 52 56 54 53 65 65 64 64 65 66 66 64 65 66 66 65
69 69 71 71 71 71 74 73 73 73 65 63 65 71 69 70 69 68 66 65 56 64 59 66 58 55 53 60 60 61 65 64 63 62 62 64 66 66 65 66 64 64 58
71 72 71 73 71 72 69 69 72 69 62 69 72 76 74 71 69 61 62 68 70 59 61 68 67 67 66 65 64 64 64 64 62 63 63 63 63 64 64 65 64 63 57
72 72 72 72 71 72 67 62 46 46 45 45 45 62 66 52 47 46 46 45 41 44 63 66 65 64 64 64 63 63 64 60 62 61 62 62 62 61 62 63 64 63 57
71 71 72 68 72 71 68 68 68 55 44 42 43 46 49 47 43 42 41 42 42 46 65 66 64 63 63 63 64 63 62 61 58 61 60 61 61 61 60 62 63 62 57
71 59 72 74 73 68 65 69 70 69 68 65 47 51 42 42 41 41 42 47 60 58 66 64 63 62 62 62 63 62 61 60 61 60 60 61 61 60 60 60 62 57 52
73 73 74 74 73 69 68 67 68 68 69 67 62 53 47 39 41 41 43 65 66 65 64 63 63 63 63 63 61 60 57 59 57 58 60 60 61 60 60 61 61 51 52
71 61 66 70 62 63 64 66 67 66 66 67 67 68 64 57 63 63 64 64 65 65 64 62 62 62 62 61 59 58 59 59 60 60 60 60 61 61 61 61 62 61 60
72 71 64 71 71 69 69 69 69 69 69 69 70 66 53 65 66 65 65 64 64 64 62 63 62 62 61 60 59 59 61 60 60 59 59 60 60 60 62 63 64 63 63
73 71 73 73 71 69 69 68 68 69 70 69 69 58 44 64 67 66 64 64 64 63 64 62 62 64 63 61 59 61 61 60 59 59 59 60 61 61 61 62 63 63 63
73 73 71 70 70 62 67 70 69 68 69 67 68 67 62 65 66 65 63 65 64 63 62 62 61 62 62 61 61 61 61 60 58 57 57 59 60 60 61 61 62 62 61
72 72 71 70 70 70 70 68 67 59 69 69 68 67 64 59 59 60 61 64 63 63 61 61 62 62 58 59 60 61 61 60 58 59 56 58 60 58 61 61 62 61 62
72 70 70 69 69 70 69 70 70 70 69 69 69 66 64 64 64 66 65 64 63 62 60 60 61 59 57 56 57 56 46 36 45 39 58 59 59 58 60 61 61 62 61
71 70 69 69 69 69 68 68 68 69 69 69 69 68 67 66 67 66 65 64 64 63 61 61 60 58 57 57 56 44 34 33 44 32 53 60 60 60 60 60 59 61 61

GFSGL_sfc_temp_006.txt.gz
Temp
91 90 89 89 89 88 88 86 86 86 85 84 83 83 84 82 82 80 80 82 81 80 81 80 79 80 83 85 86 85 83 82 76 80 83 84 80 80 81 82 82 81 83
93 90 89 89 89 88 85 84 81 83 83 82 81 80 80 83 82 80 80 82 81 80 80 80 80 83 80 80 83 79 81 80 78 72 77 80 79 81 80 78 80 84 83
94 92 90 89 89 88 85 84 83 82 77 77 76 76 78 77 82 81 81 81 81 81 81 80 80 81 79 81 80 80 82 81 80 78 76 81 81 82 80 76 79 80 83
98 94 91 89 89 87 86 78 77 79 76 71 73 73 77 80 80 80 81 81 80 81 81 80 80 80 79 78 79 78 78 78 78 77 76 78 74 77 77 74 78 83 82
95 95 92 90 89 85 82 79 77 77 77 72 73 74 77 78 78 80 81 81 79 80 81 81 82 80 75 75 80 79 77 77 77 75 76 77 73 71 71 79 77 79 79
92 92 92 88 86 83 79 77 78 76 75 73 73 75 75 78 73 70 76 81 80 79 79 80 79 74 72 67 66 66 69 71 71 74 74 73 72 72 77 76 75 73 71
89 89 88 86 83 80 79 78 76 75 74 77 77 76 75 77 67 67 68 81 81 80 78 77 76 74 71 79 69 65 65 64 64 70 69 71 69 72 72 67 70 70 70
86 86 86 84 81 80 78 76 76 77 76 76 77 76 77 80 65 63 66 78 78 79 78 76 74 69 70 75 76 76 75 76 76 76 73 73 73 73 70 69 68 67 69
85 84 84 83 80 78 76 76 78 77 77 78 79 78 77 78 60 61 65 80 79 76 71 72 71 69 64 62 71 72 73 74 70 63 61 60 60 59 61 68 69 66 65
85 84 83 82 81 78 77 77 76 77 78 80 78 78 74 76 59 59 64 81 74 75 67 68 62 66 59 58 69 71 70 73 74 73 73 69 65 71 61 67 65 59 60
87 85 82 81 80 79 77 75 76 76 75 76 76 78 76 70 74 56 57 73 78 73 75 72 74 59 56 54 54 71 68 65 68 71 74 76 76 76 77 72 71 71 69
85 82 78 78 78 80 75 73 71 72 73 74 73 74 76 79 61 56 55 58 65 76 73 81 66 54 53 53 56 56 55 56 73 74 73 73 74 74 75 74 70 70 72
78 75 75 77 76 75 72 70 72 74 77 73 70 76 72 78 67 54 53 53 56 73 81 60 54 52 51 52 55 56 53 70 72 71 71 72 73 73 71 71 73 72 72
76 76 74 73 74 74 74 74 75 76 75 73 74 69 68 69 73 73 62 66 57 67 59 69 63 57 52 57 62 61 71 72 70 69 70 71 72 72 72 73 71 72 71
74 75 74 75 73 74 71 68 78 70 70 79 76 70 69 69 74 66 67 78 78 65 69 75 73 74 73 73 72 72 71 71 69 70 69 69 70 70 70 72 70 70 67
76 77 79 80 79 77 75 73 46 48 46 46 46 60 65 54 48 46 45 45 48 49 68 74 74 74 72 73 71 71 71 66 69 68 68 68 68 68 67 68 70 68 63
79 79 82 78 82 80 79 78 75 58 44 43 43 45 48 47 45 43 43 42 43 47 72 74 72 73 71 71 70 70 69 70 65 67 67 67 67 67 66 67 67 67 66
80 64 82 82 82 81 80 79 80 78 75 71 49 53 43 42 42 42 42 46 65 62 74 74 72 72 70 69 69 69 69 68 68 67 67 67 68 67 66 66 66 65 66
80 81 82 82 82 78 80 80 80 79 78 76 65 55 48 42 42 43 45 71 74 75 76 73 73 72 71 69 69 67 65 66 64 65 67 67 67 67 66 67 67 58 59
80 65 72 82 80 80 79 79 79 78 78 76 75 75 69 62 69 70 70 72 73 74 75 72 71 71 69 67 67 66 65 66 66 67 67 67 67 67 67 67 68 67 67
83 78 70 80 80 80 80 80 80 80 78 78 79 75 60 73 75 74 73 71 72 73 71 71 70 69 68 67 65 65 67 67 67 67 66 67 66 66 67 68 69 70 70
82 80 80 79 81 79 80 81 80 79 79 78 77 65 50 71 73 73 73 73 73 72 73 70 70 70 72 68 67 66 67 67 67 66 65 66 67 68 68 68 69 69 69
80 78 80 82 82 68 77 79 79 79 79 77 77 74 68 70 74 73 72 72 72 71 71 70 69 70 71 68 68 68 68 69 67 65 64 65 66 66 67 67 68 68 68
81 82 82 82 80 79 79 78 78 65 74 74 71 72 71 73 74 71 69 71 71 71 70 69 69 69 67 66 68 68 68 67 65 66 63 64 65 64 67 67 67 67 68
81 81 80 80 78 77 78 77 76 75 73 75 75 72 73 74 72 69 69 70 71 70 69 69 69 67 64 63 65 65 42 38 51 39 62 65 64 64 66 67 66 68 67
80 79 80 79 78 77 76 76 76 76 76 76 76 76 75 74 73 68 69 71 71 71 69 69 68 66 65 64 63 43 35 36 47 33 54 64 65 66 64 65 64 67 66

GFSGL_sfc_temp_009.txt.gz
Temp
92 91 91 90 90 90 90 90 90 90 89 88 85 85 84 82 82 81 81 83 82 80 81 80 81 81 82 85 86 85 83 82 76 80 83 83 81 81 82 81 83 82 83
94 92 91 91 91 90 89 90 89 87 88 86 85 83 84 80 75 81 80 82 81 80 80 79 80 83 79 79 82 79 80 80 78 72 77 80 79 81 81 80 82 85 84
95 94 92 91 91 90 89 90 88 87 86 86 85 82 81 82 82 82 81 76 81 82 81 81 80 80 78 81 79 79 80 80 80 79 77 76 76 73 77 80 74 75 78
99 97 92 91 91 91 90 88 89 86 85 84 83 81 81 81 81 82 81 81 81 81 81 82 81 80 78 77 77 76 77 77 78 78 78 77 78 77 79 78 74 72 74
98 97 94 92 92 91 89 88 87 86 85 83 83 80 79 83 85 80 82 81 78 79 81 81 81 80 76 75 78 74 74 76 79 77 76 77 78 78 73 77 74 76 73
96 96 95 92 90 89 88 87 84 83 83 82 80 77 78 83 74 70 78 81 81 79 79 81 80 76 76 69 69 67 67 69 70 72 73 72 70 72 75 73 71 72 70
95 95 95 92 89 88 87 84 81 79 81 80 79 77 77 80 65 67 69 82 82 81 79 78 80 83 76 79 69 65 64 64 65 71 69 69 68 71 71 69 69 70 69
92 92 93 91 89 87 84 81 79 79 79 79 77 78 78 79 65 65 68 80 80 79 81 80 78 79 78 72 73 69 70 75 73 74 70 72 73 74 70 70 68 67 71
90 90 90 90 87 86 82 81 79 77 77 78 77 75 76 79 63 62 68 78 76 78 81 81 80 75 69 63 70 67 68 71 73 67 65 64 62 62 64 70 69 69 68
90 89 89 88 86 84 83 79 79 79 78 81 79 75 73 78 60 60 66 73 74 76 73 76 64 69 58 59 69 69 70 73 76 76 75 69 64 68 61 67 71 68 68
91 90 88 86 85 84 81 79 79 77 76 74 74 76 79 77 75 57 58 72 81 82 76 76 76 58 57 55 56 71 69 67 71 72 74 75 77 77 79 77 70 72 68
89 87 85 84 85 81 77 79 77 75 74 75 75 77 81 78 63 57 56 57 64 76 76 76 68 56 57 55 57 59 58 58 72 73 74 75 75 76 77 76 72 72 73
86 84 82 79 79 79 78 75 74 74 73 76 75 76 76 74 71 56 54 55 56 68 67 55 55 54 54 54 54 58 56 69 71 72 73 73 74 75 73 72 73 73 73
80 76 76 76 76 76 77 76 73 74 76 78 76 74 74 74 75 74 65 68 57 62 60 68 65 62 56 60 63 62 68 71 72 70 70 73 74 73 73 74 72 72 71
80 77 76 77 76 73 72 72 75 72 71 79 78 77 77 75 69 64 63 68 76 68 72 76 74 74 75 72 69 67 67 73 72 72 71 70 71 71 71 72 71 70 68
79 80 79 79 76 74 73 68 46 49 45 45 48 62 71 54 47 46 46 48 51 53 72 74 76 77 76 76 73 73 74 71 72 71 69 69 69 68 68 69 70 69 67
82 83 84 80 84 81 81 80 76 59 46 44 45 47 51 50 45 45 45 46 49 50 72 76 76 75 75 75 74 73 72 73 68 69 69 69 69 69 67 68 68 68 67
83 65 85 87 87 85 84 83 83 77 75 72 49 54 44 44 44 44 44 48 66 61 74 76 75 75 74 73 72 72 72 71 70 70 68 69 69 68 67 67 68 67 66
83 85 86 87 87 83 85 84 84 84 82 75 67 58 50 42 43 43 44 69 76 77 78 76 76 74 74 73 71 70 68 68 67 66 67 69 69 68 67 68 68 59 61
83 70 78 86 84 84 84 83 84 83 82 69 74 73 67 61 66 67 68 73 75 76 77 75 75 73 72 70 69 68 68 68 68 69 69 68 69 68 68 68 69 68 68
86 84 72 86 84 85 84 84 84 84 83 80 76 71 60 71 76 73 74 75 75 76 75 74 74 73 71 69 68 68 68 69 70 69 68 68 68 68 69 69 70 71 71
86 85 84 85 84 83 83 84 84 84 83 79 70 68 52 77 78 77 77 71 75 75 77 73 73 74 73 72 69 68 69 69 69 68 67 68 68 69 69 69 70 70 70
83 85 85 85 82 71 79 83 81 77 78 74 68 69 72 77 77 76 69 70 72 74 76 75 73 72 74 72 70 69 69 70 69 68 66 66 68 68 67 68 69 69 68
80 81 76 78 77 81 82 76 73 68 78 77 77 74 73 75 69 70 68 71 75 73 73 73 72 73 73 70 71 71 71 70 67 67 65 65 67 65 67 68 69 68 69
81 79 76 75 79 80 80 81 77 77 79 77 73 72 72 70 67 72 76 73 67 70 69 72 72 71 69 67 68 67 45 41 56 40 63 65 66 65 68 68 67 68 68
79 82 83 83 80 80 79 79 80 78 75 74 77 74 73 73 72 73 72 69 68 67 71 74 72 70 69 68 67 43 35 41 49 35 54 62 66 67 65 65 66 68 67

GFSGL_sfc_temp_012.txt.gz
Temp
86 86 86 86 86 85 85 85 84 84 83 82 81 80 80 79 78 76 75 76 75 74 75 75 75 76 74 74 75 74 72 71 68 69 71 73 73 72 74 74 76 73 73
87 86 86 86 86 85 84 85 85 84 84 82 82 80 80 78 78 75 75 77 76 74 74 74 74 78 73 74 73 72 72 73 70 67 70 70 71 73 73 71 75 80 74
89 88 86 86 85 85 84 85 85 84 83 83 81 80 79 78 77 76 75 75 76 74 74 74 73 74 73 73 72 71 71 72 71 67 68 70 70 70 69 70 70 71 75
91 89 86 86 86 86 85 84 85 84 83 83 81 80 80 79 77 77 77 76 75 75 76 75 74 73 73 73 72 71 71 69 68 64 66 69 69 70 70 67 67 69 68
90 90 87 87 86 86 85 85 85 84 84 83 81 80 80 79 81 77 77 76 75 74 76 75 76 76 75 73 71 71 70 68 67 66 67 69 69 67 65 67 66 66 68
89 89 88 86 85 84 84 84 84 84 83 82 80 80 78 78 73 71 76 77 75 73 74 75 76 74 73 69 65 67 70 68 66 65 66 66 65 65 66 66 64 64 63
88 88 87 86 85 84 85 84 83 82 82 80 80 79 76 76 66 66 71 77 74 75 75 74 75 78 73 74 67 67 66 65 67 67 65 66 65 65 65 64 63 63 62
88 88 88 87 85 84 84 84 83 82 81 79 78 74 74 76 67 64 66 72 73 73 75 74 72 72 73 73 72 71 68 68 66 66 65 67 67 67 66 65 63 62 64
89 88 88 88 86 85 84 83 82 80 78 76 74 72 71 73 63 62 64 72 73 73 74 73 72 73 68 62 69 68 67 69 70 64 65 64 64 62 64 64 62 61 61
89 89 89 88 86 84 83 80 78 77 76 77 73 73 70 73 63 61 63 75 73 73 71 71 65 70 61 59 67 66 65 67 68 69 69 66 63 65 62 63 65 61 62
90 89 88 87 85 84 82 79 76 76 77 74 73 74 74 71 72 58 58 72 71 69 69 68 71 59 57 57 58 67 64 62 66 67 67 68 69 70 70 70 65 63 62
87 86 84 84 85 83 79 76 76 75 73 72 72 71 71 74 62 57 56 59 63 70 70 69 68 55 54 57 56 59 57 58 64 65 65 66 67 66 66 65 65 64 65
84 82 82 82 79 78 76 75 74 75 74 72 73 72 71 73 72 55 55 56 57 62 71 60 55 54 58 55 55 58 58 62 63 64 64 64 64 65 66 65 65 65 65
80 79 78 76 75 76 75 76 75 74 74 75 73 72 71 71 71 69 67 62 57 62 59 59 60 60 61 63 61 57 61 64 64 64 63 64 65 64 63 63 61 61 60
77 76 75 74 74 72 65 68 75 65 65 74 73 74 75 73 73 66 66 68 67 63 64 67 65 65 66 64 64 64 64 64 63 65 64 63 61 62 61 62 60 60 59
76 75 73 74 72 73 69 65 47 48 46 46 49 68 64 52 49 48 48 48 51 58 67 67 68 70 69 69 64 64 62 63 64 64 62 61 60 60 60 60 60 59 57
77 76 78 75 77 74 73 71 67 56 47 45 45 51 56 49 46 45 46 47 51 58 68 68 68 70 69 68 67 67 66 66 64 64 63 62 61 60 59 59 59 59 58
80 70 80 80 80 78 78 76 76 71 69 65 48 52 44 44 44 44 46 53 64 60 67 69 70 69 68 67 67 66 65 64 63 62 60 60 61 60 59 59 59 58 58
79 80 77 82 83 79 80 81 79 75 74 67 60 54 47 43 44 46 45 66 69 71 69 68 71 70 68 67 66 65 64 63 61 60 60 60 61 61 59 60 60 56 57
80 71 76 83 79 82 82 81 81 79 70 68 68 66 63 60 63 64 64 66 69 72 73 71 70 68 66 66 65 63 63 62 62 62 61 61 61 61 61 61 61 60 59
83 81 70 82 80 83 82 81 82 82 77 74 70 69 57 67 69 69 70 69 71 73 71 70 68 68 67 65 65 64 63 63 63 63 62 61 60 61 60 61 62 63 63
81 80 83 83 80 78 82 81 82 82 78 74 77 66 51 70 74 73 68 66 70 70 70 68 70 70 70 67 63 64 63 63 64 63 61 61 61 62 61 61 62 63 62
82 80 80 74 71 70 73 81 75 77 67 75 75 70 66 71 73 70 70 72 69 66 66 68 70 70 70 67 66 65 64 63 62 62 61 60 61 61 61 61 62 61 62
81 76 76 75 71 75 73 68 66 68 73 75 72 72 71 73 73 67 69 68 69 66 67 70 67 71 68 67 67 67 64 62 62 60 58 58 60 60 61 61 62 61 62
77 76 65 71 75 69 76 77 72 79 78 77 73 71 74 72 73 71 67 67 66 66 68 67 65 70 69 67 64 58 42 42 51 43 58 58 58 58 61 61 61 61 62
79 77 72 72 71 77 74 77 76 69 70 74 75 75 73 71 73 72 71 71 71 70 70 68 66 70 69 67 60 44 35 40 47 39 50 55 58 60 60 60 61 61 61

GFSGL_sfc_temp_015.txt.gz
Temp
82 82 81 81 81 81 78 77 77 78 76 77 77 76 76 74 73 70 69 69 69 68 68 67 68 68 67 67 67 67 66 65 62 64 66 67 67 68 70 70 72 71 70
83 82 82 81 81 80 81 79 77 79 77 78 78 76 76 76 74 72 70 72 68 68 68 67 68 73 67 67 68 66 65 65 64 62 63 66 66 68 68 67 70 76 71
83 82 82 81 81 81 80 81 79 80 79 78 78 77 76 75 73 73 71 68 68 69 68 69 68 70 65 67 68 68 65 67 64 62 62 65 67 66 65 65 64 66 70
84 83 81 82 82 82 82 81 80 80 78 78 78 77 77 75 74 73 70 68 68 69 69 69 71 70 68 67 68 67 67 64 63 61 60 61 63 68 65 63 64 63 64
84 83 82 83 83 82 81 81 81 80 79 77 75 76 75 74 75 69 71 70 68 68 69 71 73 72 71 68 67 66 66 64 62 60 59 59 63 61 63 62 61 62 63
84 83 83 83 82 81 81 80 79 79 77 77 75 75 73 76 70 69 72 71 69 68 69 72 71 72 72 69 69 69 69 65 62 59 59 59 62 60 60 60 59 58 57
85 84 83 83 81 81 80 79 78 79 79 77 77 75 73 74 66 66 69 70 71 71 71 72 72 75 70 69 67 67 65 65 65 62 60 61 59 60 61 59 58 57 56
84 83 83 82 81 81 80 79 80 79 79 76 75 73 73 70 65 64 67 68 67 68 71 70 68 68 68 69 66 65 64 64 63 62 61 65 61 63 62 61 59 57 56
82 82 83 82 81 81 79 80 80 77 76 74 73 71 69 68 63 62 65 68 69 69 69 69 67 67 65 61 66 64 65 64 66 62 63 63 61 61 61 58 57 53 52
85 83 84 84 82 80 81 79 75 76 72 72 70 70 67 68 62 61 62 69 68 64 65 68 65 67 59 59 64 63 61 62 61 61 61 61 60 61 61 59 65 54 52
87 80 83 83 81 81 77 75 73 72 73 70 69 70 71 69 66 59 58 69 68 65 64 64 64 59 59 57 57 62 62 58 59 57 58 59 59 60 61 66 63 56 54
81 80 79 80 80 76 74 72 71 72 71 70 70 69 69 67 63 57 57 58 63 65 64 64 63 57 54 56 57 58 55 58 56 54 54 55 56 58 63 61 59 58 58
79 77 77 77 75 73 72 71 70 70 70 69 70 67 66 68 64 57 55 55 57 61 63 59 54 53 55 56 56 56 57 55 54 53 54 55 57 61 57 58 59 58 57
76 74 74 73 72 72 71 71 71 70 70 70 68 66 66 65 63 59 58 57 57 58 58 56 57 57 56 57 56 54 53 54 54 54 55 55 55 56 55 54 53 53 51
73 71 71 71 68 59 54 57 66 57 63 66 67 67 65 65 64 60 59 59 58 57 57 56 54 53 53 53 54 56 58 58 55 57 56 53 53 54 53 53 52 51 49
70 70 70 68 66 64 62 57 47 47 47 47 51 61 55 55 51 50 51 52 51 52 57 56 55 55 55 56 56 55 56 59 58 58 54 53 52 51 51 52 51 49 48
70 69 69 69 68 67 65 61 56 52 47 45 46 51 53 48 47 46 45 47 51 54 58 58 58 56 57 55 56 55 55 57 56 53 51 51 51 51 52 50 50 50 50
72 63 70 70 68 67 66 64 61 60 57 55 47 47 44 44 44 45 46 53 57 56 56 56 56 57 56 56 55 54 53 53 52 51 51 50 50 50 50 50 50 48 49
74 73 73 72 70 68 70 69 66 65 61 55 49 48 44 43 44 46 47 56 56 56 57 56 62 56 55 55 54 53 52 52 52 51 51 49 51 49 49 50 49 51 50
68 69 70 73 68 68 69 70 68 67 60 57 55 52 49 49 51 52 54 55 55 57 57 58 56 56 55 54 53 53 52 51 51 50 50 49 49 49 50 50 49 49 50
67 66 66 66 67 69 70 69 69 68 63 61 61 58 52 58 57 56 55 55 57 58 59 57 56 56 55 54 53 53 52 51 50 50 50 49 49 49 49 49 50 51 50
70 71 69 71 68 66 67 69 66 69 65 64 64 56 48 56 58 59 58 58 59 60 62 58 57 57 56 54 52 52 52 51 49 49 49 49 49 49 49 50 50 50 49
69 70 66 67 68 66 64 65 64 66 63 63 62 59 56 59 59 60 59 64 63 63 61 60 61 61 55 54 53 53 52 49 48 48 48 48 48 48 48 49 49 48 48
66 67 65 65 62 61 61 60 59 59 62 64 62 61 62 59 60 63 63 63 61 62 62 59 61 60 56 55 51 48 49 48 47 48 48 47 47 47 47 48 48 49 50
65 64 61 63 63 61 61 61 60 62 63 65 63 61 62 61 62 60 59 58 58 60 61 60 58 60 58 52 49 48 42 42 46 44 45 46 46 47 48 48 49 49 50
68 66 66 63 65 65 64 62 64 64 61 63 64 65 62 61 60 59 58 58 57 57 57 57 58 58 56 52 50 43 36 39 42 40 43 43 44 45 47 49 50 49 49

GFSGL_sfc_temp_018.txt.gz
Temp
80 81 80 79 80 78 77 76 77 76 76 76 75 75 74 72 71 69 67 67 66 66 66 66 66 65 65 64 64 64 62 65 62 62 62 65 66 66 68 67 69 68 68
81 80 80 79 79 79 79 77 76 77 76 76 76 75 74 74 72 71 68 70 67 65 66 65 66 69 64 66 64 64 64 64 63 61 61 63 64 66 67 67 68 71 67
82 80 80 79 78 78 79 80 76 77 75 76 75 75 74 74 72 72 70 69 68 67 67 66 66 65 67 67 66 63 64 65 63 61 61 61 62 63 64 63 63 64 68
82 81 79 79 79 79 79 79 79 78 75 75 75 75 75 74 73 72 71 69 69 68 68 68 67 68 69 68 67 64 64 64 62 62 61 59 60 62 62 61 61 61 62
81 80 80 80 80 80 79 78 79 78 78 75 74 74 74 74 74 72 71 70 69 68 67 67 68 71 71 69 67 65 63 64 62 61 59 58 60 59 60 60 59 59 59
81 80 81 80 79 79 78 78 77 77 74 73 73 74 72 75 70 68 72 69 69 68 67 65 67 71 70 68 67 68 68 64 61 60 60 59 61 59 58 58 57 56 55
81 81 80 80 78 78 78 77 76 76 76 73 73 73 72 73 66 66 68 67 68 68 67 66 68 73 68 69 66 66 63 63 65 65 63 60 59 60 58 58 57 56 55
81 81 80 79 78 78 78 77 76 77 76 74 73 73 73 72 65 64 67 69 68 69 69 67 67 68 66 65 65 63 63 64 65 64 62 63 61 62 60 60 59 57 55
81 80 80 80 78 78 77 76 78 77 76 75 75 73 72 71 62 61 65 67 67 68 68 68 67 66 62 61 65 63 64 64 63 61 61 61 60 59 60 58 56 53 52
83 82 82 81 79 78 78 78 79 77 76 75 73 73 69 67 59 60 63 68 67 67 66 66 63 66 60 58 64 63 62 65 62 62 60 61 60 60 60 59 57 53 52
85 84 81 81 80 80 78 77 75 75 74 72 69 68 69 68 64 58 58 68 67 64 64 65 66 58 55 55 58 62 62 60 59 58 56 56 57 57 58 58 56 56 53
84 81 79 80 80 78 76 75 74 73 71 68 67 67 67 67 61 57 57 59 63 67 65 64 62 55 53 54 57 57 56 57 57 57 54 53 53 55 57 57 57 56 56
80 79 79 80 79 75 74 72 71 71 69 67 67 66 66 66 63 57 55 55 57 63 63 60 55 52 52 55 56 56 54 54 52 51 51 51 53 55 54 55 55 55 54
79 76 76 75 74 74 72 72 71 69 68 67 66 66 65 64 62 60 57 56 56 59 58 56 56 55 55 56 55 54 53 52 52 52 51 52 52 52 52 52 51 51 49
74 74 73 71 69 63 57 64 68 63 68 68 66 66 64 63 62 58 57 59 58 56 55 55 55 56 56 52 52 52 51 51 53 52 53 52 51 51 51 50 49 48 46
71 69 67 64 63 62 60 56 49 49 49 52 54 61 58 55 50 48 46 46 48 50 55 53 53 52 53 52 52 52 53 55 52 53 51 49 50 49 49 49 47 46 45
69 66 65 64 64 63 61 60 56 51 46 46 49 51 54 52 48 46 45 45 47 51 55 55 54 54 54 53 53 53 53 53 53 51 50 49 49 49 48 48 47 46 47
67 59 66 65 65 65 64 62 60 60 59 53 48 46 45 46 45 44 46 50 52 53 54 54 54 53 53 53 52 51 49 50 49 50 49 49 47 47 48 47 46 45 45
67 66 67 67 66 65 63 61 60 59 59 53 50 48 44 42 43 44 48 56 55 54 53 53 53 52 52 51 51 50 50 49 49 48 48 48 47 46 46 46 46 48 47
66 64 67 66 64 64 64 63 61 60 57 55 55 52 48 51 52 52 53 54 54 54 54 53 53 52 52 51 51 50 50 50 48 47 47 46 47 46 46 46 46 45 46
63 65 65 66 66 65 65 63 64 62 60 58 59 55 49 56 55 54 53 53 54 55 53 55 53 53 52 51 50 50 50 49 47 46 46 46 46 47 45 45 46 46 46
64 63 63 66 65 65 65 63 62 62 64 62 57 51 46 53 53 54 54 54 55 55 55 55 54 54 52 52 50 50 50 49 47 46 46 46 45 46 45 45 46 46 46
65 64 61 60 61 60 60 61 64 62 59 58 57 54 52 54 54 55 55 56 56 55 56 57 59 55 53 51 51 51 50 48 47 46 46 46 45 44 44 44 44 45 45
63 63 62 60 60 60 60 58 59 58 61 59 59 56 55 59 60 60 58 59 59 57 56 59 59 58 52 52 53 49 48 47 46 47 47 46 45 43 44 44 44 45 45
63 64 61 60 60 58 59 59 60 61 61 61 59 58 59 59 58 58 57 57 58 56 56 57 58 57 54 52 53 50 43 41 45 43 44 45 45 44 44 43 44 45 46
62 61 60 60 59 60 58 58 60 61 60 60 59 57 59 59 59 58 56 56 55 55 55 55 54 54 53 52 51 45 37 38 43 40 42 42 42 43 43 44 44 46 45

GFSGL_sfc_temp_021.txt.gz
Temp
79 79 79 78 78 77 76 75 74 74 74 74 74 74 72 70 69 69 66 66 65 64 65 63 63 63 62 63 62 61 61 61 60 62 61 63 65 65 66 65 67 66 65
81 80 79 79 78 77 77 77 75 75 74 75 74 73 72 72 70 70 67 69 67 64 64 64 64 67 63 62 62 63 65 60 61 60 60 61 63 64 64 64 67 69 66
81 80 79 79 77 77 77 78 75 76 74 75 74 73 72 72 70 70 70 68 68 67 66 65 64 64 62 64 63 63 64 63 61 60 60 60 61 61 62 62 63 63 67
81 80 79 78 78 78 79 78 78 76 73 74 74 74 74 73 72 71 70 68 68 68 67 66 65 65 64 68 67 66 63 63 60 60 59 60 60 62 61 60 61 60 61
80 79 79 79 79 78 77 78 78 76 76 74 73 73 73 73 74 71 69 68 67 67 67 66 65 67 69 69 65 63 64 61 61 60 59 60 61 60 60 60 59 60 59
80 79 80 79 79 78 77 76 76 75 75 73 72 72 71 74 69 68 72 69 68 67 65 66 67 67 68 67 67 67 66 63 61 59 60 60 62 60 60 59 57 55 55
80 80 79 78 77 77 77 76 75 75 74 71 72 72 71 72 67 66 69 69 67 66 68 67 68 69 67 68 65 65 65 65 64 62 61 61 61 62 60 58 56 56 55
79 79 79 78 77 77 76 76 75 75 73 72 71 72 72 72 65 63 67 69 68 68 68 67 67 67 66 65 65 64 63 63 64 63 63 64 63 63 60 59 58 56 56
78 79 79 79 78 77 76 75 76 76 74 73 72 72 72 71 62 61 63 69 67 67 67 69 67 65 63 62 65 64 62 62 62 61 62 61 59 59 59 57 56 54 52
79 80 80 80 78 77 77 76 77 76 75 74 73 73 69 71 60 59 64 67 66 67 66 66 63 65 60 59 65 63 61 63 61 61 60 59 59 59 60 58 56 53 51
82 82 81 80 79 78 78 76 75 75 75 74 74 73 71 67 62 57 60 67 67 65 64 62 63 59 56 55 58 63 63 60 60 59 57 55 54 55 55 54 54 54 51
83 81 80 80 79 78 76 75 75 74 74 73 71 70 69 66 59 57 59 60 62 63 62 64 64 57 52 52 55 56 54 57 55 54 52 52 52 53 55 54 54 54 54
81 81 79 79 79 76 74 74 74 74 73 71 70 69 67 67 65 56 55 56 58 63 66 62 55 52 50 53 54 54 54 54 53 52 51 51 52 53 52 53 54 53 52
79 80 79 77 77 75 75 75 75 73 71 69 69 67 66 65 62 61 58 56 56 60 57 56 56 55 55 55 55 54 53 52 52 50 50 51 51 50 51 50 50 49 47
78 75 75 75 74 72 62 68 73 69 68 69 68 67 66 64 63 59 58 60 60 58 56 56 55 54 54 53 52 52 51 51 51 50 51 51 50 49 49 48 47 46 45
71 72 72 72 65 62 61 58 54 53 55 55 55 59 62 56 50 49 47 48 47 50 55 55 54 53 54 53 51 51 51 53 50 50 51 50 49 48 47 47 45 44 44
72 68 66 64 65 66 66 65 62 59 51 46 50 49 51 49 47 45 44 45 46 52 55 53 53 52 52 52 52 51 52 52 52 51 49 48 48 47 47 46 45 44 45
65 59 66 66 66 65 64 63 63 61 62 57 45 49 45 45 44 43 43 47 53 53 54 54 54 53 53 52 51 51 49 47 48 48 48 47 46 47 46 45 44 43 42
67 66 65 65 63 61 62 63 63 63 61 55 51 47 44 42 43 44 46 58 56 54 53 53 53 51 50 50 50 49 49 49 48 47 47 46 45 45 44 45 44 46 45
61 60 62 64 62 61 62 63 62 61 59 58 59 54 48 52 54 54 53 54 54 53 53 53 51 51 51 50 49 49 49 48 47 46 45 45 45 44 45 44 44 43 43
65 65 63 64 63 62 62 62 62 60 58 59 58 53 51 61 59 57 54 53 54 54 53 52 51 51 51 50 49 48 48 47 46 46 45 44 44 44 43 43 44 44 43
64 65 65 64 63 63 62 61 59 59 60 60 52 47 46 53 55 54 53 53 54 54 54 54 54 54 53 52 50 49 49 48 46 45 44 44 44 44 43 43 44 43 43
62 62 62 63 63 60 62 62 60 60 58 54 53 51 52 52 54 54 54 53 53 54 53 53 52 52 53 55 52 51 49 48 48 45 44 44 44 43 43 43 43 43 43
62 62 60 58 59 60 60 59 59 54 57 56 55 53 54 54 54 55 54 55 54 54 54 54 54 58 56 54 50 49 49 48 46 46 46 44 43 42 42 42 43 43 43
60 60 58 57 58 58 57 57 57 59 59 59 58 56 53 58 55 55 55 55 55 54 53 53 54 58 55 54 50 50 45 40 45 42 43 44 44 43 42 42 43 43 44
61 61 60 59 59 59 58 59 58 58 58 58 59 57 56 55 55 56 55 55 54 53 53 53 53 54 53 51 51 46 36 39 42 39 42 42 41 40 41 42 43 44 43

GFSGL_sfc_temp_024.txt.gz
Temp
77 77 77 77 77 77 76 75 75 75 74 75 75 74 73 72 71 70 69 69 69 68 68 67 67 67 68 69 68 68 67 67 68 69 68 70 71 72 73 73 74 73 74
78 77 77 77 77 76 76 76 75 74 75 75 75 74 74 72 72 71 70 71 69 68 69 67 68 69 67 67 67 67 67 67 68 67 67 69 69 70 71 71 73 76 74
79 78 78 77 76 76 76 77 75 75 74 75 75 74 73 73 71 72 72 71 70 70 70 69 68 67 67 67 68 67 68 68 66 67 69 68 69 69 70 69 70 70 73
81 78 77 77 77 77 76 77 76 75 74 75 74 74 74 74 73 72 72 71 71 71 70 69 69 68 67 67 68 68 68 66 66 64 65 66 68 67 68 66 67 69 69
79 79 78 77 78 77 76 76 77 75 75 75 75 74 74 74 75 72 71 71 70 70 69 69 69 69 68 68 70 68 67 67 65 64 63 65 66 64 63 63 63 64 65
78 78 78 77 77 76 76 76 76 75 75 74 74 74 74 76 70 68 72 71 70 69 67 69 70 68 67 66 67 67 68 67 65 64 63 63 65 65 65 61 61 60 62
78 78 77 77 76 76 76 75 75 74 74 73 74 74 73 74 66 66 68 71 70 69 69 68 67 70 68 69 65 66 65 65 66 66 65 62 64 66 64 61 59 62 63
77 77 77 76 76 76 76 75 75 76 74 73 73 73 73 73 64 64 67 72 70 70 69 69 69 69 68 68 68 68 67 68 66 65 67 67 66 67 65 64 65 63 64
77 76 77 77 76 76 75 75 76 75 75 73 74 73 72 73 62 61 65 71 69 69 69 69 69 69 64 62 68 67 67 65 62 62 62 61 61 60 63 64 60 59 61
77 78 78 78 76 76 76 76 76 76 75 74 73 73 71 73 60 60 64 70 68 68 68 69 64 67 60 59 68 68 66 64 64 64 64 62 62 62 59 65 65 63 61
79 79 78 78 77 77 77 77 76 75 75 74 74 73 74 72 69 58 59 70 70 67 68 67 67 59 56 55 59 67 64 64 63 66 66 65 65 65 65 64 63 64 61
77 77 77 77 79 79 76 75 75 75 74 73 73 73 73 73 64 56 57 62 65 69 67 67 66 56 54 53 56 58 55 60 64 64 63 63 64 65 64 64 62 63 64
75 75 76 77 78 78 75 74 74 74 74 73 72 72 72 70 61 55 57 59 59 67 68 63 56 50 50 52 55 54 55 64 63 62 62 62 63 64 62 61 61 60 60
73 73 75 76 76 78 77 77 76 74 73 72 72 72 70 66 64 63 64 61 58 62 58 59 57 57 56 58 57 56 62 63 62 63 62 62 62 61 62 61 62 61 60
70 72 73 75 74 74 65 69 74 75 73 74 72 70 67 66 65 60 60 61 62 59 58 60 60 60 59 58 59 58 60 60 60 60 60 60 61 61 60 59 59 58 59
69 69 70 72 73 63 62 58 49 54 54 52 54 63 63 56 51 50 51 49 48 50 62 62 61 61 61 60 59 58 58 58 60 60 61 61 61 60 59 58 57 58 57
70 70 69 68 65 64 66 65 61 55 52 52 53 54 55 56 50 47 46 45 47 53 62 62 62 61 61 60 60 59 60 60 59 60 61 60 59 58 57 58 57 57 57
71 60 68 67 67 68 66 65 64 62 60 58 52 53 51 49 46 46 46 47 57 58 62 61 60 61 61 61 60 61 61 59 60 60 59 58 58 58 57 57 56 56 56
64 66 67 67 67 63 63 62 62 62 61 59 54 49 47 44 43 44 49 62 61 61 61 61 61 62 61 61 60 60 60 60 59 58 58 58 57 58 57 57 57 50 52
63 60 61 64 63 63 63 62 61 61 58 57 60 55 50 53 55 57 59 60 62 62 61 62 61 61 60 60 60 59 58 58 58 58 58 57 57 58 59 58 58 58 57
64 64 61 62 61 62 62 62 62 61 60 60 61 57 52 64 60 60 60 60 62 61 60 61 60 60 60 59 59 59 61 61 59 59 58 57 56 56 57 58 58 58 57
65 65 63 62 62 62 62 62 62 61 60 59 57 53 47 63 62 61 60 61 62 63 64 62 61 62 62 61 60 61 61 60 59 58 57 56 56 57 57 57 57 58 58
64 65 64 64 63 59 61 61 60 60 59 57 56 55 57 59 62 62 61 62 62 61 62 62 62 62 62 62 63 62 62 60 60 58 57 55 56 57 57 57 57 57 58
63 62 62 62 61 62 62 61 59 54 58 56 56 57 59 60 60 60 62 60 61 62 62 62 62 64 61 62 60 58 62 62 60 59 58 57 57 52 56 56 57 56 58
62 62 61 61 62 60 60 60 59 59 58 58 58 56 56 56 57 60 61 60 61 62 62 62 63 64 63 61 58 61 52 42 56 49 57 57 56 54 55 56 56 57 57
62 63 61 62 60 61 59 58 58 59 58 59 59 59 58 58 57 57 60 61 62 63 63 62 62 64 64 62 61 51 37 38 47 42 56 56 55 55 55 55 55 57 57

GFSGL_sfc_temp_027.txt.gz
Temp
83 83 82 83 83 83 83 83 83 84 84 84 83 84 83 83 81 80 81 81 78 78 78 77 77 78 81 81 81 81 80 80 78 82 83 82 78 80 83 84 84 83 85
84 82 82 83 83 83 82 83 83 83 84 84 84 83 83 83 82 80 80 81 78 78 79 77 77 79 76 77 80 77 79 79 79 74 80 80 77 79 80 79 82 86 84
85 84 83 83 82 82 82 83 83 83 83 84 84 83 83 83 81 81 81 80 79 80 80 78 78 77 75 78 77 78 80 78 77 78 78 81 81 81 79 78 78 79 81
87 86 83 83 83 83 82 82 83 83 82 83 83 83 83 83 83 82 81 81 80 80 80 79 79 78 76 73 75 75 77 78 77 76 78 78 78 79 78 78 78 79 78
85 85 83 83 83 83 82 82 83 83 82 83 83 83 83 84 85 81 81 81 80 79 80 79 79 78 73 73 79 77 76 75 78 77 76 76 77 73 68 76 77 76 75
83 83 83 83 82 81 81 81 81 82 81 82 82 82 82 85 75 70 78 81 80 79 79 79 79 73 71 67 68 70 75 75 75 77 77 75 74 67 71 76 76 74 73
83 83 83 82 81 81 81 81 80 81 81 81 81 82 81 82 68 67 70 83 80 80 79 80 79 80 72 75 66 66 67 67 71 76 74 74 71 69 73 71 72 72 72
82 83 82 80 80 81 81 80 80 81 80 81 81 81 81 82 66 65 68 81 81 81 80 80 78 78 75 74 77 74 74 73 74 77 77 77 72 76 74 75 72 72 74
82 82 82 81 81 81 80 79 81 81 81 81 82 81 80 81 63 63 67 79 81 79 80 80 78 77 69 64 75 74 72 74 67 64 65 63 63 63 70 76 72 70 72
83 83 82 83 81 81 81 80 81 82 81 84 82 81 76 81 61 61 67 84 80 81 79 77 65 73 61 60 74 75 74 76 75 73 70 64 65 67 61 72 77 73 73
87 86 84 83 82 81 79 81 81 81 82 81 81 81 80 78 78 59 59 81 83 80 78 75 79 60 56 56 61 77 75 77 70 74 73 73 74 74 75 74 74 75 74
85 84 83 82 84 84 80 79 81 78 78 79 79 78 80 81 66 57 57 65 69 78 73 77 76 57 54 54 60 61 56 65 77 76 75 73 73 75 76 75 73 74 76
83 82 82 83 83 83 81 80 77 75 75 76 74 75 75 74 75 58 55 57 61 73 75 68 59 53 53 55 55 55 57 76 76 74 74 73 75 78 74 71 70 70 69
82 81 82 81 81 82 84 83 81 76 75 74 73 72 73 73 71 63 62 63 61 64 61 60 59 59 60 64 59 60 75 77 75 75 74 74 75 73 73 74 73 73 71
81 82 82 83 80 82 83 83 81 80 80 79 81 75 73 67 64 58 61 64 64 61 60 62 62 63 64 65 69 68 73 72 72 73 73 72 73 73 72 72 72 71 69
79 82 83 85 85 84 77 70 54 54 55 54 56 70 69 57 50 51 51 51 52 54 62 63 64 66 67 69 67 68 72 69 72 71 73 73 72 72 71 70 70 69 68
73 76 81 75 84 78 68 70 66 56 48 50 51 52 53 53 50 50 51 50 51 54 63 63 64 67 69 69 70 71 72 71 69 72 72 72 72 72 67 69 69 68 67
72 58 68 72 77 69 69 67 63 63 61 58 50 54 49 49 48 48 50 53 55 59 66 65 66 67 68 68 70 73 72 71 71 72 71 72 72 70 69 68 68 67 67
72 70 68 67 63 64 67 66 65 63 61 60 54 49 46 44 45 47 47 63 61 63 68 68 69 69 69 71 72 72 72 72 72 72 72 71 71 70 69 69 69 57 58
71 60 64 70 65 62 62 62 62 62 61 58 58 56 53 54 57 57 63 63 63 64 65 68 71 73 72 72 72 71 71 69 70 70 71 71 70 70 70 69 69 68 66
73 73 62 70 69 66 63 62 63 61 60 61 60 57 52 63 60 61 63 63 64 68 71 73 72 72 69 71 71 71 72 72 71 72 71 70 69 69 69 70 70 69 68
73 72 70 69 70 66 64 63 63 62 63 61 57 54 47 66 64 65 67 72 72 72 74 72 73 73 74 72 70 73 72 73 72 72 71 71 70 69 69 69 69 68 68
68 68 68 67 69 62 65 63 63 62 60 59 59 59 63 65 67 68 71 74 73 71 72 74 74 74 74 73 74 75 75 74 74 73 71 70 69 69 69 68 68 67 67
73 70 67 66 66 65 65 62 62 57 60 60 61 63 67 68 68 66 71 74 74 74 74 74 75 76 74 74 75 77 78 77 75 73 72 70 69 64 69 68 68 67 67
72 65 65 70 69 67 66 62 61 60 59 59 59 58 59 63 69 72 74 74 74 74 72 74 75 75 74 74 74 74 59 47 68 60 70 69 68 66 68 68 67 67 66
70 67 64 65 63 64 65 65 64 59 59 59 58 57 58 59 62 65 69 72 72 72 74 75 75 75 74 74 72 56 38 40 56 46 69 69 68 67 67 66 65 66 66

GFSGL_sfc_temp_030.txt.gz
Temp
90 89 88 89 89 88 89 89 89 90 91 89 90 89 89 89 88 86 87 89 84 84 85 85 82 85 89 90 89 89 88 87 83 88 90 88 84 84 87 87 89 88 88
91 89 89 89 89 90 88 89 89 88 90 90 90 88 89 89 89 86 86 89 85 84 84 83 83 86 82 84 88 84 86 86 85 79 86 86 81 83 84 83 86 91 90
92 91 90 90 89 89 88 88 89 88 88 90 90 88 88 89 88 87 87 87 87 86 86 84 83 83 81 86 83 86 86 84 84 84 84 87 87 86 83 82 83 84 88
96 93 90 90 90 90 89 88 89 88 88 88 89 89 89 89 89 89 88 87 87 87 86 86 85 84 82 81 82 81 83 84 83 83 84 85 85 85 84 83 82 84 85
95 94 92 90 90 89 88 88 88 88 88 88 88 89 90 91 92 89 89 88 87 86 87 86 86 83 77 79 84 81 82 81 85 84 83 84 83 83 80 83 80 78 85
93 92 92 89 88 88 87 87 87 87 87 87 88 88 88 92 80 74 84 89 88 86 85 86 86 77 76 70 70 71 78 80 79 84 84 82 80 82 83 81 80 81 78
91 91 90 89 87 86 87 86 86 85 87 86 87 88 87 88 73 70 73 90 88 87 86 86 86 89 78 83 69 67 68 68 72 80 78 81 80 79 78 77 77 78 77
89 89 89 88 87 87 86 85 85 86 86 86 86 86 87 89 70 67 71 86 89 88 87 86 86 87 84 81 82 77 79 80 78 82 80 81 81 81 79 78 77 76 78
89 88 88 89 87 87 85 85 86 86 86 86 87 86 86 87 66 64 70 85 87 87 88 88 87 85 75 67 81 79 78 79 70 66 66 66 67 66 72 81 77 73 73
90 89 90 89 87 86 86 85 86 87 86 89 87 87 81 86 65 61 70 88 86 88 86 86 70 81 65 62 77 79 76 78 77 73 72 70 67 70 63 76 81 77 79
92 92 90 89 87 87 86 86 86 86 87 85 85 86 86 85 84 59 60 85 91 89 91 88 88 64 58 58 64 74 74 78 73 78 77 80 79 78 78 78 79 80 79
92 91 90 88 89 90 86 86 85 85 83 83 81 84 89 87 70 60 59 64 77 90 89 92 86 59 55 55 61 63 59 63 76 80 79 77 78 79 81 80 78 79 82
89 88 89 88 88 89 86 85 86 85 86 84 86 87 89 89 87 63 58 59 63 78 93 80 63 54 54 56 58 58 59 77 80 80 77 77 81 83 81 77 76 75 75
86 86 87 87 86 87 90 89 88 88 87 88 89 89 89 87 87 85 74 68 62 68 63 65 61 60 60 61 60 62 71 80 79 79 78 78 81 81 78 79 77 77 76
87 88 88 89 86 87 88 91 90 90 89 88 89 90 88 84 84 73 65 67 68 65 61 63 63 63 63 63 66 67 71 78 77 78 77 78 79 78 78 79 78 77 74
86 89 91 93 93 90 90 88 53 56 53 52 53 70 91 70 53 50 50 51 51 54 63 64 65 64 63 64 66 66 72 72 77 78 78 78 77 76 76 77 77 76 74
81 82 88 82 90 92 92 90 89 70 49 48 47 52 53 53 50 49 48 49 51 57 68 66 64 64 63 64 65 67 72 74 74 77 77 78 77 77 75 76 75 74 74
78 58 84 84 85 86 84 84 84 77 75 76 56 50 47 48 49 49 48 52 57 63 69 66 67 66 68 66 66 70 74 75 75 76 77 78 77 76 75 75 75 74 73
81 82 82 81 76 69 67 64 65 65 63 62 58 54 50 47 47 46 50 67 63 67 68 69 70 69 69 72 74 76 76 75 75 76 76 77 77 77 76 76 76 61 64
78 63 68 81 80 79 77 68 64 63 62 61 61 58 56 55 55 56 63 67 66 68 69 72 73 71 74 76 77 77 76 75 75 76 77 77 77 77 77 76 76 74 71
84 83 64 82 80 78 77 76 77 78 74 65 58 54 48 60 59 61 63 65 67 70 71 74 72 72 75 78 78 76 77 76 77 77 77 77 77 76 76 77 76 76 75
81 80 82 82 81 76 77 77 78 79 75 68 63 59 47 61 61 62 65 66 70 71 74 75 75 76 77 78 77 77 77 77 77 78 78 78 77 76 76 76 76 76 75
81 77 75 77 77 69 76 75 71 70 68 65 63 62 61 62 63 65 65 66 68 68 70 74 77 78 79 80 79 80 80 80 80 79 78 77 77 76 76 75 75 74 74
82 81 78 75 74 74 70 65 64 58 63 62 63 64 64 64 62 63 64 66 68 73 76 78 79 79 78 78 81 83 84 83 82 80 79 77 76 71 75 74 75 74 74
79 77 74 73 74 72 70 68 70 68 61 60 60 61 70 75 73 75 76 77 76 75 78 80 80 79 79 79 81 83 61 52 74 66 78 77 74 73 74 75 74 74 73
76 73 72 72 72 68 71 65 61 60 60 61 60 59 61 65 70 72 74 76 77 80 80 82 82 81 80 82 81 55 42 45 64 53 75 76 74 74 73 72 72 73 72

GFSGL_sfc_temp_033.txt.gz
Temp
91 90 90 90 90 89 90 91 90 92 93 91 91 91 90 90 90 88 88 90 87 86 87 87 84 85 90 92 91 91 89 88 84 88 92 88 86 85 86 87 88 88 87
93 90 90 91 90 91 89 90 91 90 91 91 91 90 90 90 90 88 87 90 88 85 85 86 85 87 83 85 90 86 87 88 86 81 86 87 83 84 84 84 86 91 90
94 94 92 91 91 90 90 90 90 90 90 93 90 90 89 90 89 89 88 88 90 88 87 86 85 85 83 85 84 87 87 86 86 83 84 88 88 86 83 83 83 84 88
99 97 92 92 91 92 91 90 90 90 89 89 90 90 90 90 90 90 89 88 88 90 88 88 87 85 83 82 84 82 84 86 83 84 84 85 87 87 85 82 82 83 83
98 98 94 92 92 91 90 90 90 90 90 90 89 90 90 91 93 89 89 88 87 88 89 88 88 85 79 80 85 82 81 82 85 85 83 83 85 84 79 83 81 83 83
97 97 95 92 90 90 90 89 89 89 89 89 89 89 89 93 81 75 85 89 88 87 86 88 88 79 77 72 72 72 80 81 80 84 84 82 81 84 84 83 82 79 76
95 95 94 92 90 89 90 89 87 87 88 87 88 89 88 89 74 72 74 91 89 88 87 87 89 92 80 84 71 71 69 70 74 81 78 80 81 83 83 77 78 77 77
93 93 93 92 91 90 89 88 87 88 87 87 87 88 88 90 72 68 71 87 88 88 88 87 87 87 86 84 83 80 80 80 78 81 81 83 83 84 81 80 78 77 77
93 91 92 92 90 89 87 87 88 88 87 87 89 87 87 87 69 66 69 87 87 86 88 89 88 87 78 70 83 81 79 79 72 68 67 69 70 69 75 81 78 74 72
93 93 92 92 90 89 88 87 88 88 88 90 89 88 82 87 71 64 69 90 87 88 86 87 72 84 69 65 81 80 77 78 80 74 70 68 69 69 66 78 81 75 74
96 95 92 91 89 89 88 88 87 87 88 86 87 88 87 85 86 62 62 86 90 89 90 89 91 67 63 60 68 80 78 81 75 77 72 72 74 77 79 78 79 79 77
96 93 91 90 92 93 87 87 88 87 85 85 85 87 91 88 73 65 60 67 78 89 89 92 90 63 60 57 63 67 61 68 78 72 71 74 76 78 80 80 78 79 81
93 91 91 91 90 90 88 86 87 86 88 86 89 88 90 94 90 64 58 59 64 81 92 84 74 58 57 58 62 59 60 72 75 71 73 76 80 82 80 78 78 77 76
90 90 90 90 89 89 92 91 90 90 89 88 91 90 92 92 94 94 81 71 61 70 68 76 66 66 66 69 63 63 70 71 74 73 70 73 77 80 75 78 77 73 73
89 89 89 91 89 90 90 93 93 91 90 93 92 93 93 92 94 83 84 89 82 76 75 71 68 68 65 65 65 65 67 69 70 69 68 68 71 75 78 79 76 74 73
89 91 93 95 94 91 92 89 61 62 58 51 48 62 85 62 56 53 53 53 55 54 70 68 66 67 65 65 66 66 67 67 70 69 67 68 69 72 77 75 74 75 75
86 85 93 87 96 96 94 93 92 76 52 52 48 49 47 50 50 48 48 51 51 56 72 68 67 66 66 66 67 66 66 69 69 69 68 67 71 77 74 74 75 75 75
81 60 90 90 91 91 90 90 89 88 88 85 56 52 46 44 44 45 47 51 57 62 71 68 66 66 66 66 67 67 69 70 69 67 67 69 76 77 74 75 76 75 74
86 87 87 85 82 78 81 79 78 75 70 67 68 59 54 46 45 43 44 69 63 65 69 67 68 67 67 68 68 67 71 71 74 70 73 75 77 77 74 76 77 63 68
80 67 72 85 84 84 84 83 81 79 77 75 74 73 70 63 66 64 56 58 63 66 68 68 68 68 68 69 72 71 73 70 72 73 77 77 77 77 77 77 77 75 73
87 86 67 85 82 82 82 82 81 81 76 77 74 66 45 68 72 71 67 63 63 64 65 67 67 67 68 71 72 73 76 76 77 78 78 77 77 77 78 79 78 78 76
87 87 87 86 85 81 82 81 81 78 75 74 77 70 49 69 70 68 68 65 67 66 67 66 67 68 69 73 73 74 76 78 79 78 77 77 76 77 78 78 78 77 77
85 83 81 80 81 74 80 79 73 70 71 68 69 71 67 71 71 69 68 67 67 67 67 68 68 69 71 74 76 76 79 78 78 79 78 77 78 77 77 76 76 76 76
77 76 79 80 79 80 79 77 70 59 65 65 67 66 67 65 64 64 64 64 65 67 69 70 69 68 72 71 76 80 79 78 78 79 80 78 78 72 77 76 76 76 76
80 79 74 72 75 69 69 69 69 66 62 61 61 61 67 70 73 67 73 67 64 65 65 66 69 75 76 75 78 81 67 52 77 67 80 78 77 76 75 76 76 76 75
78 77 76 76 74 72 65 62 59 57 56 57 57 57 60 61 65 73 79 81 79 78 79 81 80 79 78 79 80 54 43 48 63 55 77 78 76 75 75 74 75 75 75

GFSGL_sfc_temp_036.txt.gz
Temp
85 85 85 85 84 85 85 85 86 86 87 86 85 84 84 84 84 83 82 83 82 81 81 79 78 78 79 80 80 79 78 77 73 75 79 78 78 77 77 79 77 76 74
87 85 85 85 85 85 84 86 86 86 86 87 86 85 85 84 84 83 82 84 83 81 81 80 79 82 77 78 79 77 77 78 76 73 76 76 76 77 77 76 79 85 78
89 87 86 86 85 85 85 85 86 85 86 87 87 85 84 84 84 84 83 83 82 83 82 80 80 79 77 78 77 77 78 78 78 74 73 76 76 77 75 76 76 76 81
92 90 86 86 86 86 86 85 85 86 85 86 86 85 86 85 85 85 84 83 83 84 83 82 81 80 78 77 77 75 77 76 75 74 73 73 75 75 76 74 72 74 74
92 90 88 87 87 87 86 86 86 85 86 85 85 86 86 87 88 84 84 84 83 82 84 84 83 82 77 77 79 77 75 75 75 75 73 73 73 74 73 73 71 73 73
91 91 89 87 86 86 86 85 85 85 85 85 85 85 85 89 79 75 82 85 84 82 82 83 84 78 76 73 73 74 77 74 73 75 74 73 72 75 75 73 72 70 69
91 91 89 87 86 85 86 85 84 84 85 84 84 85 84 85 73 72 73 86 84 83 82 82 84 87 78 79 71 71 70 71 74 76 74 75 75 76 75 73 73 71 70
89 89 89 88 87 86 85 85 84 85 84 84 84 84 84 85 72 69 71 84 84 84 84 83 82 83 82 81 78 76 77 75 74 77 78 77 76 77 77 75 73 73 73
90 89 89 89 87 86 85 84 85 85 84 85 85 84 83 84 69 67 69 82 84 83 84 84 83 82 77 69 80 76 75 76 71 68 69 71 70 70 74 74 71 70 68
90 90 89 89 87 87 86 85 85 86 85 87 85 85 80 84 71 64 67 84 83 84 83 83 72 81 71 64 78 78 75 75 76 75 72 67 66 67 67 73 74 69 68
92 91 89 88 87 87 86 86 85 85 85 84 84 85 85 83 83 63 61 83 85 84 84 84 85 67 64 60 67 80 77 78 73 76 73 71 69 69 68 69 74 73 71
91 89 88 87 89 91 85 85 85 84 82 82 82 83 86 85 71 67 59 62 76 83 84 86 85 65 60 58 62 70 64 68 78 75 70 68 67 68 69 69 69 73 74
91 88 87 87 87 86 85 84 85 83 84 83 83 84 84 87 87 64 59 59 61 72 85 80 62 58 58 59 60 64 62 75 76 73 70 68 69 69 69 69 70 71 70
90 88 87 86 85 86 88 87 86 86 84 83 84 83 86 87 87 87 79 67 61 66 72 77 77 65 64 66 67 65 75 75 75 73 70 70 70 69 68 69 67 66 64
88 88 87 88 84 86 86 88 87 87 85 87 86 86 86 86 82 62 68 84 78 72 75 80 79 78 76 71 70 72 74 74 72 72 70 68 68 67 66 66 65 63 63
87 88 88 89 89 87 86 85 64 66 57 50 50 63 80 58 50 51 54 56 52 55 71 77 75 73 71 71 69 70 71 70 71 70 68 67 66 65 64 64 64 66 65
84 85 90 85 91 87 86 87 84 61 49 49 47 47 48 48 47 48 49 49 50 54 75 75 74 72 70 70 69 70 69 70 70 68 67 67 66 65 63 64 68 67 66
81 62 87 84 85 84 82 80 82 80 80 77 54 54 45 44 44 44 43 49 66 61 75 75 73 72 70 69 68 69 68 68 68 68 67 66 65 64 64 64 66 66 67
86 85 83 81 80 77 80 79 79 77 75 75 75 65 60 51 47 44 44 57 61 66 67 69 71 71 70 69 69 68 68 68 68 67 67 66 65 64 64 66 68 63 65
78 69 75 82 81 82 82 81 79 77 77 76 74 70 70 67 72 71 69 61 60 60 63 65 66 68 69 69 68 68 67 66 66 66 66 66 65 65 66 69 70 65 66
83 83 73 82 81 81 81 80 80 79 77 75 75 63 47 64 71 69 70 68 64 66 68 67 67 67 67 66 67 68 67 66 66 66 68 68 67 69 71 71 71 69 68
86 85 84 83 81 79 79 78 77 75 73 72 74 65 49 69 73 71 70 70 70 70 70 68 66 66 65 67 66 66 65 65 66 68 70 72 71 72 72 71 71 70 69
82 82 81 79 78 73 75 72 70 68 68 70 71 71 71 71 70 71 70 70 71 70 69 68 69 69 69 68 67 67 66 66 67 67 68 72 72 71 71 69 69 68 67
76 75 75 71 68 67 67 67 64 57 61 63 62 64 68 69 70 69 68 69 69 69 70 66 66 68 66 65 65 66 66 68 69 71 73 72 70 64 69 68 68 68 67
75 75 70 69 67 66 63 60 58 57 56 56 57 58 62 64 66 68 66 70 69 69 67 68 65 67 66 66 66 68 54 52 70 62 72 71 70 68 69 69 68 68 67
75 73 72 70 69 67 63 59 57 57 56 56 55 56 58 58 59 61 62 62 64 68 71 70 73 72 71 71 72 55 42 45 57 54 70 69 69 68 68 68 69 68 67

GFSGL_sfc_temp_039.txt.gz
Temp
80 81 81 80 80 81 80 80 77 79 79 77 79 80 80 80 79 79 76 76 75 75 75 73 72 72 72 71 71 72 71 70 68 69 71 72 71 72 72 72 74 71 71
82 81 81 81 80 81 81 77 82 77 81 78 80 80 80 80 80 77 77 79 75 74 74 73 73 76 71 71 71 71 72 71 70 68 69 71 71 71 72 71 74 78 72
82 82 81 81 81 80 81 82 78 82 80 82 79 80 80 80 79 80 79 79 77 77 77 75 75 74 73 75 70 70 70 72 70 68 68 68 70 70 69 70 71 72 75
84 82 81 81 81 82 81 81 82 81 82 80 82 79 81 81 81 81 80 79 79 79 77 78 78 75 76 75 73 70 71 69 68 67 67 68 68 69 71 70 67 68 70
84 83 82 83 83 83 82 82 81 82 82 83 82 82 81 82 83 81 81 81 80 79 79 79 79 79 76 76 77 73 72 69 67 67 65 66 68 66 70 68 70 69 68
87 84 85 83 83 82 82 82 81 81 82 82 81 83 82 84 76 73 80 81 81 80 78 79 80 76 75 71 71 73 76 75 74 71 74 70 73 73 68 72 71 65 65
88 86 85 84 82 82 83 82 81 81 82 81 82 81 82 83 71 70 72 83 82 81 81 80 80 83 75 78 70 70 71 70 75 77 74 74 73 76 73 71 68 65 66
87 86 86 84 82 83 83 82 83 83 82 82 81 82 82 83 70 68 70 82 83 82 82 81 81 81 81 78 78 74 75 75 74 76 78 79 75 72 77 73 69 69 67
86 85 85 84 83 83 82 83 83 84 83 83 83 82 81 82 67 66 67 80 82 82 83 82 82 81 76 67 78 75 75 76 72 67 70 71 68 68 72 71 66 65 64
86 85 84 85 84 83 83 84 84 84 84 84 83 83 78 82 68 63 66 81 81 82 83 83 71 78 69 64 77 78 74 75 77 76 70 66 67 69 68 74 67 65 63
87 80 81 83 84 84 84 84 84 83 83 83 82 83 83 81 81 61 61 79 82 82 82 82 83 66 61 60 63 81 78 78 75 76 75 75 70 67 68 69 68 68 65
79 80 81 80 83 81 80 81 82 82 81 81 81 81 83 83 68 63 59 61 74 80 81 84 83 65 60 59 60 67 64 66 78 75 75 71 68 67 67 68 69 68 68
79 79 79 79 81 80 79 78 80 81 81 80 80 79 80 82 82 62 59 59 61 72 83 79 70 61 58 59 60 62 61 73 77 75 74 73 70 69 69 68 69 68 67
78 77 76 78 76 77 78 81 81 80 79 79 77 77 79 80 78 82 77 66 60 64 70 75 72 69 68 69 66 62 70 76 77 77 77 74 69 67 67 67 66 66 63
77 78 77 77 76 76 79 76 80 81 79 79 78 79 76 77 74 60 62 71 70 67 69 74 76 76 74 75 71 72 69 71 73 74 73 72 68 67 66 67 66 65 63
75 77 76 77 75 76 76 73 52 54 54 52 50 66 62 53 48 47 47 48 49 50 63 70 72 74 75 75 74 72 69 69 72 73 72 70 68 67 66 66 65 64 63
72 75 76 74 76 78 77 78 67 56 47 47 49 48 48 47 46 45 45 46 49 54 66 70 70 72 74 75 74 73 70 70 72 72 71 68 68 67 65 65 64 63 62
73 63 71 72 71 73 72 71 71 66 66 63 50 51 46 44 44 43 46 50 59 58 63 65 68 70 71 72 72 72 71 71 71 72 71 69 68 66 64 64 63 62 61
74 69 69 67 69 69 68 67 69 67 65 65 61 53 52 48 43 45 48 57 57 59 61 60 62 63 64 66 68 70 70 70 70 71 70 68 67 65 63 63 62 58 59
69 67 68 69 67 68 68 67 66 65 64 62 59 58 58 58 60 61 60 58 57 57 60 62 64 65 65 65 65 66 68 68 69 69 69 69 65 64 63 62 61 60 61
70 70 70 69 68 68 67 67 66 66 63 62 59 56 48 59 60 61 62 61 61 61 62 63 63 63 64 65 65 65 66 66 68 68 67 64 63 62 62 62 62 63 64
71 70 70 70 68 67 66 66 65 64 63 62 60 59 46 57 62 61 61 62 63 64 64 64 65 64 64 64 64 64 64 65 65 65 64 64 63 63 62 62 63 63 64
71 70 68 67 66 62 62 61 61 62 62 61 60 61 62 62 62 62 62 63 63 63 64 64 63 64 66 65 64 63 62 63 63 64 64 64 63 62 64 66 65 64 64
68 66 64 62 61 61 59 58 57 53 57 57 58 58 58 59 61 60 60 60 62 64 64 63 63 63 63 65 65 65 65 65 64 65 66 65 63 61 64 64 66 65 64
68 66 64 61 59 57 57 57 56 56 55 54 54 54 56 57 58 56 57 57 56 55 54 54 56 63 63 62 63 65 55 50 62 56 65 64 64 64 63 61 60 60 60
61 66 65 62 59 58 57 56 56 55 53 53 51 50 50 50 51 52 53 53 52 51 49 49 51 49 48 51 49 47 40 43 55 52 63 64 64 63 61 62 62 61 60

GFSGL_sfc_temp_042.txt.gz
Temp
80 80 80 79 80 77 77 77 77 75 76 77 78 78 78 78 77 74 74 75 74 74 73 72 71 71 71 69 68 68 67 66 66 67 67 69 68 69 71 69 71 71 71
80 80 79 79 78 78 77 77 78 78 76 77 76 78 78 78 78 77 75 77 75 74 74 72 73 75 69 68 68 68 68 67 67 66 66 67 69 68 69 69 73 76 73
80 79 79 78 78 77 78 78 79 78 79 76 76 76 77 78 78 78 78 77 75 76 75 74 75 73 73 71 67 69 67 69 66 66 67 66 67 67 66 67 68 69 73
80 79 78 78 78 78 79 79 78 79 78 75 76 77 78 78 79 79 79 77 77 76 76 76 76 74 74 72 70 69 68 67 65 65 64 65 66 67 67 69 66 67 70
80 79 78 79 80 79 78 79 80 79 78 80 78 78 79 79 80 79 79 79 78 77 76 76 77 76 74 75 76 74 68 69 65 64 63 63 64 65 67 66 71 73 70
80 79 80 79 79 79 79 77 78 78 79 78 78 78 77 81 74 72 78 79 79 78 77 77 77 74 73 70 70 73 74 72 72 71 72 71 72 68 65 71 71 62 65
81 81 80 80 78 78 79 79 77 78 78 78 79 79 80 79 69 69 71 81 80 79 79 79 78 80 74 76 69 69 70 69 74 77 74 76 74 75 72 66 67 65 70
82 81 81 80 79 79 79 78 79 79 78 78 79 79 79 81 68 67 69 79 81 80 80 80 79 79 79 76 77 73 73 75 74 76 79 78 79 79 76 77 73 71 66
83 82 81 81 80 79 78 79 80 80 80 80 80 79 79 80 66 65 67 77 79 80 81 80 80 80 74 67 76 75 74 74 72 67 69 70 68 67 71 68 65 65 64
84 84 83 82 82 80 80 80 81 81 81 81 81 81 76 80 67 63 65 79 78 79 81 82 70 76 67 63 74 77 75 76 76 76 72 69 65 69 65 76 72 66 66
86 86 83 83 82 83 82 82 82 81 81 81 80 82 81 78 78 61 60 78 79 79 80 81 82 66 61 59 62 78 78 80 77 76 76 75 74 71 69 72 72 75 69
78 78 81 82 83 83 82 81 82 81 80 79 80 80 81 81 66 60 59 62 73 79 80 82 82 65 59 58 60 65 63 65 78 78 75 75 73 72 71 71 72 71 73
75 76 76 76 77 78 79 79 80 80 80 79 79 78 79 79 77 61 58 59 61 71 81 77 67 61 58 59 59 61 60 71 74 74 75 75 76 74 72 70 70 70 69
73 75 73 73 74 75 79 79 80 78 78 79 77 77 78 76 76 76 69 65 60 63 66 72 69 65 61 66 66 65 66 72 73 74 75 78 76 72 69 69 68 67 67
72 72 74 73 72 73 69 68 77 79 78 78 77 77 76 75 74 63 65 71 70 65 67 70 71 72 73 73 74 73 73 68 68 71 72 73 74 72 69 69 67 67 66
70 72 73 73 73 74 67 61 51 49 49 52 56 66 58 53 49 49 49 49 49 51 64 66 68 69 70 71 73 74 74 71 70 70 71 72 72 73 68 67 67 66 65
68 69 71 71 74 74 74 67 62 58 48 46 48 50 52 50 48 47 47 48 49 53 65 65 67 68 69 70 71 72 73 74 74 71 71 71 72 72 68 67 66 65 64
70 62 67 70 71 72 72 68 65 65 62 59 52 50 44 44 45 45 46 51 58 58 60 60 60 61 61 63 63 64 65 67 68 70 71 71 71 71 70 67 65 65 64
69 70 69 67 66 65 67 68 68 67 64 62 58 53 47 43 43 45 47 58 58 58 58 58 59 60 63 65 65 65 65 65 65 65 66 67 69 70 69 69 67 58 60
70 65 68 69 67 67 66 65 65 65 62 60 60 59 57 55 58 59 58 57 57 57 58 59 61 63 63 65 65 65 65 65 65 65 66 67 66 64 63 62 62 61 61
68 68 65 68 66 66 65 62 63 62 61 58 57 53 46 59 58 59 59 59 59 60 60 60 61 61 62 62 62 63 64 65 64 64 63 63 64 63 63 62 62 61 61
69 66 65 63 62 62 61 61 61 60 60 59 58 56 49 60 59 58 58 60 61 61 62 61 61 62 63 65 64 64 63 63 64 63 63 63 62 62 62 61 61 60 58
67 64 62 61 60 57 57 57 57 57 57 56 56 58 59 59 58 58 57 57 57 60 61 62 62 62 64 65 65 63 61 61 62 62 62 62 62 62 61 61 61 60 60
63 63 61 59 57 56 56 55 55 51 55 55 55 55 56 56 55 54 53 53 52 52 53 53 51 50 52 56 61 63 62 63 62 61 61 61 59 59 61 58 59 59 58
60 59 59 57 57 56 55 55 54 53 51 51 50 50 51 51 51 52 50 51 51 50 49 48 47 47 47 49 47 46 42 38 53 52 60 60 59 59 58 58 57 57 56
60 59 58 57 57 56 55 53 52 52 50 50 49 48 48 48 48 48 49 49 49 49 49 49 49 47 46 47 43 38 34 36 45 42 60 60 60 61 62 60 60 60 59

GFSGL_sfc_temp_048.txt.gz
Temp
76 76 76 76 76 76 74 74 74 74 74 74 75 75 76 76 76 75 75 76 75 75 75 74 73 73 75 73 72 72 71 71 70 73 72 74 74 73 75 76 76 75 76
77 76 76 76 76 76 75 74 74 73 74 75 75 75 76 76 76 75 75 77 75 75 75 75 75 75 73 73 73 71 71 70 71 69 72 73 72 74 74 73 75 77 76
78 77 77 76 76 75 75 75 75 75 74 75 75 75 75 76 76 76 76 76 76 77 77 76 76 75 75 74 73 73 72 72 70 69 73 72 73 74 72 71 72 73 76
79 78 76 76 76 76 76 76 75 75 74 74 75 75 76 76 77 77 76 76 76 77 77 77 77 76 76 76 75 74 74 72 70 70 71 71 72 74 72 73 73 72 74
77 77 76 76 76 76 76 76 76 75 75 76 75 76 76 77 79 76 77 76 76 76 76 77 78 77 74 75 78 76 74 73 74 72 72 73 71 71 71 76 71 76 74
77 77 77 76 76 75 75 74 75 75 75 75 75 76 75 79 72 70 75 77 76 76 75 76 77 74 73 69 69 71 75 73 73 73 74 73 73 74 75 74 73 73 73
76 76 76 75 75 75 75 74 74 74 75 75 75 75 75 76 68 68 70 79 77 77 77 77 77 79 74 77 70 68 68 68 71 77 74 74 74 76 75 72 71 73 74
76 75 76 75 75 75 75 74 74 75 74 75 75 75 75 76 67 66 68 76 78 78 78 78 77 78 78 76 77 77 76 75 73 74 75 77 79 79 77 76 74 73 75
75 75 76 76 75 75 74 74 75 75 75 75 76 75 75 76 64 64 66 76 76 77 79 78 78 78 72 66 76 76 76 77 71 66 67 67 66 66 70 77 72 68 70
76 76 77 76 76 75 75 75 76 76 76 77 76 76 72 76 65 62 65 77 76 77 78 78 69 75 66 63 75 76 75 77 79 79 78 70 67 71 65 70 73 68 67
78 78 77 77 76 76 76 76 76 76 76 76 76 77 77 75 75 61 60 76 77 77 77 78 80 65 61 59 61 77 76 77 76 76 77 78 79 78 76 73 71 70 69
76 76 76 76 78 79 76 76 76 76 75 75 75 76 78 78 65 62 59 61 71 78 78 80 79 63 59 58 60 63 61 63 74 74 74 74 76 78 80 78 76 75 76
75 75 75 76 77 78 76 75 76 76 76 75 75 76 77 78 79 61 58 58 60 71 80 75 66 59 57 58 57 58 58 66 68 69 70 73 76 78 78 76 77 75 74
73 73 73 74 75 77 78 78 77 76 76 76 76 76 77 77 77 77 72 67 60 64 66 71 67 65 63 66 67 65 65 67 69 70 71 75 77 75 73 74 73 75 73
72 73 73 74 73 74 72 72 77 79 75 77 78 78 75 75 76 69 70 74 74 69 69 71 71 71 72 72 72 72 73 72 69 70 69 70 71 71 72 74 72 71 69
71 71 70 73 71 73 66 62 49 48 48 49 53 67 67 58 58 54 52 53 54 55 68 70 70 70 69 69 69 69 70 67 68 66 66 66 66 66 67 69 69 68 66
69 70 71 67 73 70 68 67 64 56 46 44 44 50 54 56 47 45 45 46 48 57 70 68 67 67 65 65 66 66 67 67 68 67 65 66 66 67 66 66 66 66 66
68 58 69 69 71 72 69 68 67 66 66 62 48 47 43 44 43 44 46 54 64 62 65 65 64 64 65 66 66 67 67 66 67 67 66 68 67 65 64 65 65 64 62
68 69 68 67 68 70 68 66 68 66 64 61 59 54 49 44 45 48 51 64 62 62 62 63 64 65 66 67 66 65 65 64 64 66 66 66 65 64 65 66 65 57 57
68 61 63 67 67 68 67 66 64 63 63 62 62 60 61 61 62 61 61 61 61 62 63 64 64 65 64 63 64 64 65 64 65 65 65 66 66 66 65 65 66 64 61
68 67 62 66 66 66 65 63 63 63 62 59 57 54 50 61 59 59 58 58 60 61 62 62 63 63 63 64 64 64 65 65 65 65 65 65 66 64 66 65 64 65 63
67 66 66 65 65 65 64 65 63 61 60 58 57 53 49 56 55 54 54 53 54 53 54 54 54 53 53 54 54 57 60 62 63 63 63 64 63 63 65 63 63 61 61
66 65 63 62 63 59 62 62 61 60 59 58 57 55 55 53 52 52 51 51 51 51 51 51 50 50 51 51 51 51 51 53 53 54 60 64 64 64 64 62 62 60 58
64 63 62 60 60 60 59 58 56 52 56 55 54 53 52 51 51 51 51 51 50 50 50 49 49 48 49 48 49 49 48 46 46 51 58 66 67 63 64 66 67 64 63
60 60 59 58 58 56 55 54 53 53 52 51 51 50 51 50 50 50 50 50 50 49 49 49 49 48 48 47 46 46 39 34 41 41 55 64 67 65 66 67 64 65 65
58 57 56 55 53 53 51 51 50 49 48 48 48 47 47 47 48 48 49 49 50 49 49 49 49 48 48 48 44 37 33 34 41 35 57 62 63 64 63 62 65 65 61

GFSGL_sfc_temp_051.txt.gz
Temp
82 82 82 83 83 82 82 82 83 84 83 83 84 85 85 84 84 83 83 85 83 83 84 83 83 83 86 87 85 85 84 83 81 87 87 88 83 84 87 86 85 85 87
83 82 82 83 83 82 82 83 83 83 83 83 84 84 84 85 85 83 83 86 83 83 83 83 83 86 81 83 85 81 83 84 82 78 84 86 83 85 85 83 86 91 89
85 83 83 83 82 82 82 83 83 83 83 85 84 83 84 85 84 84 84 84 85 85 85 84 84 84 82 85 83 84 85 83 82 80 82 87 86 87 85 84 82 84 87
87 85 83 82 83 83 83 82 83 83 82 83 83 84 85 85 85 85 84 84 84 85 85 86 85 85 83 83 84 83 83 83 84 82 83 84 85 85 84 82 84 88 87
84 85 83 83 83 83 82 82 83 83 83 83 83 83 84 86 88 85 85 84 83 84 85 85 86 83 77 79 86 85 83 83 84 84 83 85 85 86 83 87 85 87 86
82 83 83 82 81 81 81 81 81 81 82 83 83 83 83 87 76 71 80 85 84 83 83 85 85 78 77 70 69 71 79 82 80 83 85 84 82 83 86 85 85 83 82
82 83 82 81 80 80 81 81 81 81 81 81 82 83 82 83 69 68 70 86 86 85 84 84 86 90 79 85 74 68 68 67 71 81 80 82 82 83 83 81 81 81 81
81 81 82 81 81 81 80 80 80 81 81 81 81 82 82 84 68 66 68 81 85 85 85 85 85 85 86 84 85 85 85 85 81 80 80 82 84 85 84 83 81 78 78
81 81 81 82 81 81 80 80 81 80 80 81 82 82 81 82 65 64 68 82 83 83 85 85 85 85 76 67 81 82 83 85 79 68 69 69 67 65 70 80 75 73 71
82 82 82 82 81 81 81 80 81 81 81 84 82 83 77 82 66 62 67 84 83 84 84 84 70 78 67 63 80 82 81 83 85 86 86 74 68 75 65 70 73 69 71
85 84 82 82 81 82 81 82 81 81 83 81 81 83 82 80 81 61 59 81 85 85 85 87 88 65 61 60 61 82 81 82 81 84 81 80 80 81 80 79 75 71 71
84 83 82 82 84 84 81 81 81 81 80 80 80 81 85 83 67 63 59 61 74 84 84 88 86 64 59 58 62 64 61 64 79 76 75 76 74 75 79 80 80 79 79
82 82 82 82 83 84 81 80 81 81 83 81 83 83 85 87 85 61 58 58 60 76 86 79 67 60 57 61 58 59 58 68 70 70 70 71 75 80 80 78 83 84 83
80 81 81 81 81 83 84 84 84 84 83 84 84 84 86 87 87 87 81 74 61 68 70 78 75 68 64 70 71 65 67 67 68 69 71 76 79 81 83 84 82 83 81
81 81 81 83 80 82 84 84 85 86 81 85 86 87 86 85 86 76 78 86 84 75 74 77 75 75 74 74 75 74 74 72 70 73 73 75 79 79 79 80 79 79 74
80 81 82 84 73 81 84 75 49 50 49 50 53 71 85 63 56 54 52 54 54 54 72 74 74 72 72 73 73 73 72 71 79 75 73 75 74 72 73 74 74 73 69
72 74 78 74 81 80 81 81 79 61 46 44 44 51 52 59 53 50 48 49 49 54 73 73 73 73 73 69 70 74 79 79 76 77 76 75 71 71 69 69 69 71 74
76 59 80 82 83 77 76 77 81 79 78 72 51 50 44 44 44 44 46 54 66 66 74 74 69 68 69 72 78 79 79 78 76 75 72 72 74 69 67 69 75 73 69
77 79 80 80 79 76 72 72 76 80 80 68 63 54 48 44 45 47 51 78 75 68 65 66 69 72 78 78 75 74 73 72 72 72 69 68 69 67 67 73 75 61 61
77 65 67 80 74 73 70 69 74 78 75 74 73 71 68 66 72 65 67 65 64 65 68 68 69 70 70 72 69 72 72 68 69 69 68 69 69 69 69 71 70 71 67
74 79 64 79 77 74 70 68 71 73 70 69 69 64 52 68 62 61 60 59 61 62 64 64 63 62 61 62 63 67 68 70 70 69 69 68 70 68 69 70 67 68 69
71 76 79 79 79 72 71 70 67 65 61 60 58 55 48 60 58 57 56 56 56 58 60 60 58 57 56 56 57 59 61 63 67 68 66 67 68 70 68 68 69 68 65
72 76 77 77 77 65 70 70 67 62 60 59 59 60 60 59 58 57 56 55 55 55 54 55 55 55 56 57 58 61 63 64 66 66 66 65 69 69 70 71 74 71 68
69 72 74 74 68 69 68 67 66 57 59 58 56 56 57 56 54 53 53 53 53 53 54 54 56 57 59 61 63 65 62 55 55 62 65 69 73 69 71 74 77 75 75
65 64 67 64 63 63 60 60 58 58 56 55 54 53 54 54 54 53 53 53 54 55 57 59 60 60 59 58 58 57 43 34 46 43 64 70 72 73 74 75 76 76 75
59 59 58 58 57 56 56 54 53 52 51 52 52 52 53 54 55 57 60 61 61 61 60 60 59 58 58 57 51 39 33 33 46 35 63 72 71 74 74 73 72 72 75

GFSGL_sfc_temp_054.txt.gz
Temp
89 88 88 89 89 88 88 88 88 89 90 88 89 89 90 90 90 88 88 90 88 88 89 89 87 88 92 94 94 93 92 91 87 92 97 97 90 88 91 93 93 92 94
90 88 88 89 89 89 87 88 88 87 89 88 89 88 89 90 90 88 88 91 88 88 88 88 88 91 87 87 92 88 90 91 89 83 89 92 90 92 90 87 91 97 97
91 90 89 89 89 89 88 88 88 87 87 90 89 88 88 90 89 89 88 89 89 89 89 89 88 88 86 90 90 91 93 90 90 88 87 93 94 95 92 90 89 90 94
94 92 89 89 90 90 89 88 88 88 87 88 89 89 89 90 90 90 89 89 89 90 90 90 90 89 88 87 88 87 88 88 90 89 90 91 93 94 94 91 89 94 95
94 92 91 89 90 89 88 88 88 88 88 88 88 89 89 91 94 90 90 90 88 89 90 90 91 88 80 82 91 89 88 89 90 91 90 92 93 94 91 94 92 94 94
92 92 91 88 88 88 87 87 87 87 87 87 88 88 88 93 79 74 83 90 89 88 88 90 90 81 80 72 71 71 77 85 85 87 89 88 87 89 93 92 92 90 87
90 90 90 88 86 86 87 87 86 86 87 86 87 88 88 89 71 70 72 90 90 89 89 89 91 96 84 91 74 69 70 69 70 81 82 84 85 87 88 86 86 87 86
89 88 88 87 86 87 86 86 85 87 86 86 86 87 88 89 69 67 70 87 89 90 90 90 89 90 90 90 91 90 90 90 83 83 83 85 86 87 87 85 82 81 86
88 87 88 88 86 86 85 85 86 86 86 86 87 86 86 87 67 65 70 87 87 87 89 90 90 89 79 69 87 86 87 89 84 69 71 71 69 67 72 85 81 82 81
88 88 88 88 87 86 86 85 87 87 87 90 88 88 81 87 68 63 69 89 88 90 88 88 73 82 70 65 84 85 84 87 89 90 91 81 69 74 66 77 83 74 76
90 90 88 88 87 87 86 86 86 86 88 86 87 88 88 85 85 61 60 85 90 92 92 94 95 67 64 63 62 85 83 84 83 87 86 88 90 92 91 86 82 77 74
89 89 88 87 89 90 86 85 85 85 84 85 84 87 90 88 69 62 59 62 76 89 91 96 93 64 59 59 64 66 62 66 85 84 85 87 84 82 83 83 84 84 83
88 87 86 86 87 89 85 84 86 85 88 86 88 88 91 94 91 63 58 58 61 79 91 84 65 60 56 62 58 60 59 82 84 80 77 76 79 78 84 85 85 87 87
85 85 86 85 85 87 90 89 89 90 88 91 90 91 93 94 95 95 85 75 62 70 73 83 79 70 64 71 77 74 83 86 81 75 72 73 79 82 85 90 88 88 87
85 87 87 89 86 87 89 89 91 92 83 92 94 95 94 94 95 83 84 93 90 80 81 87 87 85 84 85 84 83 82 78 72 72 75 78 84 87 86 87 86 85 83
85 88 90 92 89 90 89 85 50 50 49 49 51 69 95 69 59 58 57 54 55 55 81 85 79 78 78 79 79 78 77 73 77 78 83 85 84 84 83 83 82 79 76
83 84 87 84 88 86 84 83 80 63 48 47 47 50 52 54 53 52 50 49 51 59 85 79 78 79 78 77 77 77 80 79 81 83 85 84 84 82 78 78 76 79 82
78 60 88 88 78 77 74 75 71 72 83 80 53 53 48 49 49 48 47 55 70 65 77 76 76 74 73 74 76 79 80 85 84 83 83 83 82 79 74 72 79 82 80
83 85 88 83 79 70 77 75 81 80 84 88 79 58 50 43 43 45 48 83 82 76 73 73 74 76 76 77 77 79 83 84 81 82 82 79 79 76 72 71 78 63 64
82 67 72 85 81 75 74 73 76 78 83 85 83 78 63 63 69 68 70 76 79 78 75 74 74 76 72 75 78 80 80 78 79 77 76 75 74 74 73 73 74 73 75
80 83 69 90 85 78 73 70 72 76 81 83 82 68 54 76 76 75 73 73 73 74 75 70 69 66 70 70 76 80 79 77 74 74 74 74 73 71 76 77 76 71 71
79 82 85 87 83 81 76 73 71 75 74 69 65 66 53 76 74 71 68 67 64 65 68 69 72 72 72 75 75 78 77 77 78 79 79 77 73 71 71 72 75 76 79
78 81 83 87 85 70 79 77 74 73 76 75 76 77 77 73 69 65 60 58 60 60 63 67 71 71 71 71 71 74 76 77 76 76 75 77 75 73 71 75 81 83 81
78 79 78 80 75 78 79 75 72 64 69 70 69 69 69 67 63 58 60 61 62 63 63 62 63 64 65 68 71 75 70 64 64 70 73 75 77 74 74 77 82 83 82
75 73 67 67 68 67 68 69 69 67 66 64 64 65 64 63 61 60 61 61 60 59 60 63 65 65 66 64 63 63 44 34 47 45 67 74 76 77 79 80 80 78 80
54 56 57 54 52 52 54 54 55 57 58 58 58 58 60 60 60 59 60 61 63 64 65 66 66 65 65 63 55 40 33 33 46 34 58 78 78 77 78 76 78 79 77

GFSGL_sfc_temp_057.txt.gz
Temp
90 89 89 89 89 88 91 90 91 92 92 91 91 91 90 90 91 89 89 92 88 89 90 91 89 89 92 95 95 94 93 92 88 92 97 97 94 90 92 93 92 93 94
91 89 89 90 90 90 88 90 91 89 91 91 90 90 90 91 91 89 88 91 90 89 89 89 89 92 88 88 91 90 91 91 90 83 88 91 89 91 91 89 92 96 95
92 92 91 91 90 90 89 90 90 89 89 91 90 89 89 90 90 90 89 89 90 90 90 90 89 89 87 90 90 91 93 91 90 88 88 93 94 95 93 91 90 91 96
95 94 91 90 91 91 91 89 90 89 89 89 90 90 90 90 91 91 90 89 90 91 91 91 91 90 88 88 88 88 88 88 89 90 90 92 94 95 96 93 94 98 96
95 95 92 91 91 91 90 90 90 90 89 89 89 90 91 91 94 90 91 90 89 89 91 91 91 89 81 83 91 88 87 88 90 90 91 93 93 94 90 94 92 94 94
94 94 93 90 89 89 88 88 88 89 89 88 89 89 90 94 80 75 85 91 90 89 88 90 91 81 82 73 72 72 77 83 84 87 89 88 85 88 93 91 90 88 85
93 93 92 90 88 88 89 88 87 87 88 87 88 89 88 90 73 72 74 92 91 90 89 89 91 96 84 91 75 72 72 70 70 81 81 82 83 85 86 84 83 85 85
92 93 91 90 88 88 88 87 87 88 87 87 88 88 88 90 72 67 71 89 89 90 91 90 89 90 91 90 92 91 88 88 84 84 82 83 85 86 85 86 84 83 86
93 91 91 91 89 88 87 86 88 88 88 88 89 88 87 88 69 66 70 88 88 88 90 90 91 90 79 71 88 86 87 89 84 70 70 71 69 68 73 82 82 82 83
92 92 92 91 90 88 88 87 88 88 88 91 90 90 83 88 68 64 70 91 88 90 88 87 73 82 71 65 84 86 84 86 89 90 91 83 71 78 66 78 85 77 79
95 94 92 91 89 89 88 88 88 88 89 87 89 90 89 87 86 62 61 87 91 92 92 94 95 69 66 64 63 86 84 84 83 88 89 90 89 89 86 81 84 80 78
93 92 90 89 91 92 87 87 87 87 86 87 86 89 92 90 72 63 60 64 77 90 92 98 95 68 61 62 65 68 62 66 86 86 85 86 88 88 90 89 85 86 85
91 89 89 89 90 90 87 86 87 87 88 87 89 88 92 95 92 63 59 60 63 80 91 81 64 60 58 60 57 62 61 83 84 84 84 87 87 87 79 78 86 86 85
88 88 89 88 87 90 91 90 90 90 88 91 90 91 93 95 97 97 83 73 62 71 74 84 81 71 63 72 78 72 83 86 85 83 85 83 81 79 83 88 87 89 87
88 89 88 89 87 88 90 91 92 93 88 93 95 96 95 95 97 87 87 91 87 80 81 86 87 87 87 88 88 86 83 82 83 85 82 78 79 83 84 89 87 86 83
82 86 90 91 90 91 91 85 52 57 53 54 54 69 85 62 59 55 55 59 60 58 80 87 87 88 89 89 89 86 83 78 83 79 77 79 82 86 86 87 85 83 80
81 84 92 88 92 92 91 89 85 65 50 50 50 54 54 54 55 54 52 50 51 60 88 88 89 89 86 86 81 79 79 80 79 79 83 82 86 86 82 83 82 81 81
81 66 85 88 88 88 87 87 89 87 87 87 55 58 46 49 50 51 50 58 81 76 89 88 84 84 83 81 81 82 81 80 81 84 84 86 86 84 83 81 80 80 82
71 76 75 81 85 83 81 81 87 83 83 80 73 61 55 45 45 46 49 84 86 87 84 82 81 81 81 79 79 76 79 81 77 81 85 85 84 83 81 80 79 66 68
72 67 74 84 83 82 84 82 86 82 80 66 70 81 70 65 73 78 76 81 81 78 77 76 80 79 77 77 78 79 80 77 78 81 82 82 79 77 79 79 78 76 76
70 76 76 82 75 81 80 73 75 77 79 82 83 68 58 75 77 77 70 67 66 72 77 76 74 75 74 75 74 75 74 77 77 80 75 74 74 73 78 78 80 79 75
75 79 82 81 84 85 79 78 76 77 85 80 76 68 54 69 71 68 66 65 66 69 72 76 77 76 77 72 71 73 76 75 77 78 79 80 79 77 73 73 75 79 79
74 78 85 85 79 71 84 81 77 79 81 81 79 77 74 71 75 74 72 72 72 73 75 77 77 75 76 77 79 79 79 79 77 78 77 78 79 80 74 73 77 81 84
68 73 77 80 79 77 70 74 71 62 65 67 69 77 75 75 75 71 69 68 68 70 68 67 68 69 72 75 76 76 66 63 65 73 73 75 77 77 81 80 79 80 80
68 74 66 63 65 72 73 66 65 65 62 61 62 61 61 63 63 65 67 68 68 69 70 70 70 69 67 64 62 61 40 34 51 42 70 73 76 77 79 80 79 77 75
50 52 52 51 49 50 51 52 51 51 54 55 54 57 58 59 59 60 62 64 65 65 65 66 67 66 64 61 55 38 33 35 47 34 56 73 76 75 74 74 75 76 75

GFSGL_sfc_temp_060.txt.gz
Temp
85 84 83 83 83 83 84 83 84 85 87 87 87 86 85 85 86 84 83 84 83 82 84 84 81 82 83 83 83 82 81 81 76 79 82 83 83 83 84 83 84 83 83
85 84 84 84 83 84 82 85 85 85 86 86 85 86 85 85 85 84 83 85 83 83 83 83 84 87 82 82 82 80 82 82 79 76 79 79 81 82 82 81 85 91 85
87 86 85 85 84 83 83 84 85 84 85 87 86 84 84 85 84 84 84 83 83 84 84 83 83 83 81 82 82 81 81 82 80 78 78 81 81 83 82 82 82 82 87
90 88 85 85 85 85 84 83 85 85 84 85 85 85 85 85 85 85 85 84 84 85 85 84 84 83 82 82 82 80 82 81 80 79 79 80 81 82 82 80 80 82 82
90 88 86 85 85 85 84 83 84 84 85 85 84 85 85 86 89 84 85 84 83 83 84 85 85 84 79 79 84 81 81 81 81 80 80 80 79 79 78 80 79 81 83
89 88 87 85 84 84 83 84 83 83 84 84 84 84 84 89 79 75 82 85 84 83 82 83 85 78 79 74 72 72 77 79 78 78 79 78 77 78 79 80 80 79 76
89 88 86 85 84 83 84 83 83 82 84 83 83 84 83 85 73 72 74 86 84 84 83 83 85 91 80 85 75 72 71 71 72 79 77 77 77 78 79 78 78 78 78
88 88 87 86 84 84 83 83 83 84 83 83 83 83 84 85 72 68 71 83 84 84 84 84 83 83 83 83 84 83 81 81 79 78 77 79 80 81 80 81 79 79 81
89 87 87 87 85 84 83 83 84 84 83 83 84 83 83 84 69 68 69 80 83 82 84 84 84 83 77 72 80 80 81 82 78 69 70 70 70 69 73 78 78 77 77
89 89 89 87 86 84 83 83 84 84 84 86 85 85 80 83 69 65 69 85 82 83 82 82 72 79 71 64 78 81 79 80 82 83 83 78 67 73 66 71 78 75 76
91 91 89 88 86 86 84 84 84 84 84 83 84 85 85 83 83 63 61 83 85 84 84 84 85 68 64 63 63 81 80 81 80 80 82 82 83 84 83 81 80 78 76
90 89 88 87 90 90 84 84 84 83 82 82 82 84 87 86 71 62 60 65 75 84 84 87 85 67 63 63 64 67 64 64 80 80 80 80 81 83 82 83 82 79 79
89 86 87 87 87 87 85 83 84 83 84 83 84 83 86 88 87 65 59 60 64 78 85 77 63 60 59 58 59 62 60 74 78 78 79 80 82 82 80 79 79 79 79
86 85 86 86 85 86 88 86 85 85 84 85 84 85 85 87 89 87 75 68 63 68 72 78 73 72 64 69 72 65 75 79 80 80 80 82 82 80 78 78 79 79 77
87 87 86 87 84 85 86 86 86 87 85 85 87 87 87 86 88 78 78 81 80 74 76 80 80 80 80 81 82 83 79 80 79 81 80 79 78 78 77 79 78 78 75
86 87 87 88 87 86 85 78 54 60 55 58 59 80 77 60 53 52 52 60 62 59 75 79 79 80 80 81 82 83 83 79 81 80 79 78 77 76 76 78 77 75 73
73 83 87 83 87 84 84 82 78 64 49 48 50 55 60 57 54 51 49 51 53 59 78 78 80 82 82 84 85 84 81 81 79 76 75 75 77 78 74 76 75 74 73
70 65 78 83 85 83 84 83 84 80 78 75 52 55 49 49 50 49 52 60 71 70 81 83 82 83 83 83 83 82 81 78 77 77 76 78 78 78 77 76 76 74 73
64 66 70 72 71 70 80 83 83 84 84 83 71 60 55 49 48 48 49 80 81 81 80 81 81 81 82 82 81 80 79 77 77 76 77 77 77 76 76 76 75 64 65
62 62 64 69 72 70 74 71 73 76 79 77 78 76 68 65 70 71 74 77 80 82 81 80 79 77 77 76 75 76 76 73 73 73 74 74 72 73 73 74 74 73 72
60 63 64 67 70 71 71 73 72 78 75 71 74 65 58 69 77 77 74 69 72 76 74 72 71 70 70 73 73 73 76 75 75 71 72 71 73 71 72 72 72 73 73
61 64 68 72 71 72 73 74 75 73 78 73 69 65 52 73 70 67 66 66 67 67 69 71 69 69 68 68 69 72 71 72 72 71 71 71 73 73 72 71 70 71 73
68 70 72 67 70 66 68 65 63 64 65 68 70 72 71 70 68 68 65 65 64 64 64 65 69 70 71 71 72 67 65 62 65 68 70 73 74 74 73 72 72 73 74
67 63 65 66 64 68 68 65 60 56 59 59 61 64 64 66 65 63 63 63 62 62 63 62 62 60 58 60 61 58 51 49 57 67 64 68 71 71 75 74 74 76 75
55 55 51 50 52 58 56 58 63 64 59 58 58 60 62 60 59 62 62 61 62 62 62 62 59 57 55 53 52 52 39 35 47 40 62 67 69 71 73 74 73 73 74
47 46 46 46 45 44 46 46 46 48 50 51 55 55 56 57 56 57 58 58 59 59 59 59 58 57 56 53 48 39 34 35 42 34 48 62 70 70 68 68 70 70 71

GFSGL_sfc_temp_063.txt.gz
Temp
80 80 79 79 78 77 75 77 77 78 78 80 79 78 79 79 78 77 76 77 75 75 76 75 76 76 75 75 76 75 73 73 70 73 75 76 76 77 79 78 79 79 79
81 81 80 79 79 79 76 75 79 77 77 80 81 81 78 78 78 77 76 79 77 75 77 76 76 80 76 75 75 75 74 75 73 71 71 74 76 78 78 78 83 86 81
82 80 80 80 79 80 80 76 77 77 77 79 79 80 80 80 78 77 77 77 77 77 77 77 76 76 75 75 75 74 74 76 73 71 71 74 75 76 77 77 78 78 81
82 82 80 80 80 80 81 81 77 81 78 79 78 79 78 79 78 78 78 77 77 77 78 78 78 77 76 76 76 75 75 74 73 72 71 71 73 78 75 74 73 74 76
83 82 81 81 82 81 80 79 80 79 82 78 79 77 80 79 82 77 78 78 78 77 77 78 78 78 76 75 78 75 75 74 73 72 72 72 72 72 72 73 71 76 77
86 83 83 82 82 81 80 80 78 79 80 82 80 79 77 83 76 73 78 77 79 79 77 76 78 77 76 73 71 72 76 75 73 72 72 71 71 71 72 71 75 70 69
87 84 83 82 81 80 81 80 78 79 80 79 81 81 80 81 71 71 73 82 79 78 79 79 79 85 76 78 73 71 71 69 71 78 73 74 73 76 74 73 73 73 73
84 84 83 82 81 81 81 80 80 80 80 81 80 80 80 81 70 68 71 80 81 81 80 79 80 81 77 77 77 78 76 77 76 75 74 78 78 78 76 78 76 74 76
80 83 83 83 81 81 80 81 81 81 80 81 82 80 80 81 67 67 68 77 80 80 80 81 79 79 73 69 75 74 75 75 75 68 69 69 69 68 71 72 72 72 73
85 85 84 84 83 81 81 82 83 83 83 82 82 82 77 81 68 65 67 80 76 79 79 78 69 77 69 67 76 78 75 76 73 75 74 69 66 70 66 70 75 70 70
82 84 84 84 84 83 83 83 83 82 82 82 81 82 82 79 80 62 62 81 81 79 80 80 81 66 62 61 62 76 76 78 72 74 74 74 75 75 78 74 71 72 72
81 78 81 84 85 84 82 82 82 82 81 80 80 80 82 83 69 64 60 62 75 81 80 82 82 67 62 61 62 65 64 64 71 72 71 71 72 77 78 76 77 76 76
75 79 78 83 84 86 81 81 80 81 80 80 80 79 81 83 83 64 60 60 62 77 84 79 70 65 61 61 61 62 61 68 73 69 72 75 74 78 76 75 75 76 77
69 78 81 83 83 85 84 83 82 81 80 80 80 80 81 82 83 83 71 65 62 66 71 72 67 68 67 68 68 61 66 70 72 73 74 75 75 75 74 74 73 74 71
67 76 80 84 80 84 85 83 83 84 82 82 82 82 81 80 83 77 75 75 75 71 72 77 73 72 75 72 71 71 66 69 71 73 73 73 74 73 73 73 73 73 69
63 71 80 84 82 84 82 69 52 57 58 60 63 77 82 64 67 61 57 59 59 57 70 74 73 74 74 74 73 73 73 72 74 73 73 73 73 72 72 72 72 71 68
61 64 68 77 82 81 80 80 72 61 49 47 49 60 58 60 51 53 50 54 51 57 75 73 75 74 75 75 76 76 77 75 76 75 75 74 74 73 72 69 70 68 67
59 58 63 68 74 77 78 79 77 72 70 66 53 53 49 48 48 48 48 53 60 64 76 72 74 75 76 77 77 76 75 75 74 73 73 72 72 71 70 71 69 67 66
59 60 61 64 70 70 74 76 76 73 73 69 61 57 49 48 49 49 48 72 72 73 73 73 73 73 73 75 74 75 75 74 73 73 72 72 72 71 70 69 69 62 62
57 59 59 62 68 69 70 71 71 73 73 69 68 65 63 60 65 66 68 70 71 71 72 72 72 74 73 73 72 71 70 70 71 70 69 69 69 68 66 67 68 66 64
55 58 60 66 66 68 68 68 69 69 69 68 68 65 58 65 67 68 66 66 66 69 70 69 69 69 69 69 68 68 69 69 69 68 66 66 66 67 68 66 67 64 64
56 59 62 65 68 68 67 68 68 68 68 66 66 62 55 65 64 64 63 63 62 64 67 68 66 66 66 63 63 66 65 63 64 66 68 66 67 67 67 66 64 63 63
55 56 58 59 64 61 61 62 62 62 63 64 66 66 65 64 63 63 61 60 60 59 58 57 55 55 56 56 54 55 56 55 56 61 63 65 67 67 67 64 64 63 62
51 49 50 50 53 54 60 59 58 56 58 59 61 60 60 60 60 60 60 60 59 55 53 51 51 50 50 48 48 48 45 43 51 52 57 61 61 61 63 63 65 66 66
46 46 45 44 45 46 47 48 49 49 49 51 54 56 56 58 59 58 57 56 54 51 51 50 49 49 47 47 46 44 38 37 46 39 54 56 58 60 61 60 60 61 62
44 43 43 43 42 42 42 42 43 44 45 44 44 44 46 48 50 55 53 52 49 48 46 46 47 46 45 44 42 39 35 37 44 37 45 53 57 56 56 57 59 59 60

GFSGL_sfc_temp_066.txt.gz
Temp
78 78 78 79 77 72 74 76 76 75 77 77 78 77 77 76 75 73 73 73 73 73 73 73 73 73 72 72 73 72 71 69 67 71 70 73 74 75 77 76 77 77 78
79 78 78 78 78 76 73 75 76 75 75 77 78 78 78 77 75 74 73 76 73 73 74 73 74 77 73 72 72 73 72 71 70 68 69 72 73 76 76 76 80 82 78
80 79 78 78 78 78 78 73 74 76 74 75 77 78 78 78 77 76 76 75 74 74 75 74 74 74 73 73 73 72 72 73 71 69 70 71 72 73 74 75 75 76 79
80 79 78 78 78 78 80 79 72 73 76 75 77 78 79 79 78 78 77 75 74 75 75 75 75 74 73 73 73 73 73 72 71 70 69 70 70 73 72 72 72 71 75
80 79 78 79 79 79 79 79 78 74 77 77 76 77 78 79 80 78 78 76 74 73 74 75 75 76 74 74 76 73 73 72 71 71 70 70 71 71 71 71 70 72 74
80 79 80 79 79 78 77 78 77 77 77 76 75 77 77 81 74 71 76 77 76 75 74 73 75 74 73 71 70 71 75 73 73 71 72 72 71 70 70 70 69 68 68
80 80 80 79 78 78 78 77 77 77 78 78 77 76 76 78 70 69 71 78 76 77 77 78 76 81 74 76 70 68 68 68 72 75 72 72 71 74 72 70 70 69 70
74 80 80 80 78 78 78 77 77 78 77 78 78 79 78 78 68 67 69 78 76 77 78 78 77 78 76 75 75 74 74 74 72 72 73 77 78 78 73 76 73 71 72
72 74 79 81 79 79 78 78 78 78 77 78 79 78 78 80 66 66 67 76 78 77 78 79 78 78 72 66 76 73 74 75 72 66 68 67 66 66 69 70 71 69 70
71 72 76 81 81 79 80 79 80 80 79 79 79 80 75 79 67 64 66 78 77 78 78 78 69 75 67 64 74 76 74 76 74 74 72 67 64 68 65 69 73 70 70
70 73 76 81 82 82 81 81 81 80 80 79 79 80 80 78 79 62 61 78 79 78 77 78 79 64 62 60 62 79 77 79 75 71 72 73 73 73 73 71 70 71 69
66 67 70 76 82 84 82 81 81 80 79 79 78 78 80 81 68 64 60 62 73 80 79 80 80 64 59 59 59 63 61 63 71 71 71 72 72 71 74 73 74 72 73
64 65 67 73 78 78 82 81 80 80 80 78 78 78 78 80 81 63 60 60 62 75 82 77 67 62 59 60 59 62 60 66 70 70 71 74 75 76 73 73 75 75 76
61 63 65 69 78 80 81 82 81 80 79 80 78 78 79 80 80 82 72 66 62 65 71 76 72 67 66 69 67 64 66 68 70 72 73 75 71 71 72 73 73 73 72
60 61 64 69 74 81 83 82 82 83 81 80 81 80 79 78 80 74 74 76 75 70 71 75 68 67 69 68 68 69 65 64 66 68 68 69 70 71 72 72 73 72 70
58 60 62 63 67 77 82 71 53 56 59 58 61 74 81 69 62 58 56 56 57 57 64 72 72 73 72 74 74 72 70 67 69 69 70 71 71 72 72 72 73 69 66
56 58 59 60 65 73 79 78 73 60 49 51 52 56 57 64 53 53 54 52 52 54 72 71 73 73 74 74 75 74 73 74 73 71 72 73 73 73 70 71 68 66 65
57 55 58 59 61 67 74 80 77 75 71 69 51 55 52 50 53 52 48 53 60 59 71 73 72 74 73 74 74 74 75 75 73 74 74 74 73 72 70 69 67 66 64
54 56 57 58 59 61 67 72 74 75 74 73 62 54 50 45 45 45 46 70 69 68 68 72 72 70 69 70 71 71 71 72 73 73 73 73 72 71 69 68 66 60 61
54 55 56 57 59 62 66 70 72 71 70 68 68 69 61 60 65 66 66 68 68 67 68 69 69 70 66 66 67 67 67 69 70 71 70 69 68 68 67 65 65 64 63
52 54 57 60 62 64 67 69 71 72 71 70 67 64 56 70 69 67 65 65 65 67 68 68 68 65 65 66 66 66 64 65 67 67 67 66 66 65 66 67 67 66 65
51 51 53 52 59 62 62 66 69 71 68 66 64 62 53 65 65 63 62 61 60 59 63 61 58 57 54 56 63 67 65 63 61 63 66 66 66 67 66 66 66 66 64
48 48 49 48 50 54 59 60 60 66 66 65 65 64 64 63 61 60 58 55 53 52 52 52 51 49 49 48 48 52 55 55 56 59 62 64 65 65 64 64 66 64 63
45 45 46 46 45 47 48 48 52 53 60 61 62 61 61 60 59 57 53 51 47 47 47 47 47 47 47 46 47 47 47 50 54 56 60 61 62 61 61 62 61 62 61
44 43 42 43 42 43 43 43 44 46 48 49 50 52 58 56 53 50 49 47 45 44 44 44 44 44 45 45 46 45 39 38 49 45 57 60 60 59 59 59 58 58 58
43 42 41 41 40 40 40 40 40 40 41 42 44 45 46 47 45 44 44 42 41 41 41 41 42 42 42 42 40 38 35 38 44 40 56 57 56 55 54 55 56 56 57

GFSGL_sfc_temp_069.txt.gz
Temp
77 78 78 75 72 71 72 73 73 74 74 74 74 74 74 74 73 72 72 72 72 71 71 71 71 71 70 70 70 71 69 68 66 69 68 71 73 73 76 74 76 76 75
78 78 77 77 74 72 72 72 73 73 73 74 74 74 74 75 73 73 72 74 71 71 72 71 71 74 71 71 70 71 70 69 68 67 67 69 71 73 74 74 78 79 76
78 77 77 77 76 75 73 71 72 72 73 73 73 74 75 76 75 74 74 72 72 72 73 72 72 72 71 71 71 71 71 72 69 68 69 69 71 71 72 73 73 74 76
78 77 76 76 76 77 77 74 72 72 73 73 73 74 75 76 77 76 74 73 73 73 73 73 74 73 72 72 72 72 71 71 70 69 68 68 69 71 71 70 72 71 73
76 77 76 77 78 77 77 77 74 71 74 74 74 73 75 76 78 76 76 74 74 73 73 74 74 74 73 72 74 71 71 70 70 69 69 69 69 70 70 70 69 70 72
77 76 77 77 76 76 76 76 76 76 72 71 73 75 74 78 73 71 75 76 75 73 73 73 74 73 72 70 69 70 73 71 70 69 70 70 71 70 69 69 68 67 68
77 77 77 75 75 76 76 75 75 76 76 75 74 73 75 77 69 69 71 79 77 76 75 74 73 78 72 74 70 68 68 68 70 73 72 71 71 71 70 69 68 68 68
72 77 78 77 74 75 76 75 75 76 76 75 76 76 75 77 68 67 69 76 78 77 77 76 75 76 73 73 73 73 72 73 71 71 71 76 75 76 71 74 71 70 71
70 70 74 78 76 76 75 76 76 76 75 75 76 76 76 77 65 65 67 75 76 76 76 76 76 76 71 65 73 72 72 74 71 65 67 67 65 65 66 70 69 68 68
67 69 71 72 76 76 76 77 77 75 77 77 76 77 74 77 66 63 65 77 75 76 77 76 68 74 66 63 71 74 71 74 73 72 71 67 64 67 64 68 70 69 69
66 67 67 69 70 72 78 79 78 78 78 76 76 77 77 76 76 61 61 76 78 78 77 78 77 64 61 59 61 75 74 76 73 71 71 70 71 71 72 69 69 71 69
64 65 66 67 70 75 77 80 79 78 76 76 76 76 77 78 66 62 60 62 73 78 78 79 78 62 59 58 59 62 61 61 72 70 69 70 70 71 73 72 72 71 72
61 62 64 65 67 71 73 77 78 78 78 75 75 76 76 78 79 62 59 59 62 73 80 76 67 60 58 58 58 60 59 65 69 66 70 72 74 76 72 71 71 73 75
58 60 62 64 64 69 72 73 73 73 73 73 73 73 72 77 78 79 69 64 61 64 70 73 71 66 64 67 65 62 65 68 69 69 71 73 71 68 69 70 71 72 73
56 59 60 61 62 63 67 73 74 77 76 75 78 75 74 76 78 72 73 74 73 69 70 73 74 69 72 70 68 70 67 66 66 69 68 68 67 67 69 71 72 72 72
54 57 57 58 60 61 65 68 57 58 56 57 57 70 78 68 60 56 54 54 55 54 66 72 73 73 72 73 73 71 70 67 68 68 67 67 67 68 69 70 72 72 71
52 54 55 55 59 60 61 64 69 65 52 51 49 53 54 65 53 52 52 52 50 54 71 72 73 75 74 73 73 73 73 72 72 69 69 69 70 70 69 71 71 69 67
53 52 52 55 57 57 59 61 65 71 73 73 56 54 51 51 49 50 49 52 59 57 72 72 72 72 73 73 72 72 73 72 71 72 71 71 71 72 71 71 71 68 65
50 52 52 54 55 56 58 59 60 66 73 74 68 56 50 46 46 46 46 71 71 68 67 71 72 73 72 72 71 71 72 71 71 72 71 71 71 70 71 70 69 60 61
49 53 54 55 56 57 59 60 62 65 70 72 72 71 61 57 64 65 61 65 69 70 69 69 71 71 71 71 70 69 69 67 65 63 63 64 64 64 64 66 69 65 64
50 51 54 54 54 54 56 62 64 66 68 71 71 68 56 67 69 71 67 68 68 69 68 69 70 69 66 66 66 65 65 64 64 64 64 64 64 64 66 67 67 66 65
47 49 50 51 51 50 51 57 61 65 68 69 67 59 50 66 65 63 61 59 57 57 58 60 55 53 52 55 57 62 64 64 65 65 64 65 64 65 65 65 65 65 64
46 47 47 48 48 47 48 49 51 53 65 69 66 64 65 62 60 57 54 52 51 51 51 51 49 48 47 47 47 50 56 55 55 59 64 65 65 64 64 64 64 63 63
45 45 45 44 44 44 45 44 46 46 50 55 61 61 59 55 51 49 49 48 48 46 47 46 46 47 47 46 46 46 46 46 51 54 58 60 61 60 63 62 63 64 64
43 43 42 42 42 42 42 43 42 45 45 47 51 51 50 49 48 46 45 45 44 43 42 42 42 42 42 42 42 42 37 36 47 48 58 58 59 59 59 60 61 61 62
42 42 41 41 40 40 40 40 41 41 41 42 44 44 44 42 41 41 41 41 41 41 40 39 40 40 40 39 38 37 35 37 44 40 54 54 52 52 55 56 57 58 57

GFSGL_sfc_temp_072.txt.gz
Temp
76 75 75 73 73 72 74 74 74 75 75 75 76 77 76 75 75 73 74 75 75 75 75 75 75 75 76 76 76 76 75 74 74 76 75 78 78 79 82 82 82 83 84
76 75 74 73 73 73 73 74 74 75 75 75 76 76 76 76 76 76 75 77 75 75 76 75 75 77 75 75 75 75 75 75 75 73 75 77 77 79 79 79 82 85 83
74 76 75 74 73 73 73 73 73 74 74 75 75 75 76 76 76 76 76 76 76 76 76 76 76 76 75 76 76 76 76 77 75 74 75 76 77 79 80 80 80 81 83
76 76 75 74 75 75 74 73 73 74 74 74 75 76 76 77 77 77 76 76 76 76 76 76 77 76 76 76 76 76 77 76 75 74 74 75 76 78 77 76 79 81 80
75 76 75 75 75 75 74 74 74 74 75 75 75 76 76 77 79 76 77 76 76 76 77 77 77 76 72 74 78 77 76 75 75 74 74 74 75 76 76 78 75 77 80
75 75 76 75 74 74 74 73 73 73 73 73 74 75 76 79 71 70 75 77 76 76 76 76 77 74 73 69 68 69 74 76 75 75 75 74 76 75 77 76 75 75 74
74 73 73 75 74 74 74 73 73 73 73 73 73 74 74 76 68 68 70 78 77 77 76 77 77 80 74 78 70 67 68 67 70 77 75 76 76 78 77 76 75 74 75
71 72 74 74 74 74 74 73 73 74 73 72 73 73 74 76 67 66 69 77 78 78 77 77 77 78 77 77 77 77 77 77 76 76 75 77 79 79 78 79 76 75 76
68 68 72 75 74 74 73 73 74 74 74 74 75 73 73 74 65 64 67 76 77 77 78 78 78 77 70 65 77 76 76 77 72 65 67 67 66 65 70 76 75 72 75
65 66 67 69 72 74 73 73 73 74 75 76 76 75 71 74 65 62 65 77 76 77 77 76 67 75 65 62 74 76 75 77 78 79 77 70 66 71 63 73 77 73 74
64 65 67 67 68 71 73 74 72 73 73 75 75 76 75 73 74 61 60 75 77 77 77 78 79 63 61 58 62 77 75 77 75 77 79 79 79 78 78 74 75 76 74
62 63 65 66 67 68 69 70 75 75 73 73 74 75 77 76 65 62 59 61 71 77 77 79 78 61 58 58 59 62 61 62 76 76 75 76 76 77 79 78 77 75 78
59 60 62 65 66 67 67 69 72 74 76 74 75 75 76 78 77 61 58 58 61 74 80 75 66 59 57 59 58 59 58 69 72 73 74 76 78 79 79 76 77 77 76
56 58 60 62 62 64 67 66 69 73 72 74 75 75 76 77 78 78 71 66 61 65 70 74 71 68 65 69 68 65 69 72 73 73 75 76 77 75 75 76 75 75 76
55 56 58 60 60 61 63 65 67 71 73 74 76 76 74 75 77 69 69 72 71 67 67 74 76 75 74 74 73 74 73 72 71 73 74 74 73 73 73 74 73 74 74
53 55 56 56 57 59 61 63 57 55 53 52 54 68 76 65 59 54 53 52 53 54 66 72 72 74 74 74 75 75 74 71 74 74 73 74 73 72 72 72 73 73 73
50 52 54 53 55 57 59 60 60 63 54 51 49 51 51 59 53 50 50 52 51 54 72 72 72 74 74 74 75 76 76 76 75 75 74 73 72 72 69 73 74 72 73
49 50 51 53 55 56 57 58 60 61 62 66 59 53 50 50 50 49 49 51 61 56 73 73 74 74 75 75 75 74 76 77 75 74 73 73 73 73 72 72 74 73 72
48 50 51 52 53 54 56 57 59 60 62 65 68 59 54 46 45 46 47 72 71 70 68 72 74 75 74 73 73 74 74 74 74 74 73 73 73 72 71 72 72 63 65
47 49 51 52 53 54 55 57 58 60 61 63 66 70 65 57 62 60 60 65 73 74 72 71 73 74 74 74 73 73 73 73 73 74 74 73 71 71 71 71 70 68 66
48 49 50 50 51 53 53 54 56 60 62 64 66 68 57 67 70 71 68 66 69 72 73 72 72 72 73 73 73 72 73 74 73 71 68 68 68 67 67 67 66 65 66
48 48 48 49 51 51 51 52 53 55 57 59 65 67 50 65 70 71 71 67 62 59 58 66 65 61 60 63 66 69 69 68 66 67 68 69 69 68 68 67 67 66 66
46 46 47 47 48 48 48 49 49 49 50 51 58 65 63 65 63 57 53 51 50 49 49 50 50 48 50 50 52 52 57 61 63 65 68 69 69 69 69 68 68 68 68
45 45 45 44 45 45 45 45 45 44 46 48 55 55 53 51 49 48 47 46 45 45 46 45 45 45 47 47 49 47 46 49 55 58 63 66 66 63 69 69 69 65 64
43 42 42 42 42 42 42 43 43 42 42 45 45 46 45 45 43 43 44 43 43 42 42 42 42 42 43 43 43 44 39 39 45 43 58 62 64 65 65 66 64 63 63
41 41 41 41 40 40 40 40 40 41 40 41 41 42 41 41 41 41 41 41 40 41 41 41 42 43 42 40 39 36 35 37 41 38 48 49 50 52 56 56 58 57 58

GFSGL_sfc_temp_075.txt.gz
Temp
82 83 83 83 83 82 83 83 84 85 85 84 84 85 85 85 84 83 83 85 83 83 84 83 83 84 87 88 88 88 87 86 83 89 88 90 86 88 90 91 93 93 94
82 82 79 82 83 83 81 83 84 83 85 85 85 84 85 85 85 83 83 85 82 83 84 83 83 86 83 83 86 83 85 85 84 81 86 88 86 87 87 87 90 95 92
82 81 77 78 80 83 82 83 83 83 84 86 85 84 84 85 84 84 84 84 85 85 85 84 84 84 82 86 84 86 87 86 85 84 85 88 88 89 87 90 88 89 94
87 84 79 77 77 82 83 83 83 82 83 84 84 84 85 86 85 86 85 84 85 85 85 85 85 85 83 84 85 84 85 84 85 84 85 86 88 88 87 88 88 92 90
83 84 83 82 80 78 80 83 83 82 83 83 83 84 85 86 89 85 85 85 84 84 85 85 86 84 77 79 87 85 84 84 86 85 85 87 87 87 85 88 87 88 90
76 81 83 83 82 81 81 81 81 81 81 82 82 83 84 87 77 72 80 86 85 84 84 85 85 78 76 70 69 71 77 82 81 84 86 84 82 84 88 87 86 84 83
75 77 80 81 80 80 81 81 80 80 81 80 81 82 82 84 70 68 70 87 86 85 84 85 87 90 80 86 72 68 68 67 70 82 81 82 82 84 84 82 83 84 84
76 76 78 79 79 81 80 80 79 81 80 80 80 81 81 83 69 66 68 83 86 86 86 86 85 86 86 85 86 86 86 86 82 82 82 84 85 86 85 85 83 81 85
68 71 73 75 79 80 79 79 80 80 80 80 81 80 80 81 66 65 68 83 85 84 86 86 86 85 76 67 83 84 84 85 78 68 68 68 68 66 72 85 84 85 85
64 65 69 73 73 77 79 79 80 80 81 83 82 82 76 80 67 62 67 83 83 85 84 84 69 80 69 63 79 83 82 84 87 87 87 75 69 76 63 78 86 83 86
68 66 65 69 69 70 75 78 79 79 79 80 80 81 81 80 79 61 60 80 84 85 85 87 87 65 62 59 63 83 82 84 82 85 86 88 89 88 89 83 84 86 86
66 66 66 66 68 70 69 69 72 74 74 76 77 80 84 82 67 63 59 60 73 83 84 88 86 63 58 58 61 67 62 65 85 86 87 87 88 89 89 89 87 85 88
62 61 65 65 66 67 66 69 74 76 78 78 79 78 81 86 85 61 58 58 60 77 85 80 68 58 57 61 58 61 59 79 83 82 83 85 88 90 88 85 85 84 83
62 60 62 64 64 67 67 68 67 70 78 79 77 80 82 83 85 86 80 71 61 67 73 80 76 71 68 75 75 68 78 82 82 82 84 86 87 87 86 87 85 86 85
63 63 63 64 65 66 68 68 71 72 67 73 73 76 79 81 84 75 77 84 77 73 75 81 82 81 81 80 81 83 83 83 81 82 83 83 84 85 85 86 85 85 82
61 63 64 63 61 65 62 67 59 54 52 51 49 55 72 65 58 54 53 52 53 54 72 79 80 82 80 77 77 78 80 77 83 84 84 83 83 84 84 85 84 83 82
59 60 62 60 63 63 64 61 60 64 52 51 48 49 47 54 53 49 51 50 50 55 76 79 78 78 77 77 78 81 80 80 80 83 84 84 83 84 81 82 83 83 82
56 51 54 60 62 63 63 63 64 65 65 63 62 57 54 47 46 47 50 49 62 56 77 76 76 76 79 80 81 81 84 79 78 81 83 84 84 83 81 81 82 82 83
55 53 52 54 56 56 57 57 58 60 61 63 67 64 63 47 45 44 48 67 71 75 70 76 79 81 78 79 82 83 82 80 76 77 81 82 83 83 81 83 82 65 71
53 52 51 52 53 53 54 54 55 58 59 60 62 66 68 61 68 65 58 62 72 81 82 79 79 82 79 77 77 77 78 78 75 75 76 76 77 78 76 76 75 74 72
52 53 52 52 51 51 52 53 54 55 55 58 63 68 54 67 69 72 74 66 68 75 81 82 82 81 80 78 77 76 76 77 76 74 75 76 75 74 74 75 73 71 71
51 50 50 50 51 51 52 53 53 53 54 55 58 64 51 64 69 68 72 74 73 73 74 74 74 71 71 71 72 74 74 74 74 74 74 73 72 71 69 69 69 70 75
48 48 48 49 50 49 50 50 50 51 51 52 53 55 58 64 68 67 62 56 53 52 51 54 55 53 53 53 53 55 59 60 59 63 68 69 69 69 69 69 70 74 76
45 45 45 46 46 46 47 47 47 45 46 47 49 52 51 51 50 49 48 47 47 47 46 46 47 48 49 49 49 47 48 51 57 60 61 64 67 67 72 74 74 75 76
43 43 43 43 42 43 44 44 44 45 44 44 45 45 45 44 44 44 43 43 44 43 43 44 43 44 45 45 45 45 39 40 52 49 57 58 57 59 65 71 72 73 72
40 42 42 42 41 41 41 42 41 42 42 42 41 42 42 41 42 42 41 41 40 40 41 42 42 42 41 41 40 37 36 38 45 42 56 54 51 50 52 52 54 57 59

GFSGL_sfc_temp_078.txt.gz
Temp
89 88 88 90 89 88 88 88 88 90 90 90 90 89 89 90 90 88 88 90 88 88 89 88 87 89 92 95 95 94 93 93 88 94 96 97 91 91 93 94 97 97 101
89 86 87 87 89 90 88 89 89 88 90 90 90 87 90 90 90 88 88 91 88 88 88 88 88 92 87 88 92 89 92 91 90 84 91 93 92 92 92 91 96 101 99
89 87 87 87 88 88 89 89 89 88 88 91 90 88 88 90 89 89 89 89 89 89 89 88 88 88 86 90 90 92 93 92 92 90 90 95 95 95 93 93 93 95 101
94 91 85 87 87 86 89 89 89 88 87 88 89 90 90 90 90 90 90 89 90 91 90 90 90 89 88 87 88 88 89 89 90 90 91 93 94 95 94 94 94 98 97
88 91 90 89 87 87 83 87 89 88 88 88 88 89 90 91 94 90 90 90 89 89 90 90 90 87 80 82 91 89 88 88 91 91 91 92 93 94 90 94 93 95 95
81 84 87 88 88 86 85 79 86 87 87 87 87 88 88 93 79 73 83 91 90 89 89 90 90 81 80 72 71 72 78 85 84 88 90 89 87 89 93 92 92 90 87
75 82 82 83 84 84 86 85 84 84 86 85 86 87 87 88 73 70 72 90 91 90 89 90 92 97 84 90 73 69 69 68 70 84 83 85 85 87 87 85 87 87 87
67 68 69 77 80 81 81 82 84 85 85 85 85 86 86 89 71 69 70 87 89 89 91 91 89 90 92 90 90 90 89 88 84 85 84 86 88 89 88 89 87 85 89
67 66 67 68 71 76 80 79 82 81 83 85 86 85 85 86 67 66 70 86 87 87 89 91 91 90 79 69 88 88 89 90 82 71 72 71 68 66 73 89 89 89 90
73 68 68 69 66 68 75 75 78 82 83 86 86 87 80 85 69 63 68 88 87 89 88 88 73 83 71 66 84 86 85 88 91 92 89 79 71 80 66 80 88 87 90
75 74 72 69 67 68 67 72 75 77 80 82 84 85 86 84 84 61 60 84 88 90 91 92 93 68 64 61 63 87 84 88 86 90 92 93 94 94 94 87 87 89 90
73 72 72 72 71 70 70 69 69 74 74 77 77 79 86 86 70 65 59 61 75 87 89 94 92 66 60 60 64 69 63 66 90 92 93 93 94 96 98 97 92 90 93
71 70 71 72 73 74 72 71 69 70 75 76 74 74 77 87 91 63 59 59 60 77 89 84 67 59 56 61 58 61 60 82 85 87 88 91 94 97 95 93 93 91 89
68 69 71 71 71 73 76 78 79 76 74 78 83 74 75 78 82 94 82 73 62 69 72 80 79 72 65 74 78 71 80 85 86 88 89 92 94 94 94 95 93 93 91
69 70 70 73 74 72 73 76 75 75 73 70 70 74 74 76 79 62 63 79 82 76 75 85 85 86 86 87 87 88 89 87 84 87 89 90 91 92 91 93 93 92 89
66 70 72 72 72 74 73 74 63 55 51 50 49 54 71 62 55 54 51 53 54 56 73 83 85 87 88 89 88 89 89 85 90 89 89 90 90 90 90 91 92 90 88
57 63 66 66 71 70 71 72 71 72 57 52 50 48 47 50 48 51 47 48 52 55 78 79 83 87 88 87 84 85 87 89 87 88 90 90 90 91 88 89 90 90 88
56 54 61 65 68 70 70 71 72 71 71 71 63 57 56 46 46 46 46 51 62 57 75 79 83 86 85 83 82 86 87 87 86 85 84 86 90 90 90 89 89 88 88
58 60 62 65 67 65 66 67 68 68 67 69 71 65 63 51 47 45 43 62 68 75 74 79 84 85 84 83 84 86 86 87 87 86 87 87 87 89 88 89 90 72 77
53 54 55 59 62 65 66 65 65 63 62 67 69 70 75 71 75 77 63 65 65 71 79 81 82 85 86 83 83 84 81 80 86 86 84 83 84 81 85 87 88 88 84
51 54 54 58 60 62 61 57 57 60 59 60 63 68 51 65 69 73 76 72 70 72 76 80 81 82 83 84 82 81 79 81 81 80 81 82 80 77 78 78 77 78 77
50 50 50 51 53 54 56 57 56 56 56 57 62 66 50 65 68 70 74 76 77 76 77 74 74 72 71 74 78 80 78 77 77 76 76 78 79 77 75 75 74 74 73
48 47 48 48 49 50 52 55 56 56 56 58 59 59 62 65 65 65 66 68 66 56 54 55 58 60 56 56 56 56 61 67 68 68 74 75 75 74 74 71 70 70 70
44 43 44 45 46 47 48 49 51 49 51 52 54 54 53 55 53 52 50 50 50 49 49 49 49 50 49 50 51 52 53 53 57 60 62 65 67 65 68 68 68 68 68
40 40 41 42 43 43 44 45 46 47 48 48 48 48 48 48 47 46 46 46 45 45 45 45 45 46 46 47 46 47 41 41 52 51 60 61 60 61 60 61 61 66 69
40 39 38 39 40 41 42 42 43 43 43 45 45 45 45 44 44 43 43 43 42 42 42 43 44 44 43 41 40 37 33 36 47 43 58 57 56 55 55 55 56 55 55

GFSGL_sfc_temp_081.txt.gz
Temp
91 91 90 91 91 90 90 90 90 91 91 92 91 91 90 90 91 88 89 85 88 88 88 90 89 89 92 96 97 96 94 94 89 93 97 97 93 93 94 94 95 96 98
93 91 91 90 91 91 89 90 90 89 90 90 91 89 90 90 91 89 89 92 90 88 89 89 89 92 87 88 91 90 91 90 90 84 89 92 91 95 93 92 95 100 100
94 94 91 90 89 90 91 90 90 89 89 91 91 88 89 90 90 90 90 89 90 90 90 90 89 89 88 90 90 91 93 92 91 89 89 94 95 97 94 93 93 94 101
86 94 91 90 90 90 91 91 90 90 89 89 90 91 90 90 91 91 91 87 88 91 91 91 91 90 89 87 88 88 89 88 89 90 90 92 94 95 96 93 94 98 98
82 83 90 90 90 90 89 89 91 90 90 89 89 90 91 92 95 90 91 91 87 90 91 92 92 89 81 83 90 87 87 88 90 90 90 92 93 93 90 93 92 95 94
73 77 76 82 79 89 88 88 87 87 90 90 88 89 89 94 81 75 83 92 91 90 89 90 91 82 81 73 73 73 77 84 85 87 88 87 86 89 93 92 91 89 86
70 70 71 74 76 78 83 85 86 84 87 87 88 89 88 89 75 71 74 92 91 91 89 88 92 97 84 91 74 72 72 70 70 82 83 84 84 87 87 85 85 86 86
69 69 69 70 73 76 76 79 81 84 82 84 87 87 88 90 72 69 70 88 90 90 90 91 90 90 91 90 91 90 87 87 84 84 83 84 86 88 87 88 86 85 88
74 70 69 69 69 72 74 72 76 80 79 80 82 84 84 87 69 67 70 87 88 87 89 90 90 90 80 72 88 88 88 90 81 73 74 74 73 72 75 88 87 88 88
76 76 76 72 70 70 70 72 73 76 79 81 83 81 79 85 71 65 68 88 87 89 88 87 74 82 72 67 85 86 84 87 90 91 86 78 72 79 67 79 86 84 86
76 77 76 76 74 72 70 72 71 73 76 78 80 81 83 82 83 63 61 84 87 89 91 93 94 69 66 64 63 86 84 86 85 89 91 93 93 93 92 88 86 87 87
73 74 74 75 76 78 73 73 74 73 72 74 75 77 79 81 71 68 60 61 76 85 88 94 93 67 62 62 66 71 66 67 89 89 90 92 93 95 98 97 90 88 91
70 70 72 74 75 75 74 75 78 79 72 71 77 75 74 76 80 66 60 59 60 75 88 83 63 60 57 60 58 61 60 82 85 86 86 88 92 96 93 92 92 90 88
68 69 72 73 73 75 79 79 80 81 80 80 76 71 70 75 77 79 71 68 64 68 68 80 78 71 61 68 76 71 80 86 86 86 87 90 93 94 94 96 94 95 94
66 68 71 75 75 76 77 78 78 78 74 75 75 76 76 76 72 58 58 66 63 62 59 74 84 86 85 87 89 89 90 87 84 86 87 89 91 92 92 94 93 93 91
63 66 69 70 73 75 76 76 65 58 57 53 50 59 74 61 55 51 48 50 52 53 61 71 75 79 87 89 89 90 90 85 90 89 88 88 89 90 91 93 93 92 89
57 60 65 65 69 71 72 73 72 74 52 51 50 49 48 51 47 46 44 44 46 52 64 69 74 77 79 80 86 86 86 89 88 88 86 90 89 91 89 90 91 91 89
59 54 60 65 67 68 70 72 73 73 73 75 61 55 54 50 49 46 45 47 64 59 68 68 74 78 77 78 89 87 85 88 90 91 90 91 91 86 86 90 91 89 89
60 60 59 60 59 60 64 68 70 70 70 72 75 67 66 50 49 46 44 62 68 71 75 72 79 81 81 79 79 83 87 88 88 84 89 87 84 86 86 85 90 73 79
60 57 56 56 57 56 60 63 66 69 70 71 71 73 76 72 75 76 77 74 75 74 76 78 76 74 81 79 78 78 80 82 83 80 81 82 81 79 80 82 82 81 86
58 57 54 56 56 55 54 56 59 62 65 68 68 70 51 68 70 72 74 76 76 74 75 79 81 77 76 80 79 77 79 79 84 85 82 81 81 80 79 81 81 81 80
57 55 53 53 52 50 52 53 52 53 55 59 63 66 53 67 69 70 72 75 78 80 76 67 66 68 74 73 69 70 76 79 80 82 83 81 79 79 79 77 79 80 78
56 53 49 48 47 47 49 50 50 51 52 53 55 60 64 67 70 71 73 74 73 69 66 63 61 59 60 62 61 58 58 63 63 63 68 74 76 75 75 75 75 76 75
50 46 43 43 43 44 45 46 47 46 48 50 52 53 54 57 59 58 58 59 58 56 54 53 54 54 55 55 56 56 55 55 55 57 61 63 65 65 69 70 70 69 69
48 45 42 41 39 39 41 43 44 45 45 46 47 49 51 52 52 52 53 52 50 48 48 47 47 47 48 48 49 50 47 37 45 50 60 61 63 64 64 64 65 65 66
48 46 43 41 39 38 38 39 40 42 43 44 44 45 46 46 47 47 47 46 45 45 45 45 45 44 44 43 42 37 33 34 47 39 59 62 61 59 59 58 58 56 57

GFSGL_sfc_temp_084.txt.gz
Temp
87 86 86 86 86 86 86 87 87 89 81 76 72 75 84 85 84 82 82 83 82 81 82 82 81 82 82 83 82 82 82 82 77 80 83 84 83 84 86 86 86 86 86
88 86 86 86 86 86 85 86 86 85 87 86 82 84 84 84 83 82 83 85 81 81 82 82 82 87 82 82 82 80 82 82 80 76 79 80 81 82 85 84 88 94 88
89 90 88 87 87 87 85 86 86 85 85 87 86 84 84 85 85 84 82 83 84 82 84 82 82 83 82 81 81 81 81 83 81 79 78 81 81 83 82 84 84 84 91
76 73 86 87 87 88 87 85 86 86 85 85 85 86 85 85 86 85 84 83 84 84 84 84 84 83 82 81 82 80 82 81 80 79 78 79 80 83 83 81 81 82 82
74 74 72 74 84 87 85 84 85 86 86 85 85 85 86 87 90 85 85 84 82 83 84 83 86 84 80 80 84 81 80 80 80 79 78 79 79 79 79 81 78 80 80
70 70 72 75 75 77 81 84 84 84 85 85 84 84 84 89 80 74 81 85 84 82 82 84 85 81 78 73 73 74 76 79 78 79 79 77 76 78 79 78 77 76 74
68 70 70 72 72 72 75 78 79 80 81 83 84 84 84 84 75 71 71 85 85 82 82 83 85 91 80 85 74 72 73 70 72 77 75 77 77 78 79 78 78 77 78
68 70 70 69 70 72 73 72 73 75 78 78 81 82 82 85 72 71 71 79 82 83 84 83 83 83 84 83 83 82 81 81 79 77 76 78 79 80 80 80 78 78 81
73 72 70 69 68 68 70 69 70 71 72 76 79 80 81 82 70 66 68 77 82 81 83 84 84 83 77 72 81 81 82 83 78 71 72 72 71 71 74 78 77 76 76
72 73 74 74 73 72 70 70 71 71 71 73 76 78 76 80 71 66 67 82 81 83 82 82 73 77 70 68 77 81 79 81 83 84 81 73 69 73 68 75 79 77 77
72 72 73 74 73 74 74 73 72 72 72 74 75 77 78 77 79 64 62 76 82 82 83 84 86 69 66 64 63 81 80 82 81 81 84 85 85 84 82 79 80 80 78
70 70 70 71 74 75 72 72 72 73 73 73 73 75 78 78 68 65 59 58 64 72 77 82 82 61 58 58 63 68 66 67 83 83 83 82 83 84 86 86 83 82 84
66 66 69 70 71 72 71 70 72 73 76 75 76 76 76 76 74 59 59 59 61 66 70 69 61 60 58 61 59 60 59 74 79 79 79 81 82 84 84 82 82 81 81
63 64 66 66 69 71 73 75 75 75 75 75 74 73 74 72 71 68 64 64 62 64 64 64 64 61 61 66 68 76 70 76 78 79 80 82 83 82 83 84 83 84 83
60 62 65 68 67 68 72 73 74 73 72 72 72 72 70 70 69 56 55 63 63 62 58 63 67 74 77 79 81 81 81 78 78 80 81 81 81 82 82 83 83 82 79
58 60 61 63 65 67 68 69 65 57 55 52 51 59 71 61 54 52 47 45 45 48 59 63 64 67 71 72 73 75 77 78 82 81 79 78 77 80 81 82 82 82 80
57 58 60 60 62 64 65 66 65 68 60 56 52 50 49 54 50 48 46 45 43 47 57 63 65 66 69 71 71 71 71 77 79 79 77 78 81 81 79 81 81 82 81
59 56 61 62 61 61 62 62 63 63 64 68 64 52 53 46 47 47 47 45 65 56 64 68 69 70 72 74 74 72 73 77 75 76 76 79 78 76 76 77 78 79 78
59 60 59 59 60 58 59 59 61 62 63 65 68 64 64 50 48 49 45 62 68 70 73 73 75 75 74 74 74 74 76 74 68 72 75 78 78 78 77 77 78 64 67
60 58 57 58 57 57 58 57 57 57 58 60 62 64 69 67 68 68 70 71 71 73 74 74 75 76 74 73 72 73 73 75 75 75 75 75 76 77 77 77 76 75 75
59 59 57 58 56 55 53 53 53 52 55 56 57 60 50 56 61 64 66 67 68 70 71 73 73 74 72 70 70 71 72 73 74 74 74 75 74 74 76 76 76 76 75
58 56 54 52 52 51 51 50 50 50 51 51 54 57 49 57 59 61 64 66 68 70 72 71 67 65 65 63 62 62 62 64 68 68 70 73 74 75 75 74 75 75 75
57 54 52 50 48 47 48 49 48 47 47 48 50 51 53 54 55 58 60 62 63 63 63 62 61 60 63 63 62 59 57 58 59 59 60 64 67 71 73 74 74 74 75
57 54 50 49 45 43 43 43 43 43 44 45 46 47 48 49 51 53 55 57 58 59 59 57 56 55 53 53 55 55 56 56 54 54 56 59 62 63 67 70 71 72 73
57 54 51 48 45 42 41 40 40 41 41 42 43 45 46 47 47 49 51 52 52 53 53 52 50 49 48 48 48 48 46 40 42 43 49 56 59 61 63 65 67 68 68
56 52 51 49 44 41 40 39 38 38 38 38 39 41 43 43 44 45 46 47 47 48 48 47 46 46 45 44 44 40 34 33 38 36 47 54 58 61 61 61 61 59 60

GFSGL_sfc_temp_087.txt.gz
Temp
80 78 77 78 78 76 77 78 77 75 74 73 73 73 75 77 77 76 75 77 77 75 75 75 75 75 76 75 75 75 75 74 71 75 77 78 78 78 80 80 82 82 82
82 81 80 78 79 78 77 78 78 76 74 73 72 71 74 75 77 76 77 79 76 75 76 75 76 81 76 75 75 75 74 73 73 71 73 75 76 79 79 79 84 88 83
70 75 74 77 80 80 79 78 79 78 78 77 75 74 75 78 77 76 77 77 76 76 76 75 76 76 75 74 74 75 75 77 74 72 72 74 76 78 77 79 79 80 84
70 69 70 71 72 77 77 79 79 79 78 78 77 77 78 78 79 78 77 76 77 78 77 77 77 77 76 76 76 74 74 73 73 72 72 73 73 78 76 75 76 76 78
68 68 68 71 72 74 75 76 76 77 79 79 78 78 78 79 82 78 78 77 77 77 77 78 79 78 77 76 78 75 74 72 72 71 71 71 72 73 73 74 73 73 74
67 67 68 70 70 70 72 73 75 76 76 77 77 78 77 83 76 74 77 78 77 77 77 76 78 78 76 73 71 73 76 73 72 71 71 71 71 71 72 72 72 70 69
65 65 67 68 68 69 70 69 68 69 73 74 75 76 76 76 71 71 70 76 77 75 75 76 78 86 77 79 73 71 70 70 72 74 71 71 70 73 72 72 71 71 71
65 66 67 67 67 68 68 68 69 69 69 71 73 74 75 76 68 66 68 71 75 76 77 76 77 80 78 78 77 76 75 78 75 73 74 78 77 79 74 78 75 72 74
67 67 68 68 67 66 66 66 67 68 70 70 71 72 72 74 68 64 65 70 71 75 77 77 77 76 73 69 76 75 76 76 75 69 70 70 70 70 72 72 70 69 72
65 66 67 68 68 65 66 66 67 67 69 71 71 72 70 73 68 62 64 71 72 75 76 76 68 75 69 65 74 77 78 80 78 79 76 69 68 72 67 71 77 71 72
63 64 66 66 66 66 66 65 66 66 66 67 70 70 71 71 68 60 59 67 71 72 73 74 79 62 57 57 57 74 79 78 80 78 80 81 81 78 75 74 75 77 75
59 59 60 64 66 68 64 64 64 63 64 65 67 68 71 67 59 57 57 57 61 66 67 69 69 58 57 55 59 61 60 63 74 78 79 80 80 81 82 79 79 78 81
55 56 57 59 61 64 62 63 62 63 62 64 65 65 67 67 67 57 57 60 60 64 66 64 59 56 55 61 58 59 59 64 67 71 74 78 81 83 83 79 78 76 79
52 53 55 56 57 59 61 65 64 64 62 62 62 61 62 63 62 65 61 62 61 63 64 64 62 59 59 62 62 67 70 74 74 73 74 78 80 79 78 80 79 80 79
51 52 52 55 55 56 60 58 61 62 57 59 63 61 60 61 63 58 54 61 60 58 55 60 62 65 68 71 74 74 74 71 70 73 75 76 77 78 79 81 79 79 76
48 50 51 52 52 54 56 57 56 54 53 52 50 50 62 57 52 49 48 47 44 45 55 57 60 61 63 65 67 70 72 71 73 73 73 71 72 71 74 75 76 78 76
47 49 50 51 53 52 53 53 52 55 53 52 51 50 48 49 48 46 46 47 44 46 52 56 58 61 62 64 65 68 69 71 71 71 72 72 72 72 70 71 71 71 75
48 53 49 49 50 50 50 51 51 52 52 54 55 53 53 49 47 46 45 43 55 48 52 58 61 64 65 67 67 67 70 71 68 69 69 68 68 69 68 69 72 70 69
49 49 48 48 48 49 48 48 50 50 50 51 53 53 54 51 48 48 46 48 55 59 62 64 67 68 68 67 68 69 70 71 70 70 69 68 67 66 66 66 69 65 66
49 55 53 47 47 47 47 46 47 47 47 48 48 50 53 52 52 53 54 56 58 60 61 62 64 66 67 65 66 67 68 68 69 69 70 69 66 66 67 68 72 72 70
47 47 52 45 44 44 44 44 44 44 44 45 46 49 46 48 49 51 52 54 56 59 59 61 61 62 63 62 62 61 61 61 62 64 66 66 69 70 71 71 71 72 72
46 45 44 43 42 42 41 42 42 42 43 43 44 46 45 47 48 49 51 53 55 57 58 58 57 57 57 56 55 55 55 56 57 58 60 61 63 66 69 70 70 70 70
47 46 44 42 41 43 40 40 41 42 42 41 41 42 44 45 47 48 48 50 52 53 55 55 57 56 57 55 53 51 51 53 55 55 54 55 57 60 64 66 69 69 68
47 46 44 42 41 39 39 39 41 41 41 41 41 41 41 41 43 45 47 48 49 50 53 53 53 54 54 52 52 50 50 51 52 52 51 51 52 54 58 62 66 68 69
47 45 43 43 44 38 37 37 39 40 39 40 39 39 39 39 40 42 44 46 46 46 47 50 51 49 49 49 49 48 45 40 42 42 45 46 48 51 55 59 62 64 66
47 46 44 42 40 39 38 36 37 39 38 38 38 37 38 38 38 40 41 43 43 44 46 46 47 48 48 47 45 42 37 35 38 36 39 43 46 49 54 57 60 62 63

GFSGL_sfc_temp_090.txt.gz
Temp
73 73 74 73 74 74 74 74 75 74 73 73 73 75 74 75 75 74 73 74 74 73 73 73 73 73 72 73 73 72 72 71 69 72 74 77 76 76 78 78 79 80 80
71 72 75 74 74 74 75 75 75 74 73 73 73 71 72 73 74 74 74 76 74 74 73 73 73 77 73 73 72 72 72 71 71 69 70 73 74 77 75 76 81 84 80
70 70 71 72 72 75 75 75 75 74 73 73 73 71 70 73 74 74 74 75 74 74 74 73 74 73 72 71 72 72 71 73 71 70 70 71 73 74 76 76 77 77 81
69 68 67 69 70 71 73 74 73 74 74 73 73 73 74 75 76 76 75 72 74 75 75 75 75 75 73 74 73 73 72 71 70 69 69 69 70 73 73 72 73 73 74
68 68 68 70 70 71 72 73 75 74 74 75 75 75 75 76 79 75 75 75 74 74 75 75 76 76 74 73 76 73 72 71 70 69 69 69 70 70 70 72 70 70 70
67 67 67 69 69 70 69 69 70 71 73 73 74 74 74 79 71 70 73 75 75 74 74 75 76 75 74 71 70 70 72 72 70 70 69 69 69 69 70 70 69 68 68
65 65 66 67 68 68 68 69 68 68 69 70 71 73 73 74 69 68 68 71 73 73 73 74 76 82 75 77 73 69 68 68 71 73 71 70 70 70 70 69 68 68 68
65 65 65 66 65 66 66 66 67 68 68 68 70 70 70 73 67 65 67 70 71 73 74 74 74 75 75 76 75 75 75 74 72 72 74 78 75 77 73 77 72 70 71
63 63 64 66 65 66 65 66 66 67 67 68 69 69 70 71 64 62 64 70 70 71 73 74 75 75 70 66 72 73 73 75 73 66 68 68 67 66 68 70 69 68 72
59 60 63 64 64 64 64 65 66 66 66 68 68 70 68 72 58 58 62 68 69 71 72 73 66 70 64 59 69 74 74 77 78 75 74 68 65 69 65 71 75 70 70
57 58 59 60 62 64 63 64 64 64 63 64 66 67 68 65 62 57 58 65 64 66 68 70 70 59 55 55 55 64 68 71 71 73 75 76 76 75 74 71 73 75 73
54 54 55 56 59 62 62 63 63 63 62 65 67 66 67 66 59 57 56 57 60 63 64 65 66 58 53 53 57 60 58 60 65 68 70 73 76 78 80 77 75 75 79
51 51 52 53 56 57 59 61 62 62 62 62 62 62 63 64 64 55 57 59 60 61 64 64 57 54 54 57 59 58 58 63 64 64 68 71 75 79 80 78 75 77 77
48 49 50 50 51 52 57 59 59 57 56 57 59 58 60 62 58 58 60 57 58 59 61 60 61 58 57 58 59 65 66 67 68 70 72 75 77 75 76 79 77 78 76
47 48 47 49 47 49 51 52 55 53 52 53 55 53 55 57 59 51 49 55 54 52 48 54 56 60 62 63 65 67 69 71 70 70 69 70 69 70 75 72 74 75 73
45 46 46 46 46 48 48 49 52 50 49 46 45 47 55 51 47 46 45 46 44 44 50 52 54 55 57 60 61 62 64 66 69 71 70 69 69 70 70 70 70 71 72
44 44 45 46 46 45 45 45 46 50 51 48 47 47 46 45 45 45 45 45 45 45 48 51 52 55 57 59 61 62 63 65 68 68 69 69 69 70 69 70 70 71 70
44 50 44 44 44 44 44 44 45 45 45 46 48 47 46 46 45 44 45 48 53 51 49 52 55 58 60 62 63 64 65 66 68 69 68 68 68 68 67 67 67 66 66
45 44 43 43 43 45 43 43 44 43 43 44 46 46 47 45 44 44 45 48 49 51 54 56 58 59 60 58 59 60 63 65 64 66 66 67 68 68 67 66 66 59 60
45 51 47 41 41 41 41 41 41 41 41 42 43 43 45 44 43 44 46 48 48 50 52 54 56 56 57 57 59 59 60 59 59 59 60 61 63 64 65 66 65 65 66
43 44 48 41 40 39 39 38 38 39 39 39 40 43 43 41 41 43 44 45 46 48 49 51 52 53 55 54 56 55 55 55 55 54 55 56 56 56 58 61 64 67 69
43 43 42 41 40 39 38 38 37 37 38 39 41 43 42 42 41 41 42 44 46 48 49 49 49 51 53 53 52 52 51 52 52 53 52 53 54 54 55 57 59 63 66
43 42 41 40 40 42 38 37 36 36 37 41 42 42 42 41 42 41 41 41 43 44 48 48 47 48 51 53 53 52 50 49 51 51 50 51 52 52 53 53 54 56 60
43 43 41 40 39 38 37 36 35 37 37 38 41 41 40 40 40 40 40 40 41 44 46 46 47 47 48 50 52 52 52 50 50 49 49 47 47 47 50 52 54 56 58
43 41 40 40 40 38 37 36 35 35 36 39 39 39 39 39 39 39 39 40 40 40 42 43 44 45 46 47 48 49 47 40 43 43 45 45 44 44 45 48 50 52 55
43 42 41 39 39 38 36 35 34 34 35 39 38 38 37 37 37 37 38 37 37 37 38 40 41 43 44 45 46 42 36 35 38 36 40 41 40 41 44 46 48 50 53

GFSGL_sfc_temp_093.txt.gz
Temp
71 70 71 71 73 73 72 73 73 73 72 72 73 73 73 73 73 72 72 73 72 72 71 71 71 71 71 71 71 70 70 70 68 70 71 74 75 75 77 77 78 78 78
69 71 71 72 73 72 71 73 74 73 71 71 72 72 72 72 73 73 72 74 72 72 73 71 71 75 71 71 71 70 70 70 70 68 69 71 73 75 75 75 78 82 78
68 69 70 70 71 72 72 73 74 74 72 72 72 71 70 72 72 73 73 72 73 73 73 72 72 71 71 70 70 70 70 72 70 69 68 69 70 71 73 74 75 75 79
69 68 69 69 69 70 71 71 72 73 73 72 72 72 72 72 73 73 74 72 72 73 73 73 73 73 71 71 71 71 71 69 69 68 67 68 68 71 70 70 71 71 73
68 68 68 69 70 70 69 69 70 72 73 72 72 73 73 74 76 73 73 73 72 72 73 73 74 74 72 71 72 72 71 70 69 68 68 67 68 68 68 69 68 69 69
67 67 68 68 68 68 68 68 68 69 70 71 71 71 71 76 72 70 72 73 73 73 72 73 73 73 72 70 69 69 71 71 70 68 68 68 69 68 68 69 68 66 65
65 66 66 67 66 66 67 67 67 67 68 68 70 70 71 71 66 65 68 71 71 71 72 72 74 79 73 75 71 67 68 67 69 72 70 70 69 69 69 68 67 66 66
63 65 65 65 65 65 65 65 66 66 66 67 68 68 68 70 63 63 65 68 70 70 71 72 72 73 73 73 73 72 73 73 71 71 71 75 74 76 72 75 71 68 68
60 61 62 63 63 64 64 64 65 65 64 65 67 68 68 69 59 60 65 69 69 70 70 71 71 71 67 62 69 70 72 73 73 65 66 66 66 65 68 68 68 67 70
57 58 59 60 61 60 62 62 64 63 63 64 66 68 65 66 58 60 64 67 66 67 68 69 61 62 58 56 64 65 66 70 71 71 72 71 64 68 64 69 73 68 70
56 56 56 57 59 60 61 62 63 63 62 64 66 66 66 64 64 56 58 63 62 62 63 65 66 60 59 57 55 61 65 67 68 69 70 72 73 72 73 69 71 72 71
52 52 52 53 56 58 57 58 61 61 61 61 62 65 61 62 58 57 55 56 59 60 61 62 62 55 53 53 55 57 55 57 64 65 68 69 71 73 76 76 74 73 76
49 49 50 51 52 52 52 53 55 55 56 57 58 57 58 61 58 54 54 55 57 58 60 59 57 55 55 58 59 58 57 62 62 64 66 68 72 74 75 74 76 74 74
47 46 47 47 47 48 51 52 51 50 51 53 53 53 55 57 54 53 53 53 54 53 55 53 56 56 56 57 58 61 62 64 65 66 69 70 73 73 72 69 73 70 71
45 46 45 45 44 45 47 47 49 48 48 47 47 49 51 50 50 47 45 49 48 47 45 51 53 55 58 60 60 60 62 62 62 64 67 68 68 69 70 70 70 71 69
43 44 44 43 43 44 44 44 48 48 47 45 44 45 48 48 45 44 43 44 44 44 49 49 51 51 52 54 57 59 61 62 63 65 66 67 68 69 69 70 69 69 68
42 42 42 43 42 41 41 41 40 43 48 46 44 45 44 44 43 43 42 43 45 47 48 49 49 51 53 54 56 58 60 63 64 65 66 67 68 68 67 68 69 70 69
42 47 40 40 40 39 40 39 40 39 39 41 44 44 43 42 42 42 43 45 46 48 46 49 50 53 54 55 55 55 56 59 61 61 62 63 63 63 65 67 68 67 67
41 40 39 39 39 40 38 38 38 38 37 38 40 42 43 42 42 42 43 41 42 44 46 47 49 51 52 53 53 53 53 56 57 57 59 58 57 57 58 59 59 57 59
43 48 43 39 38 38 37 37 36 36 36 36 37 37 40 40 39 39 41 42 42 43 44 44 46 47 48 49 48 50 52 54 55 55 56 56 55 55 55 55 55 55 58
42 43 46 39 38 38 37 36 36 35 35 35 35 39 43 39 38 39 39 39 40 40 41 43 44 45 46 46 46 46 49 51 53 53 52 53 52 51 52 54 54 54 55
41 41 40 40 39 39 37 36 35 35 35 35 36 38 41 38 39 40 40 42 42 42 41 41 42 43 45 46 46 46 46 49 52 52 51 51 51 50 51 52 53 53 53
41 41 40 39 39 41 38 37 35 35 34 35 35 37 39 38 38 38 39 41 41 42 42 42 41 41 43 45 47 46 45 45 49 50 50 50 49 49 49 48 49 49 50
42 41 40 39 38 37 37 36 36 37 35 35 35 36 35 39 40 39 39 39 40 41 41 41 40 40 41 42 44 45 46 47 47 47 48 47 47 46 47 46 46 48 50
43 41 39 39 38 38 37 36 35 35 34 34 34 36 39 40 39 39 39 39 39 38 38 38 38 39 40 40 41 41 42 38 39 40 43 44 44 44 44 44 44 44 45
44 42 41 39 37 37 36 35 35 34 34 34 34 36 38 38 38 37 37 37 37 37 37 37 38 38 38 39 39 38 36 35 37 36 38 39 39 40 41 41 42 42 43

GFSGL_sfc_temp_096.txt.gz
Temp
72 71 72 73 74 74 74 74 75 75 74 73 74 74 74 75 76 75 75 75 75 75 76 75 76 76 76 76 77 76 76 75 75 77 77 80 79 80 82 83 83 84 84
72 72 71 72 73 73 72 74 75 75 74 72 74 74 75 75 75 75 75 76 73 75 76 75 74 78 76 75 76 75 75 76 75 73 75 77 78 80 79 78 83 87 84
70 70 71 71 72 72 73 74 75 75 74 74 73 73 72 74 74 75 75 75 75 75 74 75 74 75 75 76 75 76 76 77 75 74 75 76 77 78 79 80 80 80 84
69 69 69 69 70 70 71 72 73 74 75 74 73 74 73 74 74 74 75 75 75 76 75 75 75 75 74 75 75 74 76 75 74 74 74 74 75 78 77 76 78 80 80
68 68 68 69 69 70 69 69 70 71 72 73 74 74 75 75 77 75 76 76 76 76 77 76 77 75 72 72 76 76 75 75 75 74 73 73 75 76 76 78 75 77 79
68 68 68 68 68 67 69 69 69 69 70 70 72 72 72 74 68 68 73 76 76 76 76 77 77 74 74 69 68 68 72 75 75 74 75 74 75 75 76 76 75 75 74
66 66 67 66 66 66 67 67 67 67 68 69 70 70 70 71 63 64 66 72 74 75 75 75 77 81 75 77 71 68 68 66 69 77 75 76 75 78 76 75 75 74 75
61 63 64 66 65 65 65 65 65 65 66 67 68 69 70 68 60 61 65 71 72 72 73 73 73 74 69 69 73 76 77 78 77 75 74 77 78 78 77 78 76 74 75
60 58 61 63 62 63 64 64 64 63 63 63 66 69 66 63 59 61 66 70 69 70 71 69 69 66 61 60 70 70 71 74 73 66 64 64 64 63 67 75 75 73 75
57 58 58 59 60 60 62 63 63 62 63 64 66 66 62 63 56 57 61 63 63 65 68 68 62 62 59 59 64 64 66 70 72 73 74 73 70 73 65 71 76 74 76
58 57 56 57 58 58 59 60 61 62 62 62 61 59 58 56 54 54 55 59 60 63 64 64 66 56 55 55 54 63 65 66 66 68 71 73 75 77 78 77 75 76 76
54 54 54 54 57 58 56 56 56 58 58 58 58 60 59 58 54 54 54 54 56 60 61 61 62 54 52 52 57 57 54 56 65 67 70 72 73 75 77 79 78 76 78
51 50 51 52 53 54 54 53 54 54 55 55 56 56 57 56 55 53 53 53 55 55 58 56 54 53 54 59 59 57 58 65 66 68 68 69 72 75 76 76 77 77 77
49 49 49 50 50 51 53 53 52 52 51 52 52 52 53 52 51 51 52 53 55 55 54 56 57 57 55 58 62 64 66 66 66 67 68 70 73 73 73 73 74 74 75
48 48 48 48 49 49 50 50 51 49 50 49 48 50 49 47 47 45 45 48 49 49 48 56 57 59 60 61 62 64 65 66 65 66 65 65 66 68 70 72 73 72 70
47 47 47 47 47 47 48 48 47 47 45 44 43 46 48 45 43 42 42 42 43 44 52 51 53 54 56 58 59 60 62 62 64 64 65 65 65 65 63 66 68 68 68
45 46 47 46 46 45 45 46 45 47 46 44 43 43 42 41 41 41 41 42 45 47 49 50 49 51 53 55 56 57 56 59 58 59 62 61 60 60 59 60 61 61 61
46 46 45 45 45 44 44 44 45 44 43 43 44 43 42 41 41 41 41 44 47 48 48 48 49 50 50 50 51 53 53 54 54 56 58 59 60 59 59 58 57 57 58
45 44 44 44 44 44 44 44 44 43 43 42 43 43 43 41 41 41 41 45 44 45 46 46 48 48 48 49 49 50 50 50 51 55 57 57 58 57 56 56 56 53 53
46 47 45 44 44 44 44 44 43 43 42 42 42 42 44 44 43 43 44 44 43 43 43 43 44 45 46 47 48 48 47 48 49 51 52 54 54 53 52 54 54 54 54
47 49 46 44 44 44 44 43 43 43 42 42 42 43 41 43 42 42 43 43 43 43 43 43 42 43 44 45 46 46 47 47 47 47 48 49 52 51 51 52 51 51 51
47 47 45 45 44 44 44 43 43 43 43 42 42 43 40 43 42 42 42 43 43 44 44 43 42 43 42 42 43 43 43 45 45 45 47 49 50 50 51 50 50 49 50
47 46 45 45 45 45 45 44 43 43 43 43 43 43 43 42 42 42 42 42 42 42 43 43 42 42 42 42 43 43 41 41 43 43 43 43 43 44 45 46 47 48 47
47 46 46 45 44 45 44 44 44 41 43 43 43 43 42 42 43 42 42 42 42 41 42 41 41 41 40 41 41 43 43 43 42 41 41 40 39 39 40 43 46 46 46
48 47 46 45 44 45 44 44 44 44 43 43 43 42 43 43 42 43 43 42 41 40 40 40 40 40 39 38 38 39 38 36 37 37 37 38 38 38 39 41 42 43 44
49 48 47 46 44 43 43 43 43 43 42 43 43 43 42 42 42 42 42 42 40 39 39 39 38 38 38 38 38 37 34 33 35 34 35 35 35 35 36 37 39 39 41

GFSGL_sfc_temp_099.txt.gz
Temp
81 81 81 83 84 83 82 82 83 83 82 82 82 82 82 83 83 82 82 83 82 82 83 83 83 84 88 88 88 87 86 86 83 89 89 90 86 88 90 91 93 93 95
81 77 82 82 82 82 82 83 83 82 83 82 82 82 83 82 83 83 83 84 82 82 83 82 82 86 83 84 86 83 85 85 84 80 86 88 86 87 87 86 91 96 93
76 78 79 81 80 82 82 83 82 82 82 84 82 82 82 82 82 83 82 84 84 83 84 82 84 82 81 85 84 81 87 86 85 83 84 88 87 89 87 89 88 88 95
73 73 74 76 78 79 80 79 81 82 81 82 82 82 82 80 82 83 83 83 83 84 85 85 84 83 82 82 84 82 85 82 84 84 86 86 87 88 87 87 88 92 91
69 69 69 72 73 77 77 77 76 79 80 81 81 82 82 84 85 83 83 83 83 84 85 85 86 81 74 75 80 81 83 82 81 84 85 86 86 87 85 88 87 89 90
68 68 70 69 71 74 75 75 76 76 78 79 79 78 77 79 63 65 72 82 84 83 83 84 86 77 78 67 67 68 72 78 79 82 84 84 81 84 87 86 85 84 82
69 69 69 68 68 69 73 73 73 75 76 76 77 78 73 69 61 62 66 79 80 82 81 81 82 85 76 80 76 69 69 66 68 78 79 82 81 84 83 81 82 83 83
64 65 66 66 66 67 70 72 72 74 74 75 76 71 70 68 59 61 65 78 78 76 74 73 72 68 67 69 77 81 83 83 83 85 82 82 83 84 82 83 81 80 84
62 62 65 69 66 67 66 68 70 71 73 74 70 70 67 64 57 58 68 70 71 69 70 68 69 68 61 61 71 73 76 80 75 67 65 64 64 63 67 80 82 81 83
63 63 64 66 69 64 68 67 70 70 68 66 64 63 58 61 55 55 62 71 69 66 71 70 59 63 56 56 70 72 73 75 76 77 79 78 75 79 65 77 82 80 81
65 65 64 66 66 66 65 65 66 65 63 61 61 59 58 54 53 53 54 62 61 69 68 72 70 56 54 53 53 72 69 66 72 77 80 83 84 85 87 86 84 81 81
63 63 63 63 67 65 64 64 62 64 62 64 63 64 61 57 53 53 52 53 55 62 62 64 63 53 52 53 63 55 55 60 79 79 80 80 81 82 84 84 82 82 82
61 61 61 61 62 62 63 62 65 63 63 60 61 62 59 59 58 53 53 54 55 62 66 60 55 55 57 64 59 58 61 76 76 76 74 76 76 75 75 77 78 81 82
59 59 61 61 60 62 64 64 63 63 63 63 60 57 56 56 55 57 57 58 57 60 58 66 61 59 58 63 69 71 74 73 72 73 73 69 71 73 77 76 72 72 77
59 60 60 61 60 58 58 59 58 55 56 59 58 58 58 55 51 46 45 53 58 55 56 64 63 64 67 68 69 70 71 71 70 66 64 67 73 71 70 72 72 68 67
59 60 61 61 61 60 58 54 46 46 44 43 43 49 53 45 43 42 41 42 44 46 59 60 58 59 60 59 62 63 65 64 65 65 68 68 69 68 68 71 73 69 65
58 57 58 59 60 58 59 58 54 49 45 43 42 42 42 41 41 40 40 42 45 52 57 55 54 55 55 56 57 59 59 61 60 63 63 65 67 68 67 68 69 67 66
58 51 59 59 59 58 58 58 59 58 56 55 45 45 42 41 41 40 41 47 58 57 58 57 56 57 57 56 56 56 56 58 57 57 59 61 63 63 62 60 58 58 59
58 59 58 58 58 56 57 57 58 57 56 56 56 50 48 42 41 42 45 56 55 55 55 55 55 55 55 55 55 56 56 56 55 56 58 58 59 60 61 62 61 53 53
57 54 56 58 56 57 57 57 56 56 56 56 55 54 55 55 55 54 54 54 54 54 54 53 53 53 52 52 52 53 54 55 55 56 55 55 56 57 56 55 56 55 55
59 57 55 58 58 57 57 57 57 57 56 56 55 49 40 54 54 53 53 53 53 53 52 52 51 51 51 50 50 51 52 52 52 52 52 53 54 53 51 50 51 52 54
59 58 57 57 57 56 57 57 57 57 56 56 56 52 41 56 55 54 53 53 52 52 52 50 50 51 51 49 47 46 45 46 46 47 46 47 47 48 49 48 49 50 50
60 59 58 58 57 54 54 57 57 57 57 57 57 57 57 57 57 56 54 54 54 52 52 50 48 49 50 46 45 44 43 43 42 42 40 40 41 41 42 43 45 46 45
60 59 58 58 57 57 57 56 56 50 56 56 56 56 56 56 57 54 55 55 54 53 51 47 45 45 45 43 43 44 44 43 42 41 41 39 37 38 39 39 40 40 42
61 59 58 57 57 56 57 57 57 57 56 56 56 56 56 55 55 55 56 55 54 52 51 48 46 44 43 42 42 43 41 36 39 37 39 39 38 38 38 39 39 39 39
61 60 60 59 58 58 57 57 57 57 57 57 57 56 56 55 56 55 55 54 53 52 50 48 45 43 42 42 43 39 34 33 37 34 37 37 36 36 38 38 38 38 37

GFSGL_sfc_temp_102.txt.gz
Temp
89 89 88 89 89 88 89 89 89 88 87 88 87 88 88 87 88 87 87 89 87 87 88 88 87 88 92 95 95 94 93 93 88 93 96 97 91 91 93 94 97 97 100
89 88 85 89 89 90 88 89 89 88 88 88 88 86 88 89 87 87 88 90 87 86 87 87 87 91 87 88 92 88 90 90 89 84 90 93 92 92 92 90 96 101 99
86 87 83 86 88 88 88 89 88 88 88 90 87 88 88 88 86 87 88 88 89 88 88 87 87 88 86 88 87 90 92 92 91 90 88 94 95 95 93 93 93 94 101
81 83 86 86 88 88 88 87 88 87 86 88 89 88 89 89 88 87 88 88 88 89 89 89 89 88 87 86 88 86 88 88 89 89 90 92 94 95 94 94 94 97 96
76 74 77 80 82 84 85 86 86 87 87 86 88 88 88 90 92 88 88 87 88 88 88 90 91 85 74 76 84 84 85 86 90 90 89 91 93 89 88 93 92 94 94
70 69 70 70 74 78 79 82 83 84 85 85 85 86 87 91 63 64 73 88 88 87 87 88 90 80 79 69 69 68 74 79 82 84 87 87 85 87 92 91 90 89 86
70 70 69 70 71 71 74 78 80 81 83 82 84 82 78 77 61 63 66 84 86 87 86 87 88 87 79 84 77 72 70 67 68 80 81 83 83 84 83 82 83 85 86
71 71 73 71 69 68 69 70 73 77 80 82 78 78 76 71 59 62 67 83 77 75 76 75 75 75 72 72 82 84 86 86 82 85 84 83 84 83 81 82 81 82 87
66 68 70 68 67 66 66 69 71 74 78 76 77 74 72 67 56 57 72 77 76 74 75 76 78 77 59 59 79 79 80 83 78 68 68 66 65 64 69 83 85 79 84
65 65 68 70 72 73 74 71 70 73 68 70 72 69 62 63 54 55 67 83 77 79 78 75 59 63 56 56 76 78 77 78 79 81 84 81 74 82 66 81 85 75 75
67 71 70 69 70 72 72 73 68 64 63 66 65 58 58 57 59 53 54 72 78 79 79 79 76 57 54 54 55 74 72 70 77 84 87 89 89 90 91 89 86 85 83
69 70 70 72 74 73 70 70 67 66 65 65 65 67 65 63 54 54 53 54 58 64 65 66 68 54 53 56 66 57 57 61 85 85 85 84 84 84 85 85 83 83 84
69 68 69 70 70 70 70 66 66 70 71 71 72 71 66 69 66 55 54 56 57 61 63 57 56 55 56 60 60 60 61 80 80 81 81 81 78 81 80 83 81 81 83
67 67 68 68 68 71 74 74 74 74 74 72 71 71 70 64 62 58 63 67 61 66 64 72 65 61 59 65 73 74 78 76 76 76 75 76 80 82 81 82 80 82 80
68 68 68 70 69 66 63 64 65 57 56 71 70 70 70 69 58 48 49 57 59 56 57 70 70 69 69 71 73 72 73 72 72 72 73 74 76 77 77 79 77 79 77
68 71 72 71 70 68 64 59 45 45 44 42 42 52 57 46 43 42 41 43 45 46 66 67 62 64 63 65 62 63 66 66 67 68 69 70 72 73 73 74 76 75 73
68 67 72 68 71 68 67 65 59 50 44 43 42 42 43 42 42 41 41 43 46 52 69 68 67 65 64 65 66 65 63 62 60 62 64 66 67 68 68 70 70 70 69
67 52 68 70 70 69 68 68 68 64 63 58 45 48 42 42 42 42 43 46 66 65 68 65 65 65 64 64 64 64 65 65 64 64 64 63 62 62 62 64 66 65 66
63 63 66 68 68 67 68 68 70 68 67 65 61 49 48 43 43 45 46 66 66 65 65 64 63 63 62 62 62 62 61 62 61 62 64 63 63 63 62 63 62 55 56
61 59 61 67 65 66 67 67 67 66 66 65 66 66 67 58 64 65 64 64 64 64 63 63 62 61 60 59 59 59 60 61 60 60 60 60 60 60 60 60 61 60 60
63 61 60 66 66 67 67 66 67 67 66 66 64 55 40 64 65 65 65 63 63 63 61 61 61 60 60 59 58 57 58 57 58 57 57 56 56 55 56 57 57 57 57
66 64 63 64 66 65 66 66 66 66 66 65 64 56 45 63 66 65 63 63 63 62 62 60 60 60 60 58 56 55 54 54 55 53 51 50 50 51 52 52 52 53 53
68 67 66 65 65 60 63 65 66 66 65 66 67 65 64 66 66 66 64 65 64 65 64 63 61 60 60 57 56 54 52 51 48 47 44 43 43 44 45 45 46 45 46
68 67 66 66 64 65 65 64 65 56 64 65 64 64 65 65 65 62 64 65 65 65 64 62 61 57 57 55 55 53 53 49 46 44 43 41 40 40 41 41 42 43 44
64 67 66 65 64 63 65 65 65 65 64 64 64 64 64 64 63 63 64 64 64 63 61 60 60 57 55 52 51 50 43 36 41 39 42 44 43 44 44 44 44 43 42
58 61 67 67 65 64 64 64 64 64 64 65 65 64 64 63 63 63 63 63 62 62 60 61 59 54 52 54 53 42 35 34 41 34 41 42 43 44 44 43 42 42 42

GFSGL_sfc_temp_105.txt.gz
Temp
91 91 91 91 92 91 90 90 90 89 88 90 88 88 88 90 90 87 87 86 88 88 89 89 88 89 91 93 94 95 94 94 89 93 94 95 92 93 94 95 95 95 98
85 90 89 91 92 92 90 91 91 88 88 88 89 89 89 89 88 87 87 92 89 88 88 88 88 92 89 89 92 90 91 89 89 84 88 92 91 95 95 92 96 101 99
90 91 88 89 90 90 91 91 90 89 89 90 89 88 88 90 89 88 88 90 90 90 90 89 88 88 87 89 87 88 91 91 82 88 87 93 95 94 94 93 93 94 101
78 81 82 87 90 90 87 90 91 89 88 89 89 89 90 90 90 90 89 88 89 91 90 85 88 88 88 87 88 86 89 86 88 87 79 88 92 86 90 92 93 97 96
74 76 76 82 87 87 87 87 90 90 89 88 88 87 90 92 91 85 89 88 88 89 91 91 90 82 77 76 86 86 85 85 88 86 86 90 86 88 87 92 92 93 92
74 76 76 79 81 81 83 85 84 86 88 88 87 87 87 90 64 64 71 88 87 86 86 90 91 86 79 72 71 71 74 81 81 83 84 85 83 85 88 87 86 85 82
73 73 74 75 75 73 74 79 79 81 83 83 83 83 81 78 60 62 67 83 86 85 86 86 86 84 82 85 74 71 70 68 69 79 80 80 79 81 81 79 80 79 82
77 76 75 71 71 73 72 70 72 74 79 78 79 78 77 72 58 59 64 82 83 81 82 81 81 81 70 71 78 85 86 85 82 84 82 82 82 81 79 82 80 81 84
75 76 76 76 72 68 68 70 72 72 73 72 74 76 73 69 55 57 65 81 78 78 78 75 80 76 59 60 78 80 81 83 78 70 71 68 67 65 69 81 84 76 76
67 70 71 73 68 68 68 67 71 70 68 69 70 71 62 68 54 55 61 85 80 80 77 72 59 65 57 57 74 77 76 78 79 82 84 81 70 77 67 78 82 78 76
65 68 69 70 69 70 72 73 70 69 68 68 69 66 64 62 58 54 55 69 72 82 82 81 76 58 55 55 56 74 71 69 73 81 87 89 88 86 85 84 84 83 81
64 67 68 69 70 71 71 67 66 66 66 66 66 69 69 66 56 55 54 55 59 75 71 71 69 55 54 55 63 59 58 61 82 84 85 84 82 81 83 83 80 81 83
63 66 68 72 73 73 71 69 67 66 67 68 72 73 71 70 68 57 56 58 59 69 70 63 58 56 56 58 59 62 61 79 78 74 77 78 79 82 82 82 82 80 81
63 65 69 70 72 74 76 74 74 76 76 76 75 74 72 70 70 68 69 71 63 66 63 67 66 62 60 65 71 74 76 75 74 73 74 77 78 79 79 80 78 79 79
65 67 68 70 73 66 61 56 68 56 53 63 75 75 70 72 60 49 49 63 66 60 58 71 67 67 68 68 67 68 70 70 68 70 70 71 73 74 75 76 75 76 73
64 66 67 74 73 72 68 61 45 45 44 43 43 54 59 47 45 43 42 43 44 47 66 71 69 69 68 66 65 64 66 63 62 63 64 66 66 68 68 70 72 72 70
63 63 68 67 75 72 70 68 63 51 45 43 42 43 44 43 43 43 43 43 46 49 72 71 70 69 69 69 69 68 66 67 65 67 65 65 67 65 63 63 64 65 65
63 56 68 71 74 74 73 72 71 67 66 63 46 50 43 44 44 44 44 47 67 66 72 69 68 68 67 67 66 67 67 67 66 66 65 65 64 63 64 63 64 63 62
67 72 70 73 73 69 73 73 73 72 72 68 61 50 49 45 45 44 45 68 71 70 70 68 68 68 66 65 64 64 64 63 63 63 63 63 63 62 61 61 61 55 56
65 60 62 69 69 68 71 69 70 71 70 70 69 70 65 58 64 67 69 69 70 69 68 67 66 65 64 63 62 62 63 62 62 62 61 60 59 58 58 58 58 57 58
65 64 60 65 66 68 69 67 68 69 66 67 69 60 42 61 70 70 68 67 69 67 65 65 64 64 64 62 61 61 61 61 60 59 57 56 56 54 55 56 56 56 56
66 65 62 63 65 64 66 67 67 66 66 65 67 61 46 60 69 68 67 67 66 66 66 64 65 64 63 61 60 60 59 58 58 56 54 53 53 53 53 52 52 52 52
70 67 65 65 64 62 63 66 66 67 67 67 67 65 64 67 68 67 66 67 66 67 66 66 65 66 65 63 62 60 58 57 55 53 51 50 50 50 49 46 45 46 47
71 70 67 67 66 67 66 65 66 59 65 67 66 66 66 67 67 66 67 67 66 66 66 65 65 63 62 62 63 63 61 57 53 52 49 47 45 45 45 45 45 46 45
69 70 69 66 67 66 66 67 68 68 67 66 67 67 67 66 66 66 66 66 65 65 64 65 64 63 60 59 58 56 41 37 46 40 48 47 46 45 46 46 46 45 44
69 67 68 65 64 64 67 67 67 68 67 67 67 68 67 67 67 67 66 66 65 65 64 65 64 61 59 59 58 43 37 36 43 34 44 47 46 45 45 43 42 42 41

GFSGL_sfc_temp_108.txt.gz
Temp
87 85 85 85 86 86 85 83 76 76 77 76 78 87 87 84 83 85 82 82 83 84 84 82 83 84 82 82 82 82 81 81 76 79 81 83 82 84 87 86 87 85 85
87 86 86 86 86 86 86 84 87 84 84 84 83 83 85 86 86 83 82 82 80 82 84 84 83 87 82 83 82 79 79 81 78 75 79 81 80 83 85 84 88 95 87
81 79 80 86 87 87 84 86 86 85 84 86 85 82 83 83 81 84 83 82 83 83 85 85 83 84 81 80 81 81 81 82 80 78 77 80 80 81 80 85 83 85 91
77 79 74 81 85 86 83 85 86 85 83 85 83 81 82 83 82 85 85 83 83 84 84 84 82 82 82 81 81 79 80 79 79 78 78 79 79 79 73 78 79 81 83
78 77 74 77 82 80 82 84 84 84 83 83 85 83 84 76 72 71 80 84 82 81 83 82 84 79 75 74 80 79 78 78 77 78 77 78 78 79 77 80 79 80 81
76 76 77 76 76 75 77 81 82 81 83 84 82 83 82 70 63 64 68 80 82 82 80 81 80 79 75 73 72 71 72 76 76 76 77 76 76 77 78 77 76 76 74
76 76 77 78 77 74 75 78 75 77 79 80 80 78 72 67 60 61 65 75 79 81 81 81 81 74 70 73 75 72 70 69 68 74 74 74 74 76 75 74 74 74 75
76 77 76 74 74 73 73 76 75 72 72 72 72 72 72 64 58 59 63 73 78 79 77 77 74 67 63 66 72 79 79 80 77 79 77 76 76 76 74 75 74 74 77
76 75 76 75 73 71 69 71 71 70 70 68 68 67 68 61 56 57 63 79 75 69 68 66 70 67 60 60 74 73 74 74 77 71 71 68 67 66 66 71 74 74 74
74 73 74 74 73 72 71 68 71 70 67 65 63 63 63 62 56 56 62 72 73 69 69 65 60 61 58 58 68 70 67 69 68 70 74 75 73 73 65 74 75 72 72
65 68 70 72 72 70 69 71 69 68 67 65 63 61 61 59 58 55 56 64 65 69 71 69 66 58 56 56 57 68 66 63 67 70 74 77 78 77 76 74 75 73 71
63 64 65 68 70 68 66 64 67 66 65 64 63 66 65 63 57 56 56 56 60 69 67 67 66 56 54 56 60 58 58 61 70 71 71 71 71 73 74 74 74 73 72
61 62 64 67 68 69 66 66 65 65 64 64 66 68 67 67 65 58 58 58 59 66 65 61 58 55 56 60 61 60 63 69 68 67 66 67 68 69 70 70 71 69 70
60 62 62 62 62 61 64 67 66 61 64 67 70 70 70 67 66 63 64 65 62 65 64 65 63 62 60 63 64 65 65 63 63 63 63 65 66 67 67 67 65 67 65
61 63 62 63 63 55 54 55 58 50 49 58 57 59 63 64 54 49 49 55 56 53 52 65 64 64 63 61 61 61 61 60 59 59 59 61 61 62 61 63 63 63 62
60 62 61 62 62 63 62 56 46 46 44 43 44 54 52 48 46 44 43 43 44 45 59 65 63 64 63 63 62 62 61 61 60 61 60 60 59 59 58 60 60 59 58
62 61 63 62 65 62 63 61 60 50 45 44 43 44 43 45 44 43 43 44 46 49 59 65 64 63 63 63 63 62 61 60 61 61 60 60 59 59 59 58 58 58 56
60 58 60 63 69 65 64 63 64 62 60 57 48 49 45 45 45 44 44 47 62 55 65 64 63 62 62 61 61 60 61 59 59 59 59 59 58 57 56 56 56 55 54
60 61 63 69 63 60 62 63 68 66 67 60 56 49 48 46 46 45 45 57 62 67 66 64 63 63 61 60 59 59 59 58 58 58 57 57 56 55 54 54 54 52 52
64 61 61 63 63 62 65 63 67 64 65 63 61 63 60 56 59 61 63 65 67 66 65 63 62 61 60 60 59 59 59 58 57 57 55 54 53 53 52 52 52 51 51
62 63 61 62 65 63 65 62 65 63 63 65 61 53 43 60 60 65 65 63 65 64 62 62 61 61 60 59 58 59 58 58 56 54 53 52 52 51 51 51 51 50 49
65 65 63 61 63 63 63 61 65 62 65 66 62 56 49 60 60 65 63 64 62 61 61 61 61 61 60 58 58 58 57 56 54 52 51 51 50 50 49 48 47 46 46
65 67 66 63 63 61 62 62 62 61 62 64 65 61 60 59 61 65 64 64 62 62 61 61 61 62 61 60 59 58 57 54 53 51 50 49 48 47 46 46 46 45 46
69 68 66 65 63 65 65 64 64 59 63 64 63 61 60 61 63 63 63 63 63 62 60 59 60 60 58 59 59 59 57 52 52 51 50 47 46 46 46 45 45 46 46
68 68 64 65 66 65 65 65 65 65 65 64 65 63 63 63 61 60 61 60 60 59 59 60 60 60 59 58 58 56 41 39 47 38 48 48 47 46 47 45 45 44 43
68 66 66 66 65 65 65 63 62 65 65 65 65 64 64 63 62 63 62 62 61 61 61 60 60 61 60 59 58 44 34 36 43 34 43 45 46 46 46 44 43 42 41

GFSGL_sfc_temp_111.txt.gz
Temp
77 79 77 76 77 73 73 71 71 71 71 71 72 73 78 78 78 77 76 77 78 76 76 76 76 76 75 75 75 75 76 76 70 73 75 78 78 79 81 81 82 82 83
77 79 75 77 77 77 76 74 73 71 72 72 73 75 77 77 77 74 76 77 76 75 76 76 76 81 75 74 74 73 74 74 72 69 72 75 76 78 78 77 83 89 82
80 79 79 80 80 78 78 78 75 74 74 76 76 75 76 77 77 77 76 76 76 76 78 77 77 76 74 74 74 73 73 73 73 71 70 75 75 74 73 77 78 78 85
75 75 74 73 78 79 79 81 79 78 76 75 75 76 75 75 72 75 77 76 76 78 79 78 77 79 74 74 74 73 73 72 72 71 70 70 72 74 72 71 74 78 78
71 72 73 75 74 76 77 77 80 76 77 76 75 75 69 69 68 66 69 73 75 76 76 75 76 75 74 73 74 72 72 71 71 70 70 70 69 70 70 71 71 72 77
70 70 72 72 74 73 73 73 73 73 73 75 75 73 66 67 63 65 66 69 74 75 73 73 70 68 69 69 70 70 69 70 69 69 69 69 69 70 71 70 70 68 67
69 70 70 73 73 73 73 73 73 72 72 71 70 65 59 58 60 61 65 67 71 73 72 71 68 68 65 67 69 71 72 68 68 69 68 69 69 70 68 66 67 67 68
70 72 72 70 70 69 70 70 71 71 71 69 68 66 61 61 58 59 62 67 67 65 66 64 62 61 61 63 68 70 70 70 68 71 67 68 69 69 68 68 68 69 71
70 70 70 69 68 68 67 68 69 69 67 65 65 64 62 60 57 58 63 68 65 62 61 64 63 61 60 61 67 66 66 67 70 67 66 65 64 63 66 69 69 66 65
70 70 70 69 68 67 66 66 67 65 63 62 61 64 61 60 57 57 63 68 64 62 62 61 60 60 57 58 63 62 61 62 62 66 69 73 71 66 68 69 68 64 63
66 69 69 69 69 67 66 66 66 65 63 62 61 60 60 60 59 56 57 62 62 65 63 61 60 57 56 56 58 61 60 59 63 65 67 67 69 69 71 72 67 65 62
63 64 65 67 68 66 65 66 63 65 62 61 61 61 60 59 57 56 56 57 62 66 64 64 62 55 54 55 58 57 59 62 64 66 64 62 63 64 65 65 64 64 64
61 61 63 61 64 66 64 64 64 64 64 63 64 63 60 58 57 57 57 58 59 60 61 60 57 56 56 58 58 58 59 59 57 57 55 57 58 59 61 62 64 64 62
59 60 59 54 54 57 60 58 58 57 60 62 63 63 58 57 55 55 55 56 58 57 57 61 59 58 58 57 56 56 56 55 55 55 53 56 57 60 60 59 56 60 57
59 60 59 55 51 51 48 48 52 47 48 54 57 56 58 54 49 47 47 49 47 47 49 54 56 55 54 54 54 55 54 54 53 53 54 54 54 57 55 55 55 53 53
58 60 58 59 57 53 50 46 46 46 45 44 44 50 48 47 46 44 43 43 44 46 50 53 54 53 53 53 53 53 53 54 53 54 52 52 51 51 52 52 52 51 50
58 55 58 57 59 57 57 55 51 47 46 44 43 44 45 46 45 43 43 43 46 48 50 53 54 53 52 52 52 51 50 50 52 52 50 52 51 51 51 50 50 49 49
57 57 58 59 59 58 59 58 57 54 53 52 47 48 45 45 45 44 43 46 51 49 50 53 52 52 51 50 50 50 49 50 50 49 49 49 48 48 48 47 46 45 45
57 57 57 55 57 58 58 56 56 57 55 53 51 49 47 46 44 43 43 46 48 50 52 52 52 51 50 50 50 49 49 48 48 47 46 45 45 44 44 44 44 46 46
54 59 59 57 57 57 54 57 57 56 51 52 49 50 52 51 51 49 50 51 51 51 52 51 50 51 50 49 49 50 49 47 45 45 44 43 43 43 43 43 43 41 41
56 53 58 52 53 54 52 52 54 54 53 50 49 54 51 53 54 53 55 53 52 53 53 52 50 50 50 50 49 48 47 47 45 44 43 42 42 41 41 41 41 40 40
54 54 53 53 53 53 53 52 53 53 53 50 48 49 48 53 53 54 55 55 55 55 55 54 52 49 51 51 50 48 46 44 44 43 42 42 41 41 40 40 39 39 39
55 55 54 53 53 54 53 53 53 54 55 54 52 52 52 52 53 53 55 55 54 54 54 53 52 50 51 50 50 48 46 44 43 42 41 41 41 40 40 39 39 38 38
59 56 54 53 52 52 52 52 53 52 53 53 53 52 52 52 53 53 53 54 54 53 53 53 50 50 49 49 49 47 47 45 44 43 42 40 39 40 40 39 39 39 43
57 56 58 55 56 55 54 52 52 53 54 53 53 51 50 51 52 52 52 52 53 52 52 52 51 53 52 52 48 46 41 41 42 40 41 42 40 40 39 40 42 42 42
55 55 57 57 55 56 56 52 54 55 54 56 56 54 52 52 51 51 51 51 50 50 51 50 51 51 51 51 49 43 35 37 40 38 41 39 39 39 39 42 43 42 41

GFSGL_sfc_temp_114.txt.gz
Temp
75 73 74 72 72 71 71 70 69 69 69 71 72 72 73 75 75 74 73 74 76 74 74 74 75 74 72 73 72 72 71 70 68 70 70 75 74 73 76 77 80 81 79
76 77 73 74 73 72 72 71 70 69 70 71 71 71 72 74 74 73 74 76 74 73 74 73 74 78 73 72 72 72 71 71 70 68 69 73 72 73 72 75 79 84 79
76 74 76 75 73 73 73 71 70 70 70 71 71 71 72 74 72 72 73 72 74 75 74 74 74 73 72 71 72 71 71 71 70 69 69 70 72 72 72 73 74 74 80
71 72 72 73 74 76 76 74 72 72 71 71 72 72 72 70 70 70 71 73 74 73 74 74 74 74 73 72 73 71 71 70 70 69 68 68 69 72 71 70 70 72 72
70 70 71 72 73 73 72 72 73 73 73 73 73 69 68 67 67 66 68 70 72 72 73 74 71 71 69 69 70 70 70 69 68 68 68 68 68 69 68 69 68 69 70
70 70 70 70 71 72 73 74 73 71 70 71 70 67 65 67 62 65 66 68 70 71 70 68 67 68 69 68 67 68 69 69 68 68 68 67 68 68 68 65 66 66 65
70 70 70 71 71 71 71 72 72 70 71 68 66 63 61 60 60 61 65 66 70 70 70 67 67 68 66 68 68 68 67 66 66 68 66 66 66 66 65 64 64 65 66
69 69 70 70 69 69 70 71 71 70 70 68 65 63 60 60 59 60 63 66 65 65 64 62 61 61 62 67 68 67 66 67 66 68 64 65 66 67 66 67 66 66 68
69 69 69 69 68 68 68 68 68 68 67 66 64 61 60 61 58 59 66 64 61 60 61 62 62 61 60 63 66 65 64 64 67 64 64 62 61 62 65 66 65 63 62
68 68 69 68 68 67 67 67 66 65 63 61 60 61 60 61 57 57 65 63 60 61 60 59 60 59 57 58 62 61 61 60 61 65 66 67 66 66 65 65 62 61 58
68 69 68 68 67 66 65 65 63 62 61 59 59 60 61 60 60 56 59 63 60 63 63 62 61 57 55 55 58 61 62 61 63 61 62 62 63 63 63 62 60 61 57
64 64 65 66 67 66 65 63 63 63 61 60 59 60 60 60 57 56 56 58 62 61 59 62 59 54 53 55 58 56 56 58 58 58 57 56 56 57 57 58 60 63 62
59 58 57 56 57 59 63 63 62 62 61 61 60 58 57 59 60 55 54 56 57 60 62 59 54 53 53 55 56 56 56 54 52 53 51 51 52 54 56 55 56 56 57
59 56 55 53 51 52 53 53 54 57 61 63 63 61 60 58 56 55 56 56 55 56 57 59 57 56 56 56 55 54 54 53 52 51 50 50 52 52 53 52 52 51 51
58 57 54 51 50 49 46 48 49 46 47 55 57 62 60 57 54 48 50 52 50 49 50 53 53 52 51 51 51 52 52 51 51 50 50 49 50 53 53 53 51 49 48
58 59 56 53 51 51 49 48 46 46 45 44 45 52 50 49 46 44 43 43 44 46 52 52 51 51 51 50 50 49 49 51 49 49 48 48 48 47 47 48 48 45 45
56 57 54 56 56 54 53 52 49 48 47 46 45 45 47 46 44 43 42 43 44 47 51 50 50 50 49 49 49 50 47 48 48 48 47 47 48 48 45 45 45 44 44
56 54 54 57 57 57 56 56 54 52 52 51 46 47 43 43 43 43 43 48 49 49 48 50 49 48 48 49 49 48 47 47 45 45 45 44 44 44 44 42 42 41 40
54 53 51 52 52 53 53 56 55 55 50 48 45 48 46 44 44 43 44 51 49 48 49 49 50 49 47 47 47 46 45 44 43 43 42 41 41 41 40 41 41 43 41
54 58 55 51 52 50 50 50 50 53 52 52 49 52 51 50 52 52 52 52 50 49 52 52 51 49 48 47 46 45 44 44 42 41 40 40 40 40 39 39 39 38 38
51 51 57 50 50 49 49 50 48 48 49 48 49 50 48 50 50 50 49 48 49 49 50 52 48 47 47 47 45 44 45 45 44 41 40 40 39 38 38 38 38 38 38
50 50 50 49 49 50 50 49 50 49 47 48 47 47 46 50 49 49 50 51 51 51 51 51 50 51 51 50 48 48 46 44 43 43 40 40 39 39 39 38 38 37 37
51 51 50 50 49 50 50 49 50 50 48 47 47 48 49 49 50 48 50 51 51 50 51 50 48 48 49 49 48 47 45 44 44 43 42 41 41 40 40 38 38 37 37
55 52 51 49 49 48 49 49 49 49 50 50 48 49 47 48 48 50 50 50 50 51 51 50 50 50 49 48 47 46 45 43 42 42 42 40 39 39 39 37 37 38 38
51 52 51 50 49 49 52 48 48 49 50 50 50 49 47 48 48 49 49 49 49 49 49 48 49 50 49 47 45 45 42 40 43 40 41 40 40 40 39 38 40 40 39
54 51 50 50 53 53 51 53 52 51 48 52 54 48 48 47 48 48 48 49 48 48 48 47 48 49 48 47 47 43 37 36 40 38 41 40 38 38 38 37 38 37 37

GFSGL_sfc_temp_117.txt.gz
Temp
72 71 71 71 71 71 70 71 70 69 68 69 70 72 72 73 73 72 72 73 73 72 72 71 72 72 71 71 70 70 69 68 65 69 69 72 73 72 74 74 79 77 76
74 73 71 71 71 70 70 70 69 68 67 68 70 71 71 72 71 71 72 74 73 72 73 72 72 75 71 71 70 70 70 69 68 67 68 70 70 72 71 72 76 80 75
74 72 72 71 71 70 70 70 69 69 68 69 70 70 70 72 73 72 72 72 72 73 73 72 73 72 71 70 70 70 69 71 69 68 67 69 69 71 71 71 72 71 78
73 72 71 71 71 72 72 71 70 69 69 68 70 71 71 71 70 71 72 72 72 72 73 73 73 72 71 71 71 70 70 69 69 67 67 67 68 70 69 67 67 69 70
72 72 72 72 72 71 71 71 71 70 70 70 71 70 68 69 68 67 68 71 72 71 72 72 70 70 69 68 70 70 69 68 67 67 66 67 67 67 66 66 65 67 68
71 72 72 70 71 71 71 71 71 70 70 70 70 67 65 66 62 65 65 67 69 70 70 68 67 69 68 67 67 67 69 69 67 67 67 66 65 65 64 63 64 65 64
69 70 70 70 69 70 71 71 70 70 70 68 65 64 62 61 61 62 65 65 67 68 69 66 67 68 67 68 66 66 66 64 66 68 65 65 65 65 64 64 64 64 64
68 69 69 69 69 69 70 70 70 70 69 68 65 63 61 61 60 60 63 65 65 64 64 63 62 63 63 66 66 66 65 65 64 66 63 64 64 65 65 66 65 64 66
68 68 69 69 68 68 68 68 68 69 69 67 65 61 61 61 59 58 64 64 62 61 61 63 63 62 60 63 64 64 63 64 65 62 62 62 61 61 63 64 62 61 60
68 68 69 68 67 67 67 67 66 66 64 62 60 59 59 60 58 58 63 62 59 58 58 60 61 60 59 60 61 61 60 59 61 63 61 62 61 62 62 58 60 58 55
68 68 67 67 67 67 67 66 63 62 62 61 60 61 60 61 58 56 59 61 58 62 62 62 61 57 56 56 58 63 61 60 60 59 60 58 59 59 59 61 59 57 53
64 63 66 66 67 66 64 62 61 61 59 58 57 59 60 60 56 55 56 59 61 59 58 61 59 54 53 54 56 55 57 59 59 57 54 53 52 53 54 55 55 55 55
59 58 57 56 58 60 63 62 61 62 61 60 61 60 59 60 59 55 55 56 58 61 61 58 53 52 53 55 55 56 57 58 55 52 50 49 49 50 51 52 53 51 51
56 56 56 57 56 55 54 54 56 56 61 60 60 59 56 55 57 57 58 58 57 59 58 59 56 55 55 55 56 55 55 55 54 53 51 51 52 51 49 51 49 49 47
56 55 53 53 51 49 47 48 50 46 48 54 53 59 56 57 56 50 53 56 56 52 52 53 52 51 51 50 49 50 50 51 49 47 46 46 46 47 46 45 45 44 44
57 57 54 52 51 51 50 48 47 45 45 43 44 50 51 48 46 44 43 44 45 47 52 52 51 51 50 48 48 48 48 49 47 47 46 46 45 45 45 45 45 42 41
55 54 53 53 54 52 52 53 52 49 49 46 44 44 44 47 43 43 43 44 45 48 55 54 51 50 49 49 48 47 46 45 46 46 45 45 45 44 43 42 42 41 40
54 53 55 53 55 52 52 53 51 53 53 52 48 46 44 43 42 42 43 45 52 51 53 53 52 51 48 47 46 45 44 43 42 42 42 42 42 42 41 39 39 38 38
54 55 54 54 52 51 51 52 49 50 50 52 51 49 46 43 43 43 43 51 51 52 51 52 53 51 47 46 45 45 46 45 43 42 41 40 40 40 38 39 39 42 39
50 57 54 50 49 51 48 48 48 48 47 47 48 50 50 47 50 49 49 48 50 51 51 51 51 50 49 47 47 47 46 45 44 42 41 40 39 40 39 38 38 37 37
48 48 55 47 47 47 47 47 46 46 46 46 46 47 47 47 48 48 49 50 50 51 50 49 49 49 47 48 45 45 45 44 42 40 39 40 41 39 37 38 39 39 38
48 47 47 47 46 47 46 46 46 46 47 47 46 46 46 47 47 47 48 49 50 50 50 50 49 49 48 47 46 45 44 44 43 43 42 42 42 41 41 40 39 38 38
49 48 48 47 47 49 46 46 45 46 46 47 47 47 47 47 47 47 48 49 48 49 48 48 48 47 48 48 48 48 46 44 44 44 42 42 41 41 41 40 40 39 38
50 50 49 47 47 46 46 46 46 46 47 47 47 46 46 47 47 47 48 48 47 47 47 46 46 47 46 46 46 45 45 44 43 43 42 40 40 40 39 38 38 38 38
51 50 49 48 48 47 46 46 46 46 47 47 47 47 46 46 45 46 47 46 47 46 46 46 46 47 47 46 44 44 41 40 42 40 41 41 40 39 38 38 38 38 38
50 50 50 51 50 48 48 51 50 50 51 52 47 46 47 46 45 45 45 46 46 46 45 45 46 47 47 46 46 42 36 36 39 37 40 39 38 38 37 38 38 37 37

GFSGL_sfc_temp_120.txt.gz
Temp
72 72 72 72 72 73 72 72 72 72 71 71 72 73 73 74 76 75 75 75 75 75 76 75 75 76 76 76 76 74 74 72 72 75 74 78 78 77 79 80 81 82 82
73 72 72 72 72 72 72 72 72 71 70 71 71 72 73 74 75 74 75 77 75 75 75 75 75 77 75 75 76 75 75 74 74 72 73 75 75 77 77 77 79 84 81
72 72 72 72 72 72 72 73 72 71 71 70 70 72 73 73 74 73 73 75 75 75 75 76 76 75 74 75 75 75 75 74 74 72 73 74 74 76 76 77 76 77 83
72 72 72 72 73 73 73 73 73 72 72 70 71 72 72 73 74 74 73 74 75 75 75 76 76 75 74 74 74 74 75 74 73 73 71 72 73 75 73 72 74 75 75
72 72 72 73 73 73 72 72 72 71 72 72 71 73 72 72 70 70 72 73 73 75 75 75 75 74 70 71 74 74 73 72 72 72 72 71 71 71 70 70 71 71 72
72 72 72 71 72 72 72 72 72 72 71 71 72 72 70 68 63 65 67 70 72 73 73 73 72 71 70 67 68 67 73 73 72 72 71 70 70 70 70 71 71 72 70
69 69 70 71 71 71 72 71 71 71 70 71 69 67 65 66 62 63 65 68 70 71 72 70 71 71 70 70 66 66 65 64 68 73 72 70 70 71 71 70 70 70 69
68 69 69 69 69 69 70 70 70 70 68 68 67 65 64 63 60 60 63 67 68 68 69 69 68 68 68 70 70 69 68 68 69 73 70 70 69 70 71 72 71 70 68
67 68 68 69 68 68 68 68 69 69 69 68 66 64 63 62 59 59 64 65 63 64 65 66 67 67 62 62 67 67 66 66 63 61 61 60 59 60 66 72 70 70 68
67 68 68 69 68 68 68 68 67 68 67 65 62 62 61 61 57 57 62 64 62 61 61 61 62 63 59 60 64 64 65 65 66 66 65 63 62 63 61 64 68 69 66
67 68 68 68 68 68 67 66 65 63 61 60 58 58 56 56 58 57 59 62 61 59 60 62 61 57 55 56 58 65 64 64 63 63 63 63 62 63 63 61 60 64 62
63 63 65 67 67 66 65 62 61 61 58 57 58 57 59 60 55 57 58 59 60 61 59 61 59 53 52 54 57 55 56 60 63 63 62 60 59 59 59 58 57 58 58
59 58 57 57 58 61 63 61 59 58 56 55 56 58 58 60 59 54 55 56 59 61 62 57 53 51 53 55 55 56 58 60 58 57 56 57 56 58 58 58 57 56 55
56 55 55 56 55 55 54 55 56 59 59 58 56 55 56 53 55 59 59 59 56 59 58 58 56 55 55 56 58 57 57 57 58 58 57 57 57 56 55 55 55 55 54
55 55 54 54 52 50 48 49 50 46 49 54 55 57 55 56 53 48 52 56 56 53 56 57 57 58 57 57 57 57 57 57 57 56 55 54 54 54 52 53 51 51 51
58 56 54 52 52 51 51 48 48 47 47 44 45 50 48 47 45 44 43 44 46 47 57 56 55 56 57 56 56 55 55 54 54 54 54 53 52 52 51 51 51 50 48
57 56 55 55 55 54 54 54 52 49 46 43 43 43 46 45 43 43 43 44 45 48 57 56 56 56 54 53 53 55 54 53 52 52 52 51 51 51 51 50 50 49 48
54 52 55 55 55 55 55 54 54 55 54 52 47 47 43 43 43 43 43 46 52 51 54 54 53 53 53 53 52 52 51 51 51 51 51 51 51 50 49 48 48 48 48
54 54 54 54 54 54 54 55 55 55 54 53 53 49 46 44 43 43 44 53 53 55 56 54 53 53 53 54 53 52 50 50 50 50 50 50 49 49 47 48 47 45 45
54 56 54 52 52 53 54 54 54 53 53 53 53 53 53 52 54 54 53 53 52 53 54 55 54 54 54 54 52 51 51 50 49 50 49 48 49 49 48 47 48 47 47
54 53 54 52 52 52 52 52 52 53 53 53 53 51 47 54 54 55 55 54 55 55 55 55 54 54 53 52 51 51 51 50 50 49 48 48 47 46 47 47 47 47 47
54 53 53 53 52 51 52 52 52 53 53 54 54 51 45 53 54 54 54 55 56 55 57 55 55 55 54 53 52 52 50 49 48 48 48 48 46 46 46 45 46 46 46
55 55 54 53 53 52 52 52 53 53 53 53 54 54 54 54 54 54 55 57 56 56 56 56 56 56 55 55 54 54 52 51 50 49 47 47 47 46 46 45 45 45 45
55 55 54 54 53 54 54 53 53 49 54 55 55 55 55 55 55 55 56 56 56 56 56 56 56 57 55 54 54 54 54 52 51 51 50 48 47 44 46 46 45 45 45
56 55 54 54 54 54 54 54 54 54 54 54 55 54 55 55 54 54 55 55 55 55 55 55 55 56 55 54 55 54 47 40 49 45 49 49 48 46 46 46 46 46 45
55 54 54 54 54 54 53 53 55 55 55 54 54 53 55 54 55 55 54 54 54 54 55 55 55 55 54 55 55 47 36 36 44 38 50 50 48 47 47 46 46 46 46